     2              OBSERVATION DATA    GPS                 RINEX VERSION / TYPE
ASRINEXO V2.9.5 UX USGS 24-MAY-99 16:01                     PGM / RUN BY / DATE
                                                            COMMENT
Original Marker Name: mcds MCDS_4-80_City_of_LA             COMMENT
Campaign Name: usgs monitor surveys                         COMMENT
4-Character Station Name: MCDS                              COMMENT
6-Character Antenna Code: DMRCHT                            COMMENT
Vertical Measurement Point: BCR                             COMMENT
Vertical Offset to Rinex Ref. Point: 0.0348                 COMMENT
Radial Measurement Point: ECF                               COMMENT
Radial Offset to Rinex Ref. Point: 0.1897                   COMMENT
Antenna Height from Field Measurement: 1.6700 m             COMMENT
Additional Antenna Identification Info.:                    COMMENT
Turborogue and Ashtech Choke Ring                           COMMENT
Original XYZ: -2523801.2012 -4640011.6827 3565319.2217      COMMENT
New XYZ position is based on association with SCEC monument COMMENT
E1C7Z1T5+0011. Position of that monument is believed to be  COMMENT
valid to within 1 m horizontally; vertical accuracy         COMMENT
should be no worse than 3-times this value.                 COMMENT
                                                            COMMENT
Revised Rinex header created by UCSD GPS archive for        COMMENT
GSAC on 09-Dec-1999 (1999:343) 08:25:39 GMT                 COMMENT
For assistance contact dagnew@ucsd.edu or hjohnson@ucsd.edu COMMENT
                                                            COMMENT
MCDS MCDS_4-80_CITY_OF_LA                                   MARKER NAME
CHS US GEOLOGICAL SURVEY                                    OBSERVER / AGENCY
464 ASHTECH Z-XII3 CB00                                     REC # / TYPE / VERS
333 DORNE-MARGOL. TYPE T                                    ANT # / TYPE
 -2523255.0000 -4639026.0000  3565112.0000                  APPROX POSITION XYZ
        1.6244        0.0000        0.0000                  ANTENNA: DELTA H/E/N
     1     1     0                                          WAVELENGTH FACT L1/2
     5    C1    L1    L2    P1    P2                        # / TYPES OF OBSERV
    30                                                      INTERVAL
  1999     5    18    15    46   30.000000                  TIME OF FIRST OBS
  1999     5    18    22    29   30.000000                  TIME OF LAST OBS
                                                            END OF HEADER
 99  5 18 15 46 30.0000000  0  4 02 26 07 09
  22201494.814     -190297.457 9   -153879.75049  22201493.646    22201498.6464
  23819078.823      -93888.657 9    -82397.39049  23819076.437    23819081.2664
  21260010.425     -156610.626 9   -129452.54849  21260009.522    21260014.1634
  21626168.265     -617945.255 9   -469706.54849  21626168.955    21626173.1174
 99  5 18 15 47  0.0000000  0  4 02 26 07 09
  22210249.908     -144287.165 9   -118027.62049  22210249.055    22210254.7184
  23832568.932      -22989.146 9    -27151.10349  23832565.418    23832573.8514
  21270218.545     -102966.877 9    -87652.24749  21270216.915    21270222.1544
  21615377.470     -674654.934 9   -513895.90149  21615378.015    21615381.7854
 99  5 18 15 47 30.0000000  0  4 02 26 07 09
  22219061.828      -97979.804 9    -81944.02249  22219061.724    22219067.1484
  23846105.771       48152.999 9     28284.21149  23846105.904    23846113.4174
  21280478.928      -49046.655 9    -45636.51049  21280477.792    21280482.8974
  21604683.661     -730852.555 9   -557686.24249  21604682.979    21604687.6834
 99  5 18 15 48  0.0000000  0  3 02 26 07
  22227923.768      -51411.119 9    -45656.78949  22227923.349    22227929.1524
  23859678.921      119479.897 9     83863.50649  23859679.128    23859686.2344
  21290782.891        5101.153 9     -3443.43649  21290782.288    21290787.4624
 99  5 18 15 48 30.0000000  0  4 02 26 04 07
  22237469.406       -1248.486 9     -6569.07749  22237468.441    22237474.1744
  23873921.022      194322.745 9    142182.49549  23873923.107    23873926.9034
  21263024.471     -494303.197 9   -366091.97949  21263024.025    21263029.0454
  21301765.003       62813.153 9     41526.94749  21301763.656    21301769.3564
 99  5 18 15 49  0.0000000  0  4 02 26 04 07
  22246406.323       45715.527 9     30026.21549  22246405.194    22246411.3574
  23887535.794      265865.826 9    197930.24749  23887535.004    23887543.0874
  21249334.842     -566238.157 9   -422145.14249  21249334.572    21249339.7434
  21312125.927      117261.139 9     83953.92449  21312125.143    21312130.1084
 99  5 18 15 49 30.0000000  0  4 02 26 04 07
  22255383.753       92891.398 9     66786.55649  22255382.959    22255389.4084
  23901167.247      337502.737 9    253751.10949  23901166.477    23901173.9564
  21235727.167     -637744.060 9   -477863.97749  21235727.502    21235732.8824
  21322517.459      171868.573 9    126505.14349  21322516.969    21322521.7804
 99  5 18 15 50  0.0000000  0  5 02 26 04 07 09
  22264403.784      140291.459 9    103721.62249  22264403.294    22264409.3184
  23914824.444      409271.764 9    309674.90249  23914825.351    23914830.5404
  21222211.169     -708772.191 9   -533210.52249  21222211.868    21222216.4624
  21332945.324      226666.983 9    169205.17749  21332944.530    21332950.0214
  21553092.018     -166851.59349                  21553092.355    21553097.2254
 99  5 18 15 50 30.0000000  0  5 02 26 04 07 09
  22273471.097      187939.354 9    140849.78749  22273470.667    22273475.9034
  23928511.601      481197.435 9    365720.77849  23928510.937    23928517.4794
  21208791.934     -779292.426 9   -588161.29349  21208791.899    21208797.1164
  21343414.168      281681.395 9    212073.53349  21343413.133    21343418.2264
  21542902.133     -288356.84119   -208581.13449  21542901.570    21542906.1274
 99  5 18 15 51  0.0000000  0  5 02 26 04 07 09
  22282589.095      235855.273 9    178186.80749  22282588.375    22282594.1924
  23942228.378      553281.188 9    421889.87849  23942228.570    23942235.6704
  21195468.735     -849306.353 9   -642717.55449  21195468.792    21195474.1264
  21353925.560      336918.992 9    255115.80149  21353924.905    21353929.4584
  21532805.377     -341412.419 9   -249923.13149  21532805.219    21532810.1124
 99  5 18 15 51 30.0000000  0  5 02 26 04 07 09
  22291756.258      284027.573 9    215723.59549  22291755.699    22291761.3694
  23955974.938      625521.294 9    478180.75849  23955974.324    23955981.5254
  21182242.360     -918811.490 9   -696877.34549  21182242.609    21182248.0624
  21364478.798      392376.902 9    298329.73749  21364478.529    21364483.2894
  21522808.002     -393949.366 9   -290861.00649  21522808.370    21522812.8294
 99  5 18 15 52  0.0000000  0  5 02 26 04 07 09
  22300970.880      332450.309 9    253455.54049  22300969.850    22300975.4744
  23969748.709      697903.000 9    534581.93849  23969749.668    23969754.6324
  21169106.688     -987839.993 9   -750665.72649  21169106.932    21169111.1834
  21375067.777      448021.965 9    341689.49649  21375066.899    21375071.9824
  21512905.966     -445988.260 9   -331410.77749  21512904.906    21512909.8454
 99  5 18 15 52 30.0000000  0  5 02 26 04 07 09
  22310234.006      381128.762 9    291386.72249  22310232.837    22310239.5384
  23983547.235      770413.477 9    591083.50549  23983548.425    23983556.6984
  21156059.207    -1056404.522 9   -804092.58449  21156058.975    21156064.0754
  21385691.543      503850.881 9    385192.52949  21385690.794    21385695.4574
  21503094.673     -497545.335 9   -371585.12749  21503094.767    21503098.7754
 99  5 18 15 53  0.0000000  0  5 02 26 04 07 09
  22319542.596      430047.138 9    329504.86649  22319540.943    22319547.6194
  23997369.934      843052.958 9    647685.63449  23997369.907    23997377.1394
  21143100.757    -1124500.544 9   -857154.37249  21143100.836    21143106.2264
  21396349.210      559856.731 9    428833.42249  21396348.926    21396353.5314
  21493373.042     -548633.689 9   -411394.21549  21493372.348    21493377.2714
 99  5 18 15 53 30.0000000  0  5 02 26 04 07 09
  22328897.704      479209.248 9    367812.94849  22328897.076    22328903.6634
  24011219.036      915828.434 9    704393.63749  24011220.588    24011227.6864
  21130236.505    -1192102.356 9   -909831.04949  21130237.041    21130241.9944
  21407042.442      616049.593 9    472620.05149  21407041.803    21407047.1894
  21483743.211     -599238.912 9   -450826.84849  21483742.894    21483747.5104
 99  5 18 15 54  0.0000000  0  5 02 26 04 07 09
  22338300.027      528618.341 9    406313.46049  22338298.778    22338306.1194
  24025093.851      988739.202 9    761207.09849  24025094.413    24025101.8134
  21117465.213    -1259217.119 9   -962128.21249  21117465.133    21117470.5794
  21417772.054      672433.507 9    516555.54049  21417771.196    21417776.8764
  21474200.740     -649384.635 9   -489901.44449  21474200.620    21474205.0874
 99  5 18 15 54 30.0000000  0  5 02 26 04 07 09
  22347746.583      578261.127 9    444996.08949  22347746.647    22347752.5824
  24038991.811     1061773.166 9    818116.58249  24038991.173    24038999.4494
  21104786.920    -1325841.896 9  -1014043.57149  21104786.790    21104792.2494
  21428537.296      729005.083 9    560637.24749  21428536.833    21428541.7724
  21464748.024     -699059.556 9   -528609.17049  21464747.654    21464751.7394
 99  5 18 15 55  0.0000000  0  5 02 26 04 07 09
  22357240.346      628149.417 9    483870.01849  22357240.085    22357246.1824
  24052911.109     1134920.910 9    875114.71249  24052912.575    24052919.1944
  21092204.146    -1391964.499 9  -1065567.62349  21092203.811    21092209.2544
  21439340.561      785775.863 9    604874.18149  21439339.734    21439344.7914
  21455388.801     -748242.003 9   -566933.14849  21455388.584    21455392.2804
 99  5 18 15 55 30.0000000  0  5 02 26 04 07 09
  22366784.362      678302.818 9    522950.52449  22366783.798    22366790.3494
  24066851.695     1208175.898 9    932196.44449  24066852.085    24066858.0724
  21079715.188    -1457593.495 9  -1116707.04949  21079715.027    21079720.1224
  21450180.768      842742.570 9    649263.80649  21450179.720    21450185.3864
  21446124.186     -796927.928 9   -604870.23249  21446124.367    21446127.7434
 99  5 18 15 56  0.0000000  0  5 02 26 04 07 09
  22376377.165      728713.679 9    562231.65749  22376376.197    22376382.7794
  24080809.356     1281523.452 9    989350.26549  24080810.961    24080815.7344
  21067313.849    -1522762.940 9  -1167488.38749  21067314.082    21067319.4584
  21461054.818      899886.346 9    693791.38549  21461054.421    21461059.0104
  21436951.867     -845129.000 9   -642429.50249  21436952.097    21436956.1714
 99  5 18 15 56 30.0000000  0  5 02 26 04 07 09
  22386017.315      779371.277 9    601705.05749  22386016.893    22386023.8284
  24094780.074     1354938.407 9   1046556.59649  24094780.391    24094786.8754
  21054999.295    -1587477.278 9  -1217915.09749  21055000.017    21055004.3144
  21471958.908      957187.186 9    738441.37549  21471958.592    21471963.6374
  21427872.419     -892842.657 9   -679608.97849  21427872.912    21427876.5114
 99  5 18 15 57  0.0000000  0  5 02 26 04 07 09
  22395703.250      830271.214 9    641367.29249  22395702.318    22395709.2674
  24108765.914     1428433.055 9   1103825.01049  24108765.589    24108772.3404
  21042769.636    -1651744.846 9  -1267993.66749  21042769.444    21042774.6254
  21482891.646     1014638.628 9    783208.70749  21482890.704    21482896.2134
  21418881.676     -940090.052 9   -716425.12849  21418881.477    21418885.7894
 99  5 18 15 57 30.0000000  0  5 02 26 04 07 09
  22405430.669      881389.319 9    681199.50549  22405430.193    22405436.2714
  24122767.608     1502013.843 9   1161160.60049  24122767.246    24122774.7334
  21030620.959    -1715586.130 9  -1317740.07349  21030620.864    21030625.5384
  21493846.749     1072207.829 9    828067.78549  21493846.020    21493851.3164
  21409975.743     -986891.198 9   -752893.54749  21409975.692    21409979.8254
 99  5 18 15 58  0.0000000  0  5 02 26 04 07 09
  22415195.459      932703.470 9    721184.46649  22415195.303    22415201.4574
  24136781.680     1575659.581 9   1218546.82649  24136783.053    24136789.9654
  21018553.096    -1779002.248 9  -1367155.18549  21018552.749    21018558.1094
  21504821.974     1129882.084 9    873008.72349  21504821.572    21504826.2274
  21401154.895    -1033245.544 9   -789013.81049  21401153.999    21401158.6414
 99  5 18 15 58 30.0000000  0  6 02 26 24 04 07 09
  22424997.631      984213.358 9    761321.94849  22424996.328    22425003.6974
  24150810.096     1649376.998 9   1275988.83549  24150810.672    24150819.5164
  23075709.489    -1773329.752 9  -1356136.09849  23075708.599    23075717.3024
  21006571.613    -1841964.816 9  -1416216.87949  21006571.933    21006576.9504
  21515820.047     1187676.882 9    918043.60349  21515819.308    21515824.7674
  21392421.458    -1079139.165 9   -824775.07949  21392420.895    21392425.1294
 99  5 18 15 59  0.0000000  0  6 02 26 24 04 07 09
  22434838.870     1035931.035 9    801621.38049  22434837.855    22434844.4024
  24164854.118     1723178.319 9   1333496.28749  24164856.938    24164865.9314
  23055794.299    -1877976.323 9  -1437678.73449  23055793.986    23055803.0824
  20994678.926    -1904461.250 9  -1464915.34949  20994679.556    20994684.3774
  21526842.295     1245599.471 9    963178.05949  21526841.688    21526846.8064
  21383777.528    -1124563.231 9   -860170.45449  21383777.669    21383781.8224
 99  5 18 15 59 30.0000000  0  6 02 26 24 04 07 09
  22444722.493     1087869.917 9    842093.16249  22444721.323    22444729.2784
  24178909.933     1797043.519 9   1391053.57349  24178909.589    24178918.4944
  23035911.526    -1982461.509 9  -1519095.61949  23035910.341    23035919.6954
  20982880.285    -1966463.836 9  -1513229.00249  20982880.594    20982885.6224
  21537890.653     1303659.006 9   1008419.22349  21537890.209    21537894.9254
  21375226.480    -1169499.452 9   -895185.68249  21375225.969    21375230.7504
 99  5 18 16  0  0.0000000  0  6 02 26 24 04 07 09
  22454652.396     1140051.324 9    882753.94849  22454651.198    22454658.4634
  24192979.434     1870973.296 9   1448661.04249  24192979.749    24192986.9764
  23016063.401    -2086763.464 9  -1600369.74549  23016064.470    23016071.4854
  20971181.165    -2027943.119 9  -1561134.89449  20971181.583    20971186.0074
  21548971.624     1361889.633 9   1053793.71049  21548971.228    21548975.3844
  21366771.231    -1213932.060 9   -929808.50649  21366771.372    21366775.3504
 99  5 18 16  0 30.0000000  0  6 02 26 24 04 07 09
  22464630.859     1192486.313 9    923612.29149  22464631.080    22464635.9634
  24207065.978     1944997.001 9   1506341.62649  24207066.607    24207071.3634
  22996252.966    -2190870.217 9  -1681491.73849  22996253.405    22996261.3564
  20959585.001    -2088882.226 9  -1608619.85649  20959584.831    20959589.4924
  21560088.299     1420308.522 9   1099314.90749  21560087.622    21560092.4074
  21358411.027    -1257865.381 9   -964042.27549  21358410.400    21358414.6324
 99  5 18 16  1  0.0000000  0  6 02 26 24 04 07 09
  22474660.013     1245189.444 9    964679.58149  22474659.767    22474665.5094
  24221171.330     2019125.640 9   1564104.21049  24221174.780    24221180.6984
  22976480.365    -2294778.041 9  -1762458.71849  22976481.103    22976486.7884
  20948094.326    -2149265.930 9  -1655672.04949  20948094.056    20948098.8844
  21571241.071     1478916.299 9   1144983.27349  21571241.041    21571245.2454
  21350144.675    -1301304.037 9   -997890.56949  21350144.133    21350149.0374
 99  5 18 16  1 30.0000000  0  6 02 26 24 04 07 09
  22484738.503     1298152.191 9   1005949.18049  22484737.890    22484744.3144
  24235297.562     2093358.138 9   1621947.68149  24235298.182    24235305.7564
  22956746.276    -2398481.161 9  -1843266.21949  22956745.586    22956752.5324
  20936708.136    -2209100.736 9  -1702296.53849  20936708.508    20936712.6524
  21582430.750     1537717.972 9   1190802.71849  21582430.075    21582435.3304
  21341972.228    -1344250.820 9  -1031355.59649  21341972.630    21341976.4454
 99  5 18 16  2  0.0000000  0  6 02 26 24 04 07 09
  22494863.888     1351361.386 9   1047410.82249  22494863.680    22494870.0874
  24249445.391     2167705.396 9   1679880.43849  24249447.817    24249451.0344
  22937045.243    -2502009.257 9  -1923937.33849  22937044.245    22937050.9254
  20925421.187    -2268413.783 9  -1748514.45049  20925421.112    20925426.4824
  21593654.897     1596701.481 9   1236763.85649  21593653.585    21593659.6524
  21333893.110    -1386707.802 9  -1064438.95049  21333892.324    21333896.9604
 99  5 18 16  2 30.0000000  0  6 02 26 24 04 07 09
  22505034.722     1404809.104 9   1089058.29949  22505034.229    22505040.9834
  24263611.248     2242144.576 9   1737884.78149  24263613.460    24263619.4904
  22917372.925    -2605386.589 9  -2004490.97749  22917371.954    22917378.6904
  20914230.047    -2327223.552 9  -1794340.20449  20914229.830    20914234.6804
  21604908.223     1655839.058 9   1282845.04849  21604907.854    21604912.7124
  21325906.289    -1428678.046 9  -1097143.04549  21325906.002    21325910.5614
 99  5 18 16  3  0.0000000  0  6 02 26 24 04 07 09
  22515250.370     1458492.431 9   1130889.38949  22515250.526    22515256.4684
  24277787.874     2316647.023 9   1795938.61549  24277790.375    24277794.0824
  22897727.763    -2708622.883 9  -2084934.71849  22897727.363    22897733.5684
  20903131.316    -2385547.046 9  -1839787.05249  20903131.363    20903136.7214
  21616189.473     1715122.019 9   1329039.52949  21616189.523    21616194.1084
  21318014.641    -1470148.927 9  -1129458.02249  21318014.895    21318018.9534
 99  5 18 16  3 30.0000000  0  6 02 26 24 04 07 09
  22525509.798     1512404.856 9   1172899.00449  22525509.844    22525515.1224
  24291973.930     2391191.732 9   1854025.38349  24291973.976    24291978.0234
  22878108.927    -2811721.603 9  -2165271.26049  22878109.035    22878114.4654
  20892122.165    -2443400.428 9  -1884867.56949  20892122.325    20892126.8974
  21627496.828     1774541.856 9   1375340.66549  21627496.166    21627501.5254
  21310220.096    -1511110.209 9  -1161375.91149  21310220.142    21310224.6094
 99  5 18 16  4  0.0000000  0  6 02 26 24 04 07 09
  22535812.515     1566544.613 9   1215085.75849  22535812.422    22535818.2814
  24306165.359     2465766.258 9   1912135.31849  24306169.329    24306170.1034
  22858516.480    -2914680.743 9  -2245499.02649  22858516.488    22858523.1264
  20881204.596    -2500773.065 9  -1929573.49549  20881204.993    20881208.9114
  21638827.672     1834086.637 9   1421739.15949  21638827.421    21638833.1614
  21302525.423    -1551546.418 9  -1192884.63049  21302525.339    21302528.6854
 99  5 18 16  4 30.0000000  0  6 02 26 24 04 07 09
  22546161.717     1620929.637 9   1257463.60949  22546160.448    22546166.7914
  24320359.436     2540358.457 9                  24320355.928    24320362.7544
  22838958.541    -3017457.804 9  -2325584.90449  22838957.429    22838965.6504
  20870383.704    -2557637.421 9  -1973883.35349  20870384.044    20870388.3694
  21650184.882     1893768.350 9   1468244.35549  21650184.069    21650190.2354
  21294932.155    -1591449.678 9  -1223978.09849  21294931.626    21294935.6314
 99  5 18 16  5  0.0000000  0  6 02 26 24 04 07 09
  22556558.349     1675564.325 9   1300036.00949  22556557.760    22556564.3074
  24334559.607                                    24334558.985    24334564.4054
  22819439.360    -3120030.387 9  -2405511.46449  22819437.762    22819446.5054
  20859662.259    -2613979.210 9  -2017786.01149  20859662.356    20859666.5934
  21661569.843     1953596.174 9   1514863.40449  21661569.557    21661574.7854
  21287440.617    -1630816.509 9  -1254653.54349  21287439.812    21287445.2004
 99  5 18 16  5 30.0000000  0  6 02 26 24 04 07 09
  22567003.369     1730452.023 9   1342805.56949  22567003.698    22567009.4144
  24348767.919                                    24348764.951    24348772.3264
  22799961.389    -3222386.209 9  -2485269.13149  22799960.156    22799968.7234
  20849043.163    -2669782.317 9  -2061268.92549  20849042.448    20849047.6064
  21672981.916     2013566.619 9   1561593.60649  21672981.307    21672986.2604
  21280051.799    -1669644.157 9  -1284908.86049  21280051.607    21280055.5934
 99  5 18 16  6  0.0000000  0  6 02 26 24 04 07 09
  22577498.681     1785604.512 9   1385781.46449  22577497.514    22577505.4264
  24362983.829                                    24362981.559    24362997.0684
  22780526.210    -3324518.394 9  -2564852.53949  22780526.650    22780533.1164
  20838529.515    -2725030.126 9  -2104319.14149  20838529.266    20838534.3244
  21684423.395     2073692.467 9   1608444.88649  21684422.737    21684427.7824
  21272765.540    -1707934.029 9  -1314745.13649  21272765.091    21272769.3724
 99  5 18 16  6 30.0000000  0  6 02 26 24 04 07 09
  22588047.630     1841039.480 9   1428977.47149  22588046.551    22588053.6144
  24377210.242                                    24377209.169    24377228.6594
  22761134.556    -3426422.615 9  -2644258.32149  22761133.735    22761140.7684
  20828121.451    -2779724.251 9  -2146937.91649  20828121.312    20828126.8084
  21695895.346     2133977.939 9   1655420.55649  21695894.595    21695899.5924
  21265575.882    -1745715.542 9  -1344185.28149  21265576.128    21265580.6164
 99  5 18 16  7  0.0000000  0  6 02 26 24 04 07 09
  22598646.580     1896737.897 9   1472378.78549  22598646.313    22598653.4224
  24391448.500                                    24391447.123    24391464.6094
  22741782.285    -3528119.294 9  -2723502.35949  22741780.693    22741788.0344
  20817816.626    -2833877.215 9  -2189134.99949  20817817.085    20817821.6404
  21707394.257     2194405.148 9   1702506.65549  21707393.614    21707398.7434
  21258479.699    -1783007.235 9  -1373243.74049  21258479.921    21258483.9614
 99  5 18 16  7 30.0000000  0  6 02 26 24 04 07 09
  22609294.659     1952693.751 9   1515980.66549  22609295.001    22609300.6184
  24405697.198                                    24405699.466    24405715.5074
  22722469.037    -3629610.819 9  -2802586.55249  22722468.123    22722475.6704
  20807615.310    -2887486.012 9  -2230908.06749  20807615.717    20807620.4004
  21718918.451     2254964.911 9   1749696.05249  21718918.116    21718922.5154
  21251475.088    -1819817.517 9  -1401927.08349  21251474.760    21251478.7664
 99  5 18 16  8  0.0000000  0  6 02 26 24 04 07 09
  22619991.821     2008906.097 9   1559782.41049  22619991.296    22619997.9254
  24419954.896                                    24419956.486    24419961.6064
  22703194.046    -3730899.956 9  -2881513.00449  22703192.727    22703201.6074
  20797518.391    -2940545.618 9  -2272253.19449  20797518.647    20797523.7014
  21730468.059     2315657.758 9   1796989.16549  21730467.380    21730472.5974
  21244560.229    -1856155.204 9  -1430242.18549  21244559.957    21244564.2904
 99  5 18 16  8 30.0000000  0  6 02 26 24 04 07 09
  22630735.868     2065367.049 9   1603777.90449  22630734.538    22630740.6704
  24434221.035                                    24434222.919    24434208.3684
  22683960.910    -3831970.354 9  -2960269.03849  22683960.471    22683967.9904
  20787525.732    -2993057.463 9  -2313171.49649  20787525.246    20787530.5124
  21742041.882     2376478.275 9   1844381.73849  21742041.318    21742046.3944
  21237737.299    -1892009.540 9  -1458180.63549  21237736.441    21237741.2364
 99  5 18 16  9  0.0000000  0  6 02 26 24 04 07 09
  22641523.443     2122056.961 9   1647951.77949  22641523.320    22641529.9214
  24448496.896                                    24448492.681    24448508.7234
  22664769.729    -3932818.847 9  -3038852.16949  22664768.028    22664777.0114
  20777637.547    -3045019.603 9  -2353661.45849  20777637.881    20777642.2654
  21753640.811     2437431.451 9   1891877.68149  21753639.719    21753646.0284
  21231012.773    -1927345.996 9  -1485715.53349  21231012.486    21231017.0634
 99  5 18 16  9 30.0000000  0  6 02 26 24 04 07 09
  22652355.877     2178980.377 9   1692307.62949  22652354.731    22652361.5174
  24462782.925                                    24462778.331    24462793.6294
  22645620.109    -4033447.745 9  -3117264.17249  22645618.485    22645627.6324
  20767850.696    -3096449.765 9  -2393736.88749  20767850.436    20767855.2574
  21765264.774     2498515.909 9   1939475.92849  21765264.021    21765269.6424
  21224390.526    -1962146.692 9  -1512832.96349  21224390.490    21224394.7754
 99  5 18 16 10  0.0000000  0  6 02 26 24 04 07 09
  22663231.192     2236130.692 9   1736840.25649  22663230.302    22663237.5244
  24477073.232      601327.27259                  24477072.166    24477079.3494
  22626510.912    -4133865.762 9  -3195511.87349  22626510.643    22626519.1844
  20758161.087    -3147368.675 9  -2433413.93649  20758161.324    20758166.4834
  21776912.956     2559727.822 9   1987173.48849  21776912.067    21776917.8984
  21217869.922    -1996412.638 9  -1539533.71049  21217869.914    21217874.4014
 99  5 18 16 10 30.0000000  0  6 02 26 24 04 07 09
  22674149.590     2293507.154 9   1781549.10949  22674149.223    22674156.6774
  24491363.896     3438989.12619    659845.29649  24491363.602    24491373.3044
  22607441.470    -4234076.282 9  -3273597.87949  22607442.883    22607449.3084
  20748565.452    -3197794.417 9  -2472706.70949  20748565.537    20748570.5564
  21788583.301     2621056.845 9   2034962.30049  21788582.268    21788588.2884
  21211450.960    -2030144.602 9  -1565818.35749  21211451.298    21211455.6514
 99  5 18 16 11  0.0000000  0  6 02 26 24 04 07 09
  22685112.133     2351115.098 9   1826438.32749  22685111.434    22685118.5564
  24505650.618     3514069.950 9    718349.77249  24505650.541    24505660.9674
  22588408.402    -4334096.979 9  -3351535.96449  22588409.210    22588415.6544
  20739062.850    -3247730.103 9  -2511617.61549  20739063.285    20739068.1264
  21800274.634     2682495.476 9   2082836.52849  21800274.834    21800279.3334
  21205131.725    -2063353.165 9  -1591695.16849  21205131.433    21205135.7954
 99  5 18 16 11 30.0000000  0  6 02 26 24 04 07 09
  22696120.790     2408965.117 9   1871516.20849  22696119.903    22696126.4614
  24519931.370     3589115.920 9    776827.08649  24519931.545    24519942.6524
  22569412.951    -4433919.983 9  -3429319.99449  22569413.220    22569418.6264
  20729656.699    -3297160.393 9  -2550134.70249  20729657.237    20729661.6204
  21811985.580     2744035.365 9   2130789.66149  21811985.267    21811990.7154
  21198907.915    -2096059.207 9  -1617180.39449  21198907.502    21198912.1574
 99  5 18 16 12  0.0000000  0  6 02 26 24 04 07 09
  22707176.384     2467063.018 9   1916787.21549  22707175.380    22707181.5644
  24534207.649     3664134.655 9    835283.06749  24534209.160    24534215.2084
  22550458.582    -4533525.373 9  -3506934.46649  22550457.973    22550464.6324
  20720353.589    -3346048.773 9  -2588229.52949  20720353.298    20720357.6514
  21823717.851     2805688.908 9   2178831.35449  21823717.555    21823723.1124
  21192780.336    -2128259.732 9  -1642271.71949  21192780.403    21192784.7094
 99  5 18 16 12 30.0000000  0  6 02 26 24 04 07 09
  22718280.120     2525414.370 9   1962255.72249  22718279.123    22718285.9864
  24548481.442     3739144.306 9    893732.04249  24548477.693    24548488.8624
  22531549.821    -4632892.218 9  -3584363.06549  22531549.703    22531555.9414
  20711154.591    -3394388.794 9  -2625897.05849  20711154.676    20711159.5774
  21835473.174     2867463.300 9   2226967.21549  21835473.376    21835478.6714
  21186751.382    -2159942.606 9  -1666959.68049  21186751.187    21186755.2634
 99  5 18 16 13  0.0000000  0  7 02 26 08 24 04 07 09
  22729430.478     2584009.752 9   2007914.37249  22729430.473    22729435.4684
  24562754.785     3814152.975 9    952180.32849  24562753.360    24562763.3154
  23480372.617    -1166355.981 9   -895844.42649  23480374.305    23480380.6784
  22512689.155    -4732005.287 9  -3661593.90449  22512687.241    22512695.4814
  20702062.476    -3442168.342 9  -2663127.85749  20702062.870    20702067.9334
  21847252.221     2929362.071 9   2275199.99549  21847251.712    21847257.1224
  21180822.564    -2191098.778 9  -1691237.22849  21180822.762    21180826.9294
 99  5 18 16 13 30.0000000  0  8 02 26 08 24 04 07 05 09
  22740626.017     2642841.277 9   2053757.03749  22740627.121    22740632.2284
  24577029.529     3889170.083 9   1010635.12849  24577031.515    24577041.0974
  23461490.900    -1265595.590 9   -973173.95249  23461487.530    23461497.2104
  22493876.263    -4830866.554 9  -3738628.55949  22493875.264    22493881.9984
  20693075.552    -3489395.467 9  -2699928.20049  20693075.812    20693080.8494
  21859054.321     2991383.093 9   2323528.03649  21859053.552    21859059.3934
  23598691.247                                    23598692.105    23598628.7514
  21174994.981    -2221723.425 9  -1715100.59349  21174994.406    21174998.8514
 99  5 18 16 14  0.0000000  0  7 02 26 08 24 04 07 09
  22751863.717     2701894.012 9   2099772.08149  22751863.523    22751870.2934
  24591305.136     3964186.826 9   1069089.59849  24591305.953    24591316.4704
  23442649.027    -1364606.252 9  -1050325.05549  23442645.724    23442655.2114
  22475105.792    -4929505.511 9  -3815489.97049  22475104.929    22475113.4364
  20684188.280    -3536098.435 9  -2736320.11949  20684188.824    20684193.1264
  21870877.232     3053512.850 9   2371940.78549  21870877.067    21870882.2364
  21169267.198    -2251822.521 9  -1738554.44349  21169267.141    21169270.9394
 99  5 18 16 14 30.0000000  0  7 02 26 08 24 04 07 09
  22763148.100     2761194.354 9   2145980.04949  22763147.381    22763154.5694
  24605584.886     4039225.252 9   1127561.02149  24605586.237    24605595.8994
  23423856.976    -1463352.688 9  -1127270.39949  23423857.491    23423866.6564
  22456380.505    -5027906.704 9  -3892166.13249  22456380.581    22456387.8844
  20675404.794    -3582256.587 9  -2772287.49349  20675404.785    20675409.0964
  21882724.164     3115767.837 9   2420451.12749  21882723.756    21882729.1264
  21163642.690    -2281379.996 9  -1761586.26149  21163642.285    21163646.3664
 99  5 18 16 15  0.0000000  0  7 02 26 08 24 04 07 09
  22774483.448     2820762.968 9   2192397.08449  22774482.204    22774489.8394
  24619869.588     4114285.393 9   1186049.33049  24619870.328    24619879.1594
  23405119.956    -1561820.978 9  -1203998.86449  23405118.634    23405125.3024
  22437698.762    -5126080.656 9  -3968665.22949  22437698.984    22437706.2424
  20666729.989    -3627843.155 9  -2807809.47549  20666729.961    20666734.4994
  21894594.309     3178145.516 9   2469057.06749  21894593.888    21894599.9504
  21158121.042    -2310395.546 9  -1784195.78149  21158120.528    21158125.6294
 99  5 18 16 15 30.0000000  0  7 02 26 08 24 04 07 09
  22785872.614     2880614.402 9   2239034.47549  22785872.099    22785879.9294
  24634155.334     4189358.285 9   1244547.55549  24634155.349    24634163.5764
  23386437.219    -1659999.529 9  -1280501.54149  23386433.559    23386443.6364
  22419057.550    -5224040.315 9  -4044997.33049  22419056.960    22419064.9984
  20658164.568    -3672854.270 9  -2842883.05449  20658164.740    20658169.1684
  21906487.741     3240645.423 9   2517758.26149  21906487.554    21906492.6774
  21152701.887    -2338873.299 9  -1806386.23949  21152701.809    21152706.4424
 99  5 18 16 16  0.0000000  0  7 02 26 08 24 04 07 09
  22797314.129     2940740.084 9   2285885.58249  22797314.368    22797321.2474
  24648439.348     4264421.910 9   1303038.67449  24648441.299    24648447.1894
  23367807.705    -1757889.461 9  -1356779.40349  23367806.045    23367814.8174
  22400460.512    -5321767.354 9  -4121148.15749  22400459.874    22400468.1764
  20649710.206    -3717281.889 9  -2877501.96849  20649709.933    20649714.8564
  21918402.468     3303258.268 9   2566547.46449  21918401.696    21918406.7454
  21147386.094    -2366808.921 9  -1828154.26549  21147386.339    21147390.0234
 99  5 18 16 16 30.0000000  0  7 02 26 08 24 04 07 09
  22808806.095     3001132.315 9   2332944.36049  22808807.631    22808811.9114
  24662719.000     4339461.088 9   1361510.62349  24662717.836    24662728.2664
  23349235.538    -1855489.088 9  -1432831.01049  23349236.210    23349240.5474
  22381912.650    -5419237.083 9  -4197098.52149  22381911.415    22381920.1154
  20641366.546    -3761127.158 9  -2911667.10549  20641366.709    20641371.7844
  21930338.114     3365980.496 9   2615421.88749  21930337.183    21930342.8634
  21142174.317    -2394197.390 9  -1849495.95049  21142174.207    21142178.7224
 99  5 18 16 17  0.0000000  0  8 02 26 08 24 04 07 05 09
  22820347.745     3061781.127 9   2380203.05449  22820347.482    22820355.6954
  24676992.050     4414469.972 9   1419958.98049  24676991.135    24677000.8084
  23330720.916    -1952788.308 9  -1508648.50649  23330720.099    23330725.2314
  22363415.555    -5516438.355 9  -4272839.68449  22363415.030    22363423.1624
  20633132.258    -3804399.180 9  -2945385.54449  20633132.130    20633136.8364
  21942293.880     3428808.019 9   2664378.37449  21942292.997    21942298.5844
  23489321.761                                    23489326.947    23489309.6774
  21137068.933    -2421026.597 9  -1870401.83249  21137068.742    21137072.9304
 99  5 18 16 17 30.0000000  0  8 02 26 08 24 04 07 05 09
  22831933.248     3122662.212 9   2427642.76949  22831933.561    22831939.3944
  24691260.205     4489445.581 9                  24691261.825    24691268.7044
  23312263.226    -2049781.878 9  -1584227.92349  23312262.986    23312268.4974
  22344973.883    -5613349.853 9  -4348355.04149  22344973.027    22344981.4724
  20625005.228    -3847106.692 9  -2978664.10949  20625005.326    20625009.8384
  21954271.551     3491751.799 9   2713425.45249  21954271.354    21954276.7804
  23473704.551                                    23473713.037    23473708.3984
  21132071.446    -2447287.687 9  -1890865.03149  21132070.722    21132075.0274
 99  5 18 16 18  0.0000000  0  8 02 26 08 24 04 07 05 09
  22843560.049     3183760.652 9   2475251.84549  22843561.192    22843565.7354
  24705525.089     4564404.745 9   1536791.11659  24705526.940    24705534.3754
  23293863.517    -2146474.085 9  -1659572.47749  23293864.273    23293869.4744
  22326590.026    -5709956.969 9  -4423633.22449  22326590.173    22326596.8124
  20616986.263    -3889246.825 9  -3011500.57049  20616986.417    20616991.2424
  21966272.991     3554819.662 9   2762569.20949  21966273.066    21966278.1114
  23458100.799                                    23458106.980    23458104.6364
  21127182.381    -2472979.331 9  -1910884.50649  21127182.666    21127186.3874
 99  5 18 16 18 30.0000000  0  8 02 26 08 24 04 07 05 09
  22855230.241     3245086.774 9   2523038.32549  22855228.545    22855236.0354
  24719790.465     4639366.842 9   1595203.07049  24719790.705    24719799.2614
  23275521.640    -2242864.104 9  -1734681.52249  23275520.423    23275527.4504
  22308260.389    -5806279.867 9  -4498689.92949  22308260.353    22308267.2464
  20609074.917    -3930820.843 9  -3043895.90849  20609075.224    20609079.7294
  21978298.977     3618016.165 9   2811813.20449  21978298.221    21978303.9714
  23442503.261     -712782.83359                  23442500.924    23442508.5684
  21122398.321    -2498120.718 9  -1930475.20949  21122398.548    21122402.6634
 99  5 18 16 19  0.0000000  0  8 02 26 08 24 04 07 05 09
  22866945.769     3306655.203 9   2571013.63949  22866942.155    22866951.7694
  24734056.811     4714336.808 9                  24734059.267    24734069.1394
  23257234.468    -2338961.871 9  -1809562.86749  23257233.982    23257239.7744
  22289982.754    -5902329.245 9  -4573533.52449  22289982.156    22289989.4314
  20601273.691    -3971816.475 9  -3075840.54849  20601274.295    20601278.4814
  21990348.614     3681337.908 9   2861154.78349  21990348.259    21990354.4574
  23426911.458    -1029480.09519   -776630.57849  23426908.838    23426915.2584
  21117718.335    -2522714.954 9  -1949639.55949  21117718.218    21117722.1524
 99  5 18 16 19 30.0000000  0  8 02 26 08 24 04 07 05 09
  22878710.508     3368481.726 9   2619190.08149  22878710.448    22878719.8744
  24748324.840                                    24748321.623    24748331.3844
  23239003.276    -2434768.450 9  -1884217.29549  23239003.453    23239008.9024
  22271755.552    -5998113.986 9  -4648170.88849  22271755.944    22271762.0974
  20593583.366    -4012230.055 9  -3107331.63249  20593583.719    20593587.5064
  22002422.798     3744787.501 9   2910595.96949  22002423.149    22002428.2604
  23411326.058    -1111376.948 9   -840446.27749  23411324.367    23411329.7184
  21113140.887    -2546770.023 9  -1968383.78549  21113141.017    21113144.6934
 99  5 18 16 20  0.0000000  0  8 02 26 08 24 04 07 05 09
  22890526.338     3430573.149 9   2667572.89549  22890526.828    22890535.8434
  24762590.306                                    24762586.558    24762598.4894
  23220826.701    -2530287.903 9  -1958647.96949  23220825.567    23220831.6574
  22253575.293    -6093652.003 9  -4722616.02249  22253575.091    22253582.0064
  20586003.152    -4052064.166 9  -3138371.18049  20586002.987    20586007.2994
  22014515.808     3808335.822 9   2960114.08949  22014515.878    22014520.9754
  23395745.595    -1193251.350 9   -904244.48849  23395744.813    23395750.2114
  21108663.121    -2570300.550 9  -1986719.26649  21108662.657    21108667.4164
 99  5 18 16 20 30.0000000  0  8 02 26 08 24 04 07 05 09
  22902395.211     3492941.441 9   2716171.46149  22902395.941    22902403.9664
  24776845.860                                    24776843.278    24776976.5034
  23202703.744    -2625523.031 9  -2032857.12349  23202703.293    23202708.7894
  22235442.295    -6188939.437 9  -4796865.89149  22235442.174    22235449.1134
  20578531.871    -4091325.516 9  -3168964.43349  20578532.189    20578537.1674
  22026622.962     3871958.717 9   3009690.32549  22026622.397    22026627.8134
  23380168.919    -1275106.475 9   -968027.67049  23380168.106    23380173.1874
  21104283.282    -2593316.404 9  -2004653.70249  21104283.289    21104287.4414
 99  5 18 16 21  0.0000000  0  8 02 26 08 24 04 07 05 09
  22914312.181     3555566.672 9   2764970.24649  22914311.043    22914320.0804
  24791088.787                                    24791086.388    24791069.4354
  23184637.398    -2720463.107 9  -2106836.37149  23184637.200    23184642.5464
  22217357.223    -6283977.028 9  -4870921.07549  22217356.834    22217363.8254
  20571168.826    -4130018.981 9  -3199115.17849  20571169.286    20571173.8604
  22038743.168     3935650.488 9   3059320.23049  22038743.066    22038748.0624
  23364593.937    -1356952.565 9  -1031803.78049  23364592.179    23364598.9874
  21100003.023    -2615809.025 9  -2022180.43349  21100002.612    21100007.4624
 99  5 18 16 21 30.0000000  0  8 02 26 08 24 04 07 05 09
  22926276.882     3618439.404 9   2813961.82449  22926276.779    22926283.8704
  24805320.972                                    24805318.675    24805310.2444
  23166630.680    -2815090.212 9  -2180571.75249  23166630.226    23166635.6064
  22199321.535    -6378755.569 9  -4944774.40149  22199321.170    22199327.9894
  20563915.076    -4168138.203 9  -3228818.45649  20563915.597    20563919.7414
  22050880.341     3999431.632 9   3109019.78349  22050878.814    22050884.8394
  23349018.875    -1438797.811 9  -1095579.30949  23349017.422    23349023.3374
  21095824.163    -2637768.272 9  -2039291.54349  21095823.685    21095828.6104
 99  5 18 16 22  0.0000000  0  7 02 08 24 04 07 05 09
  22938289.232     3681562.302 9   2863148.35949  22938288.084    22938293.7624
  23148684.204    -2909400.066 9  -2254059.93149  23148683.900    23148688.7624
  22181341.489    -6473241.799 9  -5018399.96849  22181341.387    22181348.8694
  20556773.859    -4205665.995 9  -3258060.88249  20556773.882    20556778.4044
  22063036.461     4063313.754 9   3158798.04349  22063035.338    22063041.5894
  23333446.858    -1520627.195 9  -1159342.41449  23333445.182    23333453.0074
  21091749.302    -2659181.595 9  -2055977.26849  21091749.476    21091753.7084
 99  5 18 16 22 30.0000000  0  7 02 08 24 04 07 05 09
  22950348.002     3744934.882 9   2912529.51949  22950347.265    22950354.7314
  23130799.057    -3003385.964 9  -2327295.64349  23130796.873    23130804.3644
  22163419.846    -6567419.669 9  -5091785.23149  22163419.434    22163427.2184
  20549745.659    -4242598.865 9  -3286839.72949  20549745.367    20549750.5594
  22075214.403     4127309.565 9   3208664.86849  22075214.617    22075219.8074
  23317879.228    -1602434.823 9  -1223088.58449  23317879.478    23317884.7574
  21087780.838    -2680036.362 9  -2072227.74749  21087780.973    21087785.4704
 99  5 18 16 23  0.0000000  0  7 02 08 24 04 07 05 09
  22962453.986     3808548.432 9   2962098.41749  22962454.623    22962460.3934
  23112974.624    -3097048.570 9  -2400279.46249  23112973.941    23112980.4184
  22145554.457    -6661301.766 9  -5164940.03549  22145554.112    22145561.1984
  20542830.094    -4278939.541 9  -3315157.13549  20542830.145    20542834.8434
  22087413.390     4191413.044 9   3258615.59249  22087413.172    22087418.5934
  23302314.081    -1684232.234 9  -1286826.83049  23302314.793    23302318.9164
  21083921.591    -2700316.846 9  -2088030.73049  21083921.565    21083926.1204
 99  5 18 16 23 30.0000000  0  7 02 08 24 04 07 05 09
  22974608.552     3872421.707 9   3011869.67549  22974606.291    22974614.7224
  23095212.413    -3190392.234 9  -2473014.74949  23095213.456    23095217.4894
  22127750.372    -6754863.921 9  -5237845.51249  22127750.487    22127756.9704
  20536028.309    -4314682.889 9  -3343009.07849  20536028.453    20536033.1094
  22099629.014     4255606.385 9   3308636.34049  22099628.486    22099634.1274
  23286755.591    -1765993.604 9  -1350536.93849  23286754.605    23286760.9094
  21080171.578    -2720024.235 9  -2103387.16349  21080172.150    21080175.5084
 99  5 18 16 24  0.0000000  0  7 02 08 24 04 07 05 09
  22986812.673     3936557.240 9   3061845.29249  22986812.911    22986821.2494
  23077510.765    -3283417.891 9  -2545502.22949  23077509.842    23077515.5234
  22110006.729    -6848107.743 9  -5310502.96149  22110006.581    22110013.5614
  20529338.997    -4349835.048 9  -3370400.36849  20529339.214    20529344.0474
  22111856.221     4319861.497 9   3358705.21349  22111855.221    22111861.1584
  23271204.403    -1847714.938 9  -1414215.87349  23271203.411    23271209.7984
  21076528.972    -2739167.474 9  -2118303.99749  21076529.043    21076532.8574
 99  5 18 16 24 30.0000000  0  7 02 08 24 04 07 05 09
  22999067.162     4000953.015 9   3112023.72349  22999067.707    22999075.0874
  23059870.270    -3376117.087 9  -2617735.34649  23059869.574    23059875.3144
  22092320.221    -6941048.843 9  -5382924.52549  22092319.725    22092327.3874
  20522761.308    -4384401.394 9  -3397335.17549  20522761.648    20522765.9444
  22124095.461     4384179.789 9   3408823.32049  22124094.638    22124100.6274
  23255659.552    -1929404.293 9  -1477869.89049  23255658.603    23255665.1444
  21072995.281    -2757736.959 9  -2132773.73749  21072994.819    21072999.6124
 99  5 18 16 25  0.0000000  0  7 02 08 24 04 07 05 09
  23011369.765     4065604.966 9   3162401.75649  23011370.650    23011378.2554
  23042294.038    -3468482.294 9  -2689708.14749  23042293.162    23042299.4004
  22074691.083    -7033690.141 9  -5455112.48449  22074691.269    22074698.0494
  20516293.124    -4418391.407 9  -3423820.89649  20516293.925    20516298.2594
  22136348.395     4448570.138 9   3458997.57749  22136347.815    22136353.9814
  23240123.520    -2011046.991 9  -1541487.54949  23240122.098    23240128.9684
  21069569.626    -2775738.404 9  -2146800.85849  21069569.451    21069574.1234
 99  5 18 16 25 30.0000000  0  7 02 08 24 04 07 05 09
  23023717.928     4130493.816 9   3212964.33849  23023720.030    23023725.8684
  23024780.775    -3560514.288 9  -2761421.36749  23024780.066    23024785.4464
  22057118.731    -7126035.012 9  -5527069.45049  22057117.555    22057125.1424
  20509931.117    -4451824.754 9  -3449872.83749  20509931.220    20509936.5374
  22148617.740     4513046.123 9   3509238.56449  22148617.481    22148623.8254
  23224594.900    -2092649.612 9  -1605073.98649  23224594.168    23224599.8154
  21066247.306    -2793197.615 9  -2160405.46249  21066247.270    21066251.6664
 99  5 18 16 26  0.0000000  0  7 02 08 24 04 07 05 09
  23036107.711     4195601.121 9   3263697.18949  23036107.784    23036114.2054
  23007329.969    -3652216.672 9  -2832877.74249  23007329.897    23007336.0324
  22039600.911    -7218091.190 9  -5598801.47649  22039600.832    22039607.1864
  20503673.124    -4484709.837 9  -3475497.57649  20503673.412    20503678.6984
  22160906.664     4577625.019 9   3559559.73749  22160906.783    22160911.2474
  23209071.432    -2174224.839 9  -1668639.06649  23209070.075    23209076.8634
  21063028.468    -2810112.675 9  -2173586.04449  21063028.279    21063032.8744
 99  5 18 16 26 30.0000000  0  7 02 08 24 04 07 05 09
  23048537.845     4260923.131 9   3314597.33149  23048537.180    23048544.8994
  22989942.708    -3743589.646 9  -2904077.39249  22989940.405    22989948.4384
  22022139.628    -7309851.662 9  -5670303.06649  22022139.420    22022146.4444
  20497517.283    -4517059.213 9  -3500704.87849  20497518.133    20497522.4234
  22173216.450     4642312.722 9   3609965.69549  22173216.412    22173221.3594
  23193555.121    -2255763.555 9  -1732175.70649  23193555.755    23193560.3864
  21059915.046    -2826474.198 9  -2186335.29949  21059915.054    21059919.1754
 99  5 18 16 27  0.0000000  0  7 02 08 24 04 07 05 09
  23061008.440     4326456.441 9   3365662.10949  23061008.036    23061016.0384
  22972617.341    -3834630.909 9  -2975018.63349  22972616.329    22972624.0874
  22004734.517    -7401316.383 9  -5741574.21849  22004734.909    22004740.5274
  20491464.825    -4548866.161 9  -3525489.50449  20491465.444    20491469.4314
  22185544.692     4707097.293 9   3660447.14049  22185544.717    22185550.1684
  23178044.853    -2337271.218 9  -1795688.14049  23178043.324    23178049.1914
  21056904.588    -2842294.825 9  -2198663.07949  21056904.568    21056908.4614
 99  5 18 16 27 30.0000000  0  7 02 08 24 04 07 05 09
  23073522.689     4392220.874 9   3416907.03049  23073523.472    23073531.9514
  22955354.260    -3925349.601 9  -3045708.48649  22955353.769    22955360.2994
  21987385.918    -7492484.584 9  -5812614.32149  21987384.870    21987391.4854
  20485519.570    -4580108.974 9  -3549834.53849  20485519.570    20485524.4094
  22197890.291     4771973.238 9   3710999.76549  22197889.931    22197895.4614
  23162538.345    -2418759.569 9  -1859185.50549  23162538.598    23162544.0484
  21053997.250    -2857572.929 9  -2210568.10649  21053996.821    21054001.4454
 99  5 18 16 28  0.0000000  0  7 02 08 24 04 07 05 09
  23086084.844     4458231.616 9   3468343.79449  23086085.735    23086092.9954
  22938152.678    -4015745.660 9  -3116146.95349  22938152.248    22938157.8744
  21970093.993    -7583354.219 9  -5883421.76949  21970093.351    21970099.8534
  20479685.273    -4610767.696 9  -3573724.45049  20479685.399    20479690.0264
  22210251.259     4836931.119 9   3761616.24349  22210251.153    22210256.4324
  23147034.889    -2500230.431 9  -1922669.26049  23147034.172    23147041.2014
  21051194.862    -2872299.268 9  -2222043.19849  21051195.141    21051199.1514
 99  5 18 16 28 30.0000000  0  7 02 08 24 04 07 05 09
  23098697.887     4524511.103 9   3519990.01649  23098697.464    23098705.6864
  22921017.666    -4105790.627 9  -3186311.81749  22921018.389    22921021.6744
  21952858.608    -7673924.838 9  -5953996.22149  21952857.473    21952864.2564
  20473967.669    -4640813.730 9  -3597136.93549  20473968.147    20473972.8244
  22222629.644     4901979.207 9   3812303.01849  22222630.093    22222634.9574
  23131534.912    -2581681.780 9  -1986137.80349  23131534.122    23131540.1694
  21048500.219    -2886459.468 9  -2233077.13549  21048499.857    21048504.0424
 99  5 18 16 29  0.0000000  0  7 02 08 24 04 07 05 09
  23111365.094     4591076.907 9   3571859.35049  23111365.375    23111373.1324
  22903952.201    -4195471.711 9  -3256193.13849  22903951.684    22903956.6694
  21935681.850    -7764187.326 9  -6024330.59349  21935681.434    21935687.9394
  20468372.660    -4670216.739 9  -3620048.35449  20468373.210    20468377.3724
  22235027.780     4967130.810 9   3863070.45649  22235026.991    22235032.3894
  23116041.394    -2663101.550 9  -2049581.74449  23116041.178    23116044.7834
  21045913.003    -2900055.049 9  -2243671.12049  21045912.978    21045917.3124
 99  5 18 16 29 30.0000000  0  7 02 08 24 04 07 05 09
  23124088.108     4657936.411 9   3623957.53349  23124087.727    23124095.7654
  22886955.692    -4284788.207 9  -3325790.39449  22886955.700    22886960.0844
  21918565.824    -7854132.522 9  -6094417.69449  21918565.863    21918572.0864
  20462898.259    -4698985.228 9  -3642465.35049  20462898.400    20462903.0404
  22247447.003     5032394.713 9   3913925.39649  22247446.883    22247451.8124
  23100556.629    -2744475.004 9  -2112989.60549  23100556.448    23100560.7874
  21043435.572    -2913074.439 9  -2253816.11149  21043435.882    21043439.7384
 99  5 18 16 30  0.0000000  0  7 02 08 24 04 07 05 09
  23136862.965     4725068.846 9   3676268.40849  23136862.334    23136870.0274
  22870031.493    -4373727.904 9  -3395094.00449  22870030.437    22870035.9584
  21901512.180    -7943751.064 9  -6164250.27649  21901512.109    21901518.6244
  20457544.792    -4727117.704 9  -3664386.75549  20457544.527    20457549.4454
  22259886.006     5097761.423 9   3964860.43149  22259885.752    22259891.6154
  23085083.054    -2825789.484 9  -2176351.51649  23085082.180    23085087.3474
  21041070.214    -2925505.300 9  -2263502.51349  21041070.520    21041074.2054
 99  5 18 16 30 30.0000000  0  7 02 08 24 04 07 05 09
  23149689.833     4792472.246 9   3728790.42249  23149689.433    23149697.9584
  22853177.975    -4462292.434 9  -3464105.29749  22853176.495    22853182.1564
  21884523.528    -8033027.194 9  -6233816.03749  21884522.810    21884529.7194
  20452312.100    -4754614.940 9  -3685813.16449  20452312.279    20452316.3694
  22272342.526     5163219.724 9   4015866.86749  22272342.098    22272347.4664
  23069624.247    -2907024.497 9  -2239651.50449  23069622.992    23069628.8724
  21038816.897    -2937346.987 9  -2272729.81149  21038816.590    21038820.9794
 99  5 18 16 31  0.0000000  0  7 02 08 24 04 07 05 09
  23162567.074     4860143.219 9   3781520.90849  23162566.689    23162573.8474
  22836391.717    -4550503.084 9  -3532840.84549  22836391.355    22836397.7914
  21867602.825    -8121945.247 9  -6303102.77749  21867601.624    21867608.5064
  20447196.237    -4781498.984 9  -3706761.76249  20447196.830    20447201.2694
  22284814.641     5228761.046 9   4066937.97049  22284813.615    22284819.5324
  23054181.586    -2988176.609 9  -2302886.87449  23054180.443    23054186.4384
  21036672.931    -2948613.109 9  -2281508.61849  21036672.804    21036677.2444
 99  5 18 16 31 30.0000000  0  7 02 08 24 04 07 05 09
  23175492.582     4928065.268 9   3834447.01749  23175493.919    23175499.3414
  22819670.419    -4638375.601 9  -3601312.91149  22819669.532    22819675.1484
  21850749.717    -8210507.416 9  -6372112.20849  21850749.931    21850756.6964
  20442195.238    -4807780.153 9  -3727240.59049  20442195.572    20442199.9804
  22297299.497     5294370.375 9   4118062.07049  22297298.471    22297304.4314
  23038749.846    -3069271.030 9  -2366077.32349  23038750.155    23038754.9274
  21034638.102    -2959306.062 9  -2289840.80649  21034637.813    21034642.3474
 99  5 18 16 32  0.0000000  0  7 02 08 24 04 07 05 09
  23188465.249     4996235.159 9   3887566.27849  23188463.601    23188472.0134
  22803014.734    -4725900.521 9  -3669514.16349  22803015.101    22803019.2194
  21833966.855    -8298701.931 9  -6440835.16249  21833967.009    21833974.0564
  20437311.031    -4833447.054 9  -3747240.76649  20437310.964    20437315.8884
  22309795.510     5360037.564 9   4169231.22949  22309795.530    22309800.5444
  23023329.129    -3150307.447 9  -2429222.58749  23023328.771    23023333.9364
  21032711.008    -2969432.799 9  -2297731.79449  21032710.897    21032715.4864
 99  5 18 16 32 30.0000000  0  7 02 08 24 04 07 05 09
  23201486.567     5064663.900 9   3940887.22949  23201485.416    23201492.6894
  22786424.684    -4813082.715 9  -3737448.29949  22786423.897    22786430.5354
  21817252.899    -8386534.174 9  -6509275.82549  21817253.310    21817259.2304
  20432539.572    -4858521.035 9  -3766778.91949  20432539.767    20432544.2924
  22322304.178     5425771.591 9   4220452.51249  22322303.081    22322309.5314
  23007916.523    -3231302.441 9  -2492335.57049  23007916.831    23007920.4474
  21030889.015    -2979007.553 9  -2305192.66149  21030888.909    21030892.9714
 99  5 18 16 33  0.0000000  0  7 02 08 24 04 07 05 09
  23214555.305     5133340.571 9   3994401.42949  23214556.637    23214563.3274
  22769901.291    -4899913.692 9  -3805108.79249  22769900.116    22769905.2524
  21800605.121    -8474020.615 9  -6577447.04049  21800605.205    21800611.3994
  20427880.328    -4883005.991 9  -3785858.09349  20427880.393    20427885.1314
  22334827.581     5491582.995 9   4271734.05349  22334828.320    22334833.9344
  22992507.745    -3312277.533 9  -2555433.02749  22992507.258    22992511.3954
  21029171.967    -2988030.792 9  -2312223.76849  21029171.697    21029176.7194
 99  5 18 16 33 30.0000000  0  7 02 08 24 04 07 05 09
  23227669.691     5202255.861 9   4048101.59249  23227668.060    23227679.4274
  22753450.881    -4986362.001 9  -3872471.09149  22753450.564    22753455.0534
  21784021.968    -8561165.840 9  -6645352.36749  21784021.256    21784028.2864
  20423334.076    -4906896.198 9  -3804473.84249  20423334.250    20423338.9314
  22347365.207     5557466.961 9   4323072.16349  22347364.322    22347371.3194
  22977103.912    -3393224.447 9  -2618508.51749  22977102.573    22977108.0264
  21027562.253    -2996489.905 9  -2318815.30549  21027562.771    21027567.2264
 99  5 18 16 34  0.0000000  0  7 02 08 24 04 07 05 09
  23240829.539     5271412.811 9   4101989.99049  23240828.799    23240842.0884
  22737078.126    -5072401.481 9  -3939514.81949  22737076.080    22737083.0034
  21767501.911    -8647978.071 9  -6712998.21949  21767501.492    21767508.9284
  20418897.684    -4930209.198 9  -3822639.80949  20418898.041    20418902.0144
  22359918.339     5623434.036 9   4374475.02649  22359918.610    22359923.8614
  22961707.822    -3474130.586 9  -2681552.26249  22961706.911    22961712.6664
  21026060.852    -3004379.855 9  -2324963.34049  21026060.961    21026065.5294
 99  5 18 16 34 30.0000000  0  7 02 08 24 04 07 05 09
  23254034.545     5340806.57919   4156062.95449  23254031.629    23254043.2604
  22720782.538    -5158034.925 9  -4006242.14749  22720782.450    22720787.4824
  21751042.454    -8734474.125 9  -6780397.69749  21751042.347    21751049.1054
  20414569.864    -4952952.101 9  -3840361.54149  20414570.207    20414574.6094
  22372487.836     5689485.531 9   4425943.65349  22372487.739    22372492.8124
  22946318.514    -3555002.987 9  -2744569.70049  22946317.485    22946323.0744
  21024668.844    -3011694.971 9  -2330663.45649  21024668.575    21024673.2034
 99  5 18 16 35  0.0000000  0  7 02 08 24 04 07 05 09
  23267283.665     5410434.048 9   4210317.91049  23267283.954    23267296.0354
  22704567.988    -5243243.927 9  -4072638.73749  22704566.376    22704571.9534
  21734642.987    -8820654.008 9  -6847550.79749  21734642.380    21734649.6204
  20410352.957    -4975111.971 9  -3857628.96849  20410353.206    20410357.6734
  22385070.677     5755608.190 9   4477467.76849  22385070.478    22385075.9094
  22930939.081    -3635820.964 9  -2807544.68649  22930938.042    22930944.1344
  21023387.554    -3018428.343 9  -2335910.25549  21023387.262    21023391.4434
 99  5 18 16 35 30.0000000  0  7 02 08 24 04 07 05 09
  23280578.950     5480302.630 9   4264760.82149  23280577.292    23280587.0814
  22688435.008    -5328022.515 9  -4138699.93849  22688434.004    22688439.4914
  21718303.944    -8906514.697 9  -6914455.20049  21718303.901    21718310.9074
  20406246.127    -4996692.807 9  -3874445.20049  20406246.170    20406251.1294
  22397665.351     5821792.843 9   4529040.16849  22397665.929    22397670.0564
  22915572.392    -3716573.544 9  -2870468.75249  22915572.120    22915577.5694
  21022214.162    -3024594.018 9  -2340714.68949  21022213.994    21022218.7584
 99  5 18 16 36  0.0000000  0  7 02 08 24 04 07 05 09
  23293920.970     5550412.626 9   4319391.76049  23293924.891    23293930.1434
  22672377.751    -5412403.440 9  -4204451.27849  22672377.779    22672383.0034
  21702025.145    -8992060.327 9  -6981114.08149  21702024.391    21702031.2344
  20402250.750    -5017688.651 9  -3890805.59649  20402250.716    20402255.8454
  22410271.324     5888037.117 9   4580659.02049  22410270.672    22410275.9934
  22900217.027    -3797267.103 9  -2933346.83149  22900216.540    22900222.5364
  21021146.095    -3030207.078 9  -2345088.51549  21021146.463    21021150.6744
 99  5 18 16 36 30.0000000  0  6 08 24 04 07 05 09
  22656391.452    -5496411.890 9  -4269912.39349  22656391.467    22656396.7844
  21685808.826    -9077277.883 9  -7047517.32849  21685808.107    21685814.9314
  20398368.289    -5038090.770 9  -3906703.35149  20398368.553    20398373.1784
  22422883.113     5954312.545 9   4632302.15849  22422882.372    22422888.1284
  22884870.811    -3877911.976 9  -2996186.97749  22884870.344    22884876.0504
  21020178.372    -3035293.030 9  -2349051.62749  21020178.493    21020182.5794
 99  5 18 16 37  0.0000000  0  6 08 24 04 07 05 09
  22640481.087    -5580021.719 9  -4335062.88949  22640480.731    22640485.8014
  21669663.971    -9162118.590 9  -7113626.92349  21669663.474    21669670.3144
  20394605.481    -5057864.940 9  -3922111.78249  20394605.378    20394610.1324
  22435506.850     6020650.251 9   4683993.80549  22435506.332    22435511.8684
  22869539.387    -3958479.338 9  -3058966.72849  22869538.358    22869543.4544
  21019314.351    -3039833.703 9  -2352589.83249  21019313.952    21019318.9824
 99  5 18 16 37 30.0000000  0  6 08 24 04 07 05 09
  22624639.880    -5663267.986 9  -4399930.09949  22624639.608    22624644.2574
  21653592.009    -9246576.367 9  -7179438.13849  21653592.470    21653597.9834
  20390960.617    -5077018.412 9  -3937036.56449  20390961.041    20390965.5934
  22448141.727     6087047.319 9   4735731.72649  22448140.606    22448146.4634
  22854217.084    -4038995.874 9  -3121706.84649  22854215.396    22854221.4814
  21018552.770    -3043835.939 9  -2355708.46749  21018552.689    21018557.1684
 99  5 18 16 38  0.0000000  0  6 08 24 04 07 05 09
  22608863.671    -5746173.424 9  -4464531.72449  22608862.340    22608868.2744
  21637593.405    -9330650.224 9  -7244950.18349  21637593.386    21637599.7704
  20387434.451    -5095549.030 9  -3951476.00749  20387434.913    20387439.3544
  22460784.287     6153485.520 9   4787501.69449  22460783.123    22460789.2784
  22838901.984    -4119475.967 9  -3184418.58649  22838902.117    22838907.5654
  21017894.513    -3047294.735 9  -2358403.64649  21017893.835    21017899.0794
 99  5 18 16 38 30.0000000  0  6 08 24 04 07 05 09
  22593155.741    -5828717.245 9  -4528851.62049  22593155.464    22593159.9554
  21621669.711    -9414330.334 9  -7310155.41949  21621669.070    21621675.8194
  20384025.568    -5113463.120 9  -3965435.02949  20384025.883    20384030.0314
  22473434.754     6219965.734 9   4839304.40849  22473434.095    22473440.5224
  22823594.861    -4199915.765 9  -3247098.93149  22823593.965    22823600.2654
  21017342.159    -3050196.318 9  -2360664.64549  21017342.277    21017346.9464
 99  5 18 16 39  0.0000000  0  6 08 24 04 07 05 09
  22577519.385    -5910886.749 9  -4592879.77749  22577517.360    22577525.0394
  21605819.238    -9497624.940 9  -7375060.26249  21605818.683    21605826.1464
  20380733.089    -5130765.654 9  -3978917.51749  20380733.592    20380737.5274
  22486096.907     6286505.567 9   4891153.58249  22486096.609    22486103.1164
  22808297.203    -4280304.391 9  -3309739.39349  22808295.406    22808301.7374
  21016899.908    -3052521.101 9  -2362476.19149  21016900.113    21016903.9504
 99  5 18 16 39 30.0000000  0  6 08 24 04 07 05 09
  22561959.844    -5992651.058 9  -4656592.23049  22561959.690    22561964.5254
  21590041.818    -9580534.326 9  -7439664.93849  21590041.116    21590048.9584
  20377556.416    -5147459.083 9  -3991925.38249  20377556.331    20377560.7684
  22498771.638     6353110.513 9   4943053.47349  22498771.595    22498776.9494
  22793012.982    -4360622.718 9  -3372325.07349  22793012.916    22793016.3784
  21016570.259    -3054253.825 9  -2363826.38949  21016570.611    21016574.8994
 99  5 18 16 40  0.0000000  0  6 08 24 04 07 05 09
  22546483.289    -6073981.906 9  -4719966.88849  22546483.414    22546486.6244
  21574336.011    -9663068.303 9  -7503977.08249  21574335.798    21574343.0234
  20374494.088    -5163551.509 9  -4004464.93149  20374494.311    20374498.6814
  22511458.366     6419779.031 9   4995002.90849  22511458.212    22511463.8064
  22777745.183    -4440857.831 9  -3434845.92349  22777744.156    22777748.5334
  21016353.943    -3055391.847 9  -2364713.17249  21016353.921    21016358.2674
 99  5 18 16 40 30.0000000  0  6 08 24 04 07 05 09
  22531090.767    -6154871.638 9  -4782997.85249  22531090.091    22531094.9394
  21558699.768    -9745237.183 9  -7568004.74249  21558699.733    21558706.6694
  20371543.806    -5179054.747 9  -4016545.37449  20371543.514    20371548.9764
  22524159.372     6486522.245 9   5047010.56049  22524159.819    22524165.1744
  22762492.736    -4521010.114 9  -3497302.22049  22762491.375    22762498.6444
  21016250.103    -3055937.923 9  -2365138.71049  21016249.863    21016254.3164
 99  5 18 16 41  0.0000000  0  6 08 24 04 07 05 09
  22515782.562    -6235317.440 9  -4845682.88349  22515782.268    22515786.7814
  21543132.137    -9827046.196 9  -7631751.97649  21543130.911    21543138.6274
  20368708.325    -5193954.475 9  -4028155.54949  20368708.467    20368713.4554
  22536874.881     6553341.978 9   5099077.82149  22536874.826    22536879.9064
  22747255.477    -4601082.205 9  -3559696.03849  22747254.363    22747260.8824
  21016257.260    -3055899.825 9  -2365109.04049  21016257.088    21016261.7004
 99  5 18 16 41 30.0000000  0  6 08 24 04 07 05 09
  22500560.830    -6315307.572 9  -4908012.86849  22500560.876    22500564.9164
  21527634.432    -9908485.541 9  -7695211.17149  21527634.009    21527640.8864
  20365992.005    -5208228.668 9  -4039278.29349  20365992.707    20365996.8154
  22549605.428     6620241.034 9   5151206.89349  22549604.943    22549611.3594
  22732032.299    -4681079.991 9  -3622031.94149  22732031.652    22732037.1354
  21016375.876    -3055276.314 9  -2364623.20349  21016375.596    21016380.3114
 99  5 18 16 42  0.0000000  0  7 02 08 24 04 07 05 09
  23457662.380                                    23457661.699    23457677.5964
  22485425.537    -6394845.742 9  -4969990.65649  22485424.804    22485430.2084
  21512211.045    -9989535.989 9  -7758367.31949  21512211.456    21512218.2444
  20363400.860    -5221845.893 9  -4049889.10949  20363401.510    20363405.7074
  22562354.003     6687236.226 9   5203410.87049  22562353.827    22562360.1734
  22716825.240    -4760993.628 9  -3684302.27749  22716824.859    22716829.6914
  21016608.503    -3054053.374 9  -2363670.28649  21016608.235    21016612.8814
 99  5 18 16 42 30.0000000  0  7 02 08 24 04 07 05 09
  23471625.222                                    23471625.042    23471632.8334
  22470376.567    -6473928.319 9  -5031613.40449  22470375.553    22470381.7834
  21496865.475   -10070178.534 9  -7821205.61749  21496865.110    21496871.9784
  20360934.947    -5234804.976 9  -4059987.08649  20360935.298    20360939.6324
  22575122.438     6754334.599 9   5255695.25149  22575121.509    22575127.7684
  22701635.630    -4840815.257 9  -3746500.91649  22701635.455    22701640.1254
  21016954.094    -3052237.137 9  -2362255.05149  21016953.866    21016958.0974
 99  5 18 16 43  0.0000000  0  7 02 08 24 04 07 05 09
  23485636.676     -719262.55759                  23485637.462    23485645.9424
  22455414.138    -6552556.094 9  -5092881.77049  22455413.241    22455418.6734
  21481598.192   -10150408.111 9  -7883722.13349  21481598.179    21481604.0224
  20358590.414    -5247125.373 9  -4069587.39549  20358590.561    20358595.3524
  22587905.759     6821512.081 9   5308041.27549  22587905.708    22587911.8144
  22686461.974    -4920553.681 9  -3808634.72149  22686462.389    22686466.6204
  21017408.392    -3049849.977 9  -2360394.95349  21017408.291    21017413.2504
 99  5 18 16 43 30.0000000  0  7 02 08 24 04 07 05 09
  23499695.391     -825715.086 9   -661698.54649  23499693.621    23499705.3184
  22440531.955    -6630760.848 9  -5153820.54549  22440530.374    22440536.4154
  21466406.572   -10230240.066 9  -7945928.80249  21466406.046    21466413.0844
  20356357.964    -5258856.330 9  -4078728.40249  20356358.516    20356363.1474
  22600697.895     6888732.810 9   5360420.97849  22600697.343    22600702.7714
  22671300.772    -5000226.984 9  -3870717.78249  22671299.786    22671306.2534
  21017967.916    -3046909.517 9  -2358103.69849  21017968.004    21017972.8924
 99  5 18 16 44  0.0000000  0  7 02 08 24 04 07 05 09
  23513795.450     -751624.182 9   -603965.83149  23513796.098    23513801.5934
  22425724.524    -6708574.792 9  -5214454.74549  22425723.625    22425729.3744
  21451287.616   -10309690.762 9  -8007838.39249  21451287.872    21451294.1374
  20354231.204    -5270032.856 9  -4087437.60149  20354231.729    20354236.2404
  22613492.619     6955969.236 9   5412812.92349  22613493.234    22613497.0794
  22656151.878    -5079835.382 9  -3932750.50549  22656151.123    22656156.5904
  21018629.790    -3043431.741 9  -2355393.76649  21018629.705    21018634.2884
 99  5 18 16 44 30.0000000  0  7 02 08 24 04 07 05 09
  23527936.138     -677315.063 9   -546062.82149  23527935.629    23527943.5104
  22410991.754    -6785995.935 9  -5274782.89149  22410990.594    22410997.0854
  21436241.648   -10388758.490 9  -8069449.56249  21436241.409    21436247.3784
  20352209.086    -5280659.559 9  -4095718.14149  20352209.509    20352214.4524
  22626289.480     7023216.023 9   5465212.96249  22626288.586    22626293.7694
  22641015.799    -5159374.700 9  -3994729.16449  22641015.051    22641021.0734
  21019392.408    -3039424.124 9  -2352270.97049  21019392.827    21019397.1084
 99  5 18 16 45  0.0000000  0  7 02 08 24 04 07 05 09
  23542118.766     -602785.792 9   -487988.26749  23542120.639    23542126.6774
  22396330.939    -6863038.033 9  -5334815.65749  22396329.214    22396336.8124
  21421266.561   -10467452.453 9  -8130769.48749  21421266.416    21421272.6144
  20350294.126    -5290723.566 9  -4103560.22949  20350294.434    20350299.3334
  22639088.011     7090470.998 9   5517619.34849  22639088.015    22639092.7544
  22625891.305    -5238853.721 9  -4056660.86549  22625891.361    22625897.0504
  21020255.232    -3034890.580 9  -2348738.35749  21020255.060    21020259.7194
 99  5 18 16 45 30.0000000  0  7 02 08 24 04 07 05 09
  23556347.530     -528014.713 9   -429725.29849  23556345.431    23556358.3044
  22381743.445    -6939696.253 9  -5394549.31449  22381742.002    22381748.8174
  21406361.947   -10545776.647 9  -8191801.28549  21406362.174    21406368.0914
  20348489.959    -5300205.208 9  -4110948.51749  20348490.253    20348494.8024
  22651889.431     7157742.952 9   5570038.99149  22651888.434    22651895.1284
  22610779.221    -5318268.157 9  -4118542.22149  22610778.434    22610784.8214
  21021220.771    -3029816.463 9  -2344784.51249  21021220.422    21021225.5904
 99  5 18 16 46  0.0000000  0  7 02 08 24 04 07 05 09
  23570622.343     -453000.187 9   -371272.65349  23570620.259    23570642.0494
  22367233.924    -7015944.370 9  -5453963.40849  22367233.726    22367238.6654
  21391529.045   -10623724.538 9  -8252539.84649  21391529.252    21391535.7244
  20346801.926    -5309075.651 9  -4117860.54249  20346802.002    20346806.7564
  22664698.384     7225055.647 9   5622490.40149  22664697.037    22664704.2744
  22595680.299    -5397613.195 9  -4180369.50249  22595679.716    22595685.6184
  21022290.545    -3024194.712 9  -2340403.94549  21022290.591    21022295.1264
 99  5 18 16 46 30.0000000  0  7 02 08 24 04 07 05 09
  23584944.757     -377734.597 9                  23584944.133    23584957.8344
  22352808.968    -7091747.855 9  -5513031.04249  22352808.433    22352814.3374
  21376771.510   -10701276.536 9  -8312969.93849  21376771.369    21376777.9534
  20345233.310    -5317318.048 9  -4124283.18649  20345233.548    20345237.9724
  22677519.100     7292430.303 9   5674990.05049  22677518.141    22677524.3664
  22580594.299    -5476891.054 9  -4242144.45349  22580594.130    22580598.9764
  21023467.299    -3018011.230 9  -2335585.66749  21023467.336    21023471.6364
 99  5 18 16 47  0.0000000  0  7 02 08 24 04 07 05 09
  23599315.777     -302215.668 9   -253778.22459  23599315.464    23599323.0794
  22338473.436    -7167080.660 9  -5571731.91749  22338472.327    22338478.7084
  21362090.903   -10778423.356 9  -8373084.29849  21362090.173    21362096.9754
  20343784.585    -5324930.775 9  -4130215.17549  20343784.741    20343789.3534
  22690350.409     7359858.857 9   5727531.71649  22690350.397    22690356.8674
  22565522.252    -5556096.537 9  -4303862.98449  22565522.034    22565527.1864
  21024755.160    -3011244.017 9  -2330312.52749  21024755.155    21024759.5334
 99  5 18 16 47 30.0000000  0  7 02 08 24 04 07 05 09
  23613730.937     -226463.715 9   -194751.06349  23613730.325    23613743.0454
  22324231.076    -7241923.951 9  -5630051.32249  22324229.458    22324236.1644
  21347488.753   -10855156.982 9  -8432876.69449  21347488.151    21347494.6344
  20342454.485    -5331920.721 9  -4135661.88549  20342454.622    20342459.0014
  22703192.205     7427342.300 9   5780116.15749  22703192.217    22703198.3214
  22550465.895    -5635218.873 9  -4365516.72549  22550465.797    22550471.0044
  21026157.523    -3003874.811 9  -2324570.30849  21026157.284    21026161.8324
 99  5 18 16 48  0.0000000  0  7 02 08 24 04 07 05 09
  23628189.847     -150483.292 9   -135545.69049  23628192.343    23628197.6644
  22310081.667    -7316277.519 9  -5687989.14249  22310081.262    22310086.6844
  21332968.209   -10931462.008 9  -8492335.10349  21332967.344    21332975.0704
  20341242.978    -5338287.641 9  -4140623.11949  20341243.400    20341247.5294
  22716046.970     7494893.720 9   5832753.57749  22716046.388    22716052.9514
  22535428.376    -5714241.299 9  -4427092.64449  22535428.478    22535433.6554
  21027673.366    -2995908.716 9  -2318362.97649  21027673.155    21027677.5474
 99  5 18 16 48 30.0000000  0  7 02 08 24 04 07 05 09
  23642692.340      -74276.732 9    -76164.14449  23642692.075    23642701.8164
  22296024.427    -7390148.458 9  -5745550.90449  22296024.503    22296028.8774
  21318529.817   -11007336.002 9  -8551457.66849  21318529.759    21318536.5474
  20340145.546    -5344054.910 9  -4145117.09549  20340145.410    20340150.4974
  22728910.971     7562494.243 9   5885429.20949  22728910.872    22728916.9444
  22520409.912    -5793163.369 9  -4488590.33949  22520408.456    22520413.1864
  21029300.382    -2987358.598 9  -2311700.57549  21029300.458    21029304.5994
 99  5 18 16 49  0.0000000  0  7 02 08 24 04 07 05 09
  23657235.306        2147.198 9    -16613.30549  23657235.846    23657244.8644
  22282057.060    -7463547.592 9  -5802745.00449  22282057.742    22282062.1144
  21304170.524   -11082794.787 9  -8610256.68049  21304170.450    21304176.9054
  20339158.234    -5349242.568 9  -4149159.42349  20339158.823    20339163.6354
  22741781.014     7630125.522 9   5938128.83449  22741780.753    22741786.5644
  22505409.726    -5871989.421 9  -4550013.23849  22505409.209    22505413.4724
  21031035.212    -2978242.110 9  -2304596.83549  21031034.788    21031039.9174
 99  5 18 16 49 30.0000000  0  7 02 08 24 04 07 05 09
  23671820.390       78791.177 9     43109.01049  23671820.300    23671829.2744
  22268175.699    -7536495.279 9  -5859587.33249  22268175.493    22268181.1954
  21289888.430   -11157848.500 9  -8668740.05649  21289888.847    21289894.6594
  20338280.911    -5353853.435 9  -4152752.30849  20338281.271    20338286.0664
  22754660.794     7697807.998 9   5990868.36149  22754660.526    22754665.7514
  22490425.224    -5950734.495 9  -4611373.02049  22490424.743    22490428.9594
  21032874.373    -2968576.710 9  -2297065.37649  21032874.434    21032878.9924
 99  5 18 16 50  0.0000000  0  7 02 08 24 04 07 05 09
  23686449.800      155670.675 9    103014.90649  23686449.362    23686460.9954
  22254378.878    -7608999.175 9  -5916083.85949  22254377.935    22254383.9104
  21275680.445   -11232512.115 9  -8726919.45049  21275680.063    21275686.7394
  20337511.711    -5357896.005 9  -4155902.36749  20337512.303    20337516.0354
  22767548.973     7765534.479 9   6043642.17149  22767548.994    22767555.2704
  22475454.285    -6029407.548 9  -4672676.67849  22475454.247    22475458.9524
  21034815.176    -2958377.826 9  -2289118.21749  21034814.811    21034819.6194
 99  5 18 16 50 30.0000000  0  7 02 08 24 04 07 05 09
  23701123.342      232780.955 9    163100.49449  23701123.993    23701130.7864
  22240666.812    -7681054.832 9  -5972231.11049  22240666.237    22240672.2314
  21261544.950   -11306794.465 9  -8784801.77049  21261544.939    21261550.6894
  20336850.442    -5361371.408 9  -4158610.47949  20336850.751    20336855.3054
  22780441.433     7833284.533 9   6096434.32749  22780440.579    22780448.0134
  22460493.872    -6108024.541 9  -4733936.64549  22460492.085    22460499.3004
  21036859.602    -2947633.717 9  -2280746.21549  21036859.545    21036864.0214
 99  5 18 16 51  0.0000000  0  7 02 08 24 04 07 05 09
  23715840.776      310122.528 9                  23715837.088    23715852.3364
  22227040.329    -7752662.572 9  -6028029.33749  22227039.920    22227045.4704
  21247482.846   -11380692.125 9  -8842384.32549  21247482.394    21247488.8184
  20336301.371    -5364256.503 9  -4160858.60149  20336301.501    20336306.1984
  22793340.498     7901071.507 9   6149255.27249  22793338.610    22793346.3624
  22445544.703    -6186581.250 9  -4795149.62349  22445544.073    22445550.4404
  21039009.247    -2936337.796 9  -2271944.22349  21039009.447    21039013.6564
 99  5 18 16 51 30.0000000  0  7 02 08 24 04 07 05 09
  23730603.126      387701.272 9                  23730604.294    23730610.8564
  22213500.413    -7823816.021 9  -6083473.55449  22213500.843    22213506.2084
  21233497.503   -11454185.437 9  -8899651.80649  21233497.196    21233503.2224
  20335870.340    -5366521.372 9  -4162623.43549  20335870.760    20335875.3664
  22806249.731     7968909.480 9   6202115.96549  22806248.872    22806254.7254
  22430612.281    -6265052.081 9  -4856295.70349  22430611.531    22430616.6204
  21041266.440    -2924476.487 9  -2262701.66249  21041266.494    21041270.9174
 99  5 18 16 52  0.0000000  0  7 02 08 24 04 07 05 09
  23745411.852      465517.428 9    344452.89059  23745415.871    23745418.4074
  22200049.279    -7894501.749 9  -6138553.33949  22200049.396    22200054.8404
  21219594.234   -11527247.773 9  -8956583.45449  21219593.931    21219600.2494
  20335559.743    -5368153.172 9  -4163894.96249  20335559.455    20335564.8594
  22819165.725     8036784.070 9   6255005.19849  22819165.550    22819172.1384
  22415701.770    -6343407.342 9  -4917351.73249  22415701.773    22415705.8274
  21043632.847    -2912041.004 9  -2253011.70049  21043633.026    21043637.3074
 99  5 18 16 52 30.0000000  0  7 02 08 24 04 07 05 09
  23760265.851      543572.151 9    405274.64049  23760263.452    23760277.8614
  22186689.108    -7964710.029 9  -6193261.05049  22186688.155    22186694.7394
  21205778.515   -11599850.062 9  -9013156.61949  21205777.905    21205784.4204
  20335373.705    -5369130.577 9  -4164656.58349  20335374.153    20335378.6104
  22832089.489     8104698.288 9   6307925.28849  22832089.753    22832094.3094
  22400815.421    -6421636.058 9  -4978309.15549  22400815.638    22400818.8994
  21046108.316    -2899032.141 9  -2242874.95749  21046107.993    21046113.3324
 99  5 18 16 53  0.0000000  0  7 02 08 24 04 07 05 09
  23775166.228      621874.232 9    466289.06449  23775162.627    23775177.4764
  22173421.723    -8034430.365 9  -6247588.54949  22173421.350    22173427.5154
  21192053.032   -11671977.480 9  -9069359.77549  21192052.807    21192058.9144
  20335313.823    -5369445.692 9  -4164902.13049  20335314.165    20335318.2934
  22845023.784     8172666.918 9   6360887.75849  22845024.988    22845029.5274
  22385956.292    -6499721.532 9  -5039154.95149  22385955.585    22385960.2274
  21048691.218    -2885458.553 9  -2232298.15549  21048690.914    21048696.0004
 99  5 18 16 53 30.0000000  0  7 02 08 24 04 07 05 09
  23790115.421      700433.792 9                  23790117.834    23790129.6634
  22160247.851    -8103659.969 9  -6301533.67549  22160247.630    22160252.8554
  21178420.125   -11743619.480 9  -9125184.66149  21178419.565    21178426.2754
  20335380.332    -5369096.855 9  -4164630.29949  20335380.809    20335384.5394
  22857967.747     8240686.094 9   6413889.65249  22857967.418    22857972.9524
  22371123.938    -6577665.283 9  -5099890.31749  22371122.964    22371128.2654
  21051382.796    -2871313.987 9  -2221276.42949  21051382.661    21051387.8544
 99  5 18 16 54  0.0000000  0  7 02 08 24 04 07 05 09
  23805118.630      779267.774 9    588932.47359  23805118.879    23805123.6764
  22147167.407    -8172398.291 9  -6355096.00149  22147166.336    22147171.5364
  21164877.502   -11814785.725 9  -9180638.84649  21164876.921    21164883.6124
  20335570.395    -5368097.805 9  -4163851.81849  20335570.487    20335575.0154
  22870920.780     8308753.444 9   6466929.09149  22870918.483    22870925.2554
  22356314.361    -6655489.254 9  -5160532.35149  22356314.446    22356318.7634
  21054182.837    -2856599.807 9  -2209810.85749  21054182.962    21054187.4814
 99  5 18 16 54 30.0000000  0  7 02 08 24 04 07 05 09
  23820170.233      858365.988 9                  23820170.469    23820175.8134
  22134181.859    -8240637.091 9  -6408269.07149  22134181.605    22134187.0234
  21151422.926   -11885489.046 9  -9235732.29949  21151422.565    21151428.7534
  20335880.968    -5366465.025 9  -4162579.53349  20335881.252    20335885.9944
  22883883.565     8376875.813 9   6520011.38549  22883883.847    22883889.3634
  22341525.576    -6733204.400 9  -5221089.57249  22341525.234    22341530.8504
  21057091.722    -2841313.851 9  -2197899.74649  21057091.879    21057096.5154
 99  5 18 16 55  0.0000000  0  7 02 08 24 04 07 05 09
  23835272.305      937726.210 9    712406.19459  23835272.604    23835282.7044
  22121290.335    -8308382.612 9  -6461057.76849  22121290.409    22121295.8124
  21138052.806   -11955749.345 9  -9290480.54349  21138052.481    21138058.6324
  20336309.766    -5364211.712 9  -4160823.69849  20336310.075    20336314.7694
  22896858.466     8445059.227 9   6573141.24649  22896858.115    22896864.6174
  22326757.050    -6810813.276 9  -5281563.99149  22326757.338    22326762.5164
  21060110.568    -2825450.788 9  -2185538.94149  21060110.909    21060115.3694
 99  5 18 16 55 30.0000000  0  7 02 08 24 04 07 05 09
  23850424.006     1017347.264 9    774448.31649  23850422.406    23850432.7614
  22108490.848    -8375644.450 9  -6513469.57549  22108490.111    22108495.8314
  21124764.408   -12025579.819 9  -9344893.84949  21124764.240    21124770.4294
  20336854.354    -5361349.831 9  -4158593.65249  20336855.278    20336859.5234
  22909844.955     8513302.846 9   6626318.03249  22909844.675    22909849.8704
  22312009.552    -6888313.870 9  -5341954.03149  22312008.778    22312013.5794
  21063239.973    -2809006.354 9  -2172725.12649  21063240.172    21063244.6634
 99  5 18 16 56  0.0000000  0  7 02 08 24 04 07 05 09
  23865619.801     1097202.235 9    836672.64349  23865618.616    23865627.0524
  22095785.189    -8442412.400 9  -6565496.53149  22095784.607    22095789.5094
  21111556.251   -12094988.606 9  -9398978.59149  21111555.954    21111562.5454
  20337511.911    -5357895.286 9  -4155901.79949  20337512.213    20337516.6684
  22922842.266     8581602.533 9   6679538.50349  22922841.307    22922847.3624
  22297284.972    -6965692.185 9  -5402248.80449  22297284.441    22297289.0964
  21066477.712    -2791991.548 9  -2159466.85649  21066477.271    21066482.2654
 99  5 18 16 56 30.0000000  0  7 02 08 24 04 07 05 09
  23880855.897     1177269.140 9    899062.12349  23880856.617    23880866.4164
  22083174.576    -8508682.272 9  -6617135.37449  22083173.657    22083179.7604
  21098429.245   -12163971.922 9  -9452731.78849  21098429.151    21098435.3524
  20338282.330    -5353846.922 9  -4152747.23049  20338282.500    20338286.6934
  22935847.363     8649946.818 9   6732793.68449  22935845.644    22935853.2574
  22282585.390    -7042939.043 9  -5462441.16249  22282584.778    22282589.7324
  21069822.626    -2774413.339 9  -2145769.58749  21069822.715    21069827.3484
 99  5 18 16 57  0.0000000  0  7 02 08 24 04 07 05 09
  23896134.596     1257556.104 9    961623.20149  23896132.602    23896145.7364
  22070658.350    -8574454.950 9  -6668386.79949  22070658.071    22070663.0684
  21085383.842   -12232525.796 9  -9506150.35349  21085383.383    21085390.0484
  20339167.787    -5349193.237 9  -4149120.97949  20339168.117    20339172.6034
  22948858.922     8718323.532 9   6786074.15649  22948859.995    22948864.4794
  22267911.652    -7120049.608 9  -5522527.29849  22267911.016    22267916.5344
  21073274.232    -2756275.113 9  -2131635.92849  21073274.286    21073279.1764
 99  5 18 16 57 30.0000000  0  7 02 08 24 04 07 05 09
  23911452.445                                    23911450.467    23911464.1144
  22058239.715                                    22058239.499    22058244.9394
  21072424.334                                    21072424.254    21072430.9124
  20340166.966                                    20340167.205    20340172.1694
  22961874.090                                    22961872.876    22961879.5284
  22253263.665                                    22253263.396    22253269.5894
  21076832.879                                    21076833.362    21076837.5874
 99  5 18 16 58  0.0000000  0  7 02 08 24 04 07 05 09
  23926810.593     1418760.96019   1087236.59749  23926809.854    23926823.5264
  22045922.424    -8704444.524 9  -6769677.33149  22045921.626    22045927.2114
  21059553.980   -12368261.827 9  -9611918.82149  21059554.044    21059560.4364
  20341279.891    -5338093.979 9  -4140472.20349  20341280.215    20341284.7444
  22974890.401     8855119.777 9   6892668.26749  22974890.284    22974896.9464
  22238640.819    -7273868.418 9  -5642386.05249  22238640.420    22238645.6774
  21080498.328    -2718314.361 9  -2102056.39649  21080499.074    21080503.1684
 99  5 18 16 58 30.0000000  0  7 02 08 24 04 07 05 09
  23942211.390     1499693.712 9   1150300.78249  23942212.381    23942227.0974
  22033703.517    -8768654.850 9  -6819711.33749  22033702.955    22033708.8114
  21046771.227   -12435435.705 9  -9664262.05849  21046770.714    21046777.3944
  20342505.693    -5331652.382 9  -4135452.77749  20342506.216    20342510.4294
  22987908.218     8923528.195 9   6945973.48549  22987907.453    22987913.7214
  22224038.467    -7350604.921 9  -5702180.69749  22224037.709    22224042.9354
  21084268.818    -2698500.786 9  -2086617.25249  21084268.575    21084273.2064
 99  5 18 16 59  0.0000000  0  7 02 08 24 04 07 05 09
  23957654.724     1580847.589 9                  23957653.701    23957664.0464
  22021582.654    -8832350.200 9  -6869344.07149  22021580.877    22021588.4554
  21034075.631   -12502150.591 9  -9716247.64549  21034075.553    21034082.2204
  20343841.187    -5324634.382 9  -4129984.19349  20343841.492    20343845.9314
  23000928.687     8991951.325 9   6999290.16649  23000927.859    23000934.2984
  22209456.067    -7427235.895 9  -5761893.11049  22209455.174    22209459.7754
  21088142.201    -2678145.286 9  -2070755.83949  21088141.713    21088146.8434
 99  5 18 16 59 30.0000000  0  7 02 08 24 04 07 05 09
  23973136.624     1662208.345 9                  23973135.434    23973145.3474
  22009558.502    -8895535.801 9  -6918579.60749  22009559.169    22009563.2324
  21021465.372   -12568418.110 9  -9767884.63349  21021465.172    21021471.6854
  20345284.544    -5317049.280 9  -4124073.72249  20345284.902    20345289.2994
  23013953.598     9060397.460 9   7052624.73249  23013952.432    23013958.9574
  22194890.926    -7503776.175 9  -5821534.87249  22194889.758    22194895.3574
  21092117.029    -2657257.632 9  -2054479.77649  21092117.201    21092122.2234
 99  5 18 17  0  0.0000000  0  7 02 08 24 04 07 05 09
  23988660.628     1743786.800 9                  23988661.026    23988675.6814
  21997630.189    -8958220.318 9  -6967424.64949  21997630.038    21997635.4774
  21008936.049   -12634259.966 9  -9819189.94049  21008936.036    21008942.3644
  20346839.053    -5308880.599 9  -4117708.50749  20346839.476    20346843.5294
  23026985.570     9128881.796 9   7105989.07549  23026985.610    23026992.6124
  22180343.085    -7580225.720 9  -5881105.91549  22180342.748    22180347.7714
  21096193.855    -2635833.931 9  -2037785.99949  21096193.989    21096199.0434
 99  5 18 17  0 30.0000000  0  7 02 08 24 04 07 05 09
  24004228.366                                    24004232.875    24004241.1174
  21985795.893    -9020409.415 9  -7015883.68749  21985796.090    21985800.5974
  20996488.529   -12699671.989 9  -9870160.31449  20996488.204    20996494.9364
  20348507.919    -5300111.190 9  -4110875.21149  20348508.241    20348512.1534
  23040029.129     9197424.597 9   7159398.99149  23040029.609    23040036.1964
  22165814.578    -7656572.741 9  -5940597.08649  22165813.906    22165820.5134
  21100374.766    -2613863.719 9  -2020666.37849  21100375.104    21100379.7294
 99  5 18 17  1  0.0000000  0  7 02 08 24 04 07 05 09
  24019838.988                                    24019842.469    24019847.6604
  21974057.959    -9082093.768 9  -7063949.38349  21974057.477    21974063.8694
  20984125.509   -12764639.787 9  -9920784.53849  20984125.332    20984131.7734
  20350291.576    -5290738.028 9  -4103571.44849  20350291.886    20350296.2654
  23053083.668     9266024.931 9   7212853.71349  23053082.933    23053091.0624
  22151307.194    -7732808.151 9  -6000001.28149  22151305.990    22151311.8624
  21104661.903    -2591335.175 9  -2003111.69549  21104661.777    21104666.8464
 99  5 18 17  1 30.0000000  0  6 08 24 04 07 05 09
  21962408.032    -9143313.554 9  -7111653.10649  21962407.572    21962413.5204
  20971842.430   -12829187.622 9  -9971081.51349  20971842.685    20971849.0194
  20352188.187    -5280770.670 9  -4095804.67649  20352188.373    20352193.3404
  23066141.354     9334644.605 9   7266323.52249  23066140.903    23066149.1254
  22136816.827    -7808954.122 9  -6059335.77949  22136816.691    22136821.5204
  21109053.642    -2568256.254 9  -1985128.13749  21109053.586    21109058.5574
 99  5 18 17  2  0.0000000  0  6 08 24 04 07 05 09
  21950858.612    -9204006.270 9  -7158946.09449  21950858.577    21950864.4644
  20959654.294   -12893237.449 9 -10020990.43049  20959654.473    20959660.3474
  20354208.810    -5270152.071 9  -4087530.45149  20354209.274    20354213.7804
  23079212.275     9403331.964 9   7319846.07449  23079213.653    23079218.4584
  22122358.687    -7884932.021 9  -6118539.30049  22122357.700    22122363.6254
  21113560.336    -2544572.966 9  -1966673.65749  21113560.067    21113564.8514
 99  5 18 17  2 30.0000000  0  6 08 24 04 07 05 09
  21939411.308    -9264163.549 9  -7205821.88149  21939411.212    21939416.4494
  20947564.843   -12956768.471 9 -10070495.08949  20947564.683    20947570.6814
  20356349.761    -5258901.570 9  -4078763.82949  20356350.092    20356354.3164
  23092292.803     9472067.850 9   7373406.46149  23092291.889    23092299.2954
  22107932.726    -7960741.747 9  -6177611.81249  22107932.557    22107937.2014
  21118177.850    -2520306.865 9  -1947765.02549  21118177.950    21118182.8154
 99  5 18 17  3  0.0000000  0  6 08 24 04 07 05 09
  21928063.980    -9323794.124 9  -7252287.24949  21928062.958    21928069.2364
  20935571.360   -13019793.774 9 -10119605.68649  20935571.186    20935577.2334
  20358606.386    -5247042.580 9  -4069523.05949  20358606.750    20358611.2814
  23105375.375     9540817.847 9   7426977.82649  23105374.472    23105381.3824
  22093537.079    -8036391.669 9  -6236559.79449  22093537.332    22093542.0534
  21122902.619    -2495478.632 9  -1928418.36549  21122903.158    21122907.5294
 99  5 18 17  3 30.0000000  0  6 08 24 04 07 05 09
  21916820.653    -9382877.985 9  -7298326.59249  21916820.531    21916826.1214
  20923671.627   -13082327.415 9 -10168333.15249  20923671.703    20923677.3954
  20360978.458    -5234577.354 9  -4059809.90549  20360978.918    20360983.3014
  23118461.829     9609586.705 9   7480563.89049  23118460.803    23118469.1254
  22079172.709    -8111877.870 9  -6295380.17449  22079172.327    22079177.1604
  21127732.898    -2470096.698 9  -1908640.26249  21127733.145    21127736.9614
 99  5 18 17  4  0.0000000  0  6 08 24 04 07 05 09
  21905684.580    -9441397.175 9  -7343925.94749  21905684.770    21905689.8844
  20911862.516   -13144385.318 9 -10216689.93549  20911862.459    20911867.9984
  20363459.209    -5221541.226 9  -4049651.90249  20363459.640    20363464.1284
  23131548.548     9678358.252 9   7534152.06549  23131546.504    23131555.9294
  22064835.632    -8187219.935 9  -6354088.23549  22064834.333    22064839.6134
  21132662.787    -2444190.220 9  -1888453.42049  21132662.722    21132667.1654
 99  5 18 17  4 30.0000000  0  6 08 24 04 07 05 09
  21894653.514    -9499366.792 9  -7389097.06949  21894653.307    21894658.0404
  20900139.580   -13205990.125 9 -10264693.65649  20900139.644    20900144.8464
  20366045.619    -5207949.952 9  -4039061.29749  20366045.740    20366050.6724
  23144633.901     9747123.695 9   7587735.42649  23144634.783    23144640.6414
  22050520.768    -8262445.258 9  -6412705.35449  22050521.012    22050525.5814
  21137690.200    -2417770.522 9  -1867866.66749  21137690.122    21137695.1314
 99  5 18 17  5  0.0000000  0  6 08 24 04 07 05 09
  21883725.158    -9556795.911 9  -7433847.01049  21883725.542    21883729.7374
  20888499.227   -13267160.982 9 -10312359.22749  20888499.033    20888504.4964
  20368740.314    -5193789.201 9  -4028026.95649  20368740.694    20368745.4184
  23157719.775     9815887.738 9   7641317.69649  23157720.604    23157725.0044
  22036229.298    -8337547.747 9  -6471226.76149  22036229.066    22036234.2734
  21142816.025    -2390834.092 9  -1846877.25549  21142816.123    21142820.8624
 99  5 18 17  5 30.0000000  0  6 08 24 04 07 05 09
  21872902.475    -9613670.299 9  -7478164.70249  21872901.445    21872906.5924
  20876946.421   -13327871.535 9 -10359666.11349  20876946.531    20876951.9084
  20371545.948    -5179046.056 9  -4016538.80349  20371546.362    20371550.6684
  23170810.087     9884675.212 9   7694918.25249  23170809.722    23170815.5624
  22021961.604    -8412525.042 9  -6529650.61249  22021961.373    22021966.7504
  21148042.454    -2363369.459 9  -1825476.28049  21148042.825    21148047.1994
 99  5 18 17  6  0.0000000  0  6 08 24 04 07 05 09
  21862179.050    -9670022.327 9  -7522075.35649  21862177.210    21862183.2544
  20865483.881   -13388107.832 9 -10406603.44749  20865483.336    20865489.7464
  20374463.077    -5163716.895 9  -4004594.01749  20374463.223    20374467.7244
  23183904.516     9953486.872 9   7748537.65749  23183903.907    23183910.3384
  22007716.724    -8487381.083 9  -6587979.97049  22007716.795    22007721.4394
  21153367.315    -2335387.365 9  -1803672.06449  21153366.689    21153372.4824
 99  5 18 17  6 30.0000000  0  6 08 24 04 07 05 09
  21851549.867    -9725877.182 9  -7565598.60449  21851549.567    21851554.7564
  20854113.300   -13447859.699 9 -10453163.32349  20854112.868    20854119.1934
  20377494.389    -5147786.660 9  -3992180.85149  20377494.754    20377499.1294
  23197005.681    10022333.944 9   7802184.63049  23197003.908    23197010.8584
  21993496.751    -8562108.090 9  -6646208.78249  21993496.859    21993502.2014
  21158790.908    -2306885.798 9  -1781463.07649  21158790.714    21158795.6954
 99  5 18 17  7  0.0000000  0  6 08 24 04 07 05 09
  21841020.198    -9781211.139 9  -7608715.96549  21841019.717    21841025.5014
  20842838.223   -13507109.567 9 -10499332.02849  20842837.764    20842843.6554
  20380640.944    -5131251.287 9  -3979296.16049  20380641.286    20380645.6464
  23210115.985    10091229.606 9   7855869.46749  23210115.481    23210121.1164
  21979305.618    -8636684.266 9  -6704320.05449  21979305.224    21979310.2644
  21164317.511    -2277843.006 9  -1758832.35749  21164317.328    21164322.5104
 99  5 18 17  7 30.0000000  0  6 08 24 04 07 05 09
  21830586.206    -9836042.252 9  -7651441.50149  21830585.740    21830591.3554
  20831654.228   -13565881.836 9 -10545128.56249  20831654.246    20831659.9694
  20383894.299    -5114154.786 9  -3965974.22949  20383894.454    20383898.7524
  23223232.366    10160155.091 9   7909577.53549  23223230.922    23223237.5414
  21965137.406    -8711139.277 9  -6762336.92449  21965136.432    21965140.7364
  21169943.165    -2248279.265 9  -1735795.69449  21169943.263    21169948.3804
 99  5 18 17  8  0.0000000  0  6 08 24 04 07 05 09
  21820246.889    -9890376.039 9  -7693779.49949  21820245.688    21820251.4624
  20820556.550   -13624201.026 9 -10590572.04649  20820556.529    20820561.8414
  20387253.176    -5096504.086 9  -3952220.45049  20387253.478    20387257.8534
  23236351.094    10229095.185 9   7963297.00049  23236350.020    23236356.7964
  21950994.555    -8785458.540 9  -6820248.01249  21950993.813    21950998.3534
  21175667.166    -2218199.877 9  -1712357.23549  21175667.141    21175671.8304
 99  5 18 17  8 30.0000000  0  6 08 24 04 07 05 09
  21810007.278    -9944184.334 9  -7735708.03349  21810006.637    21810011.9264
  20809545.241   -13682065.680 9 -10635661.35849  20809544.762    20809550.8104
  20390718.129    -5078295.412 9  -3938031.89549  20390718.150    20390722.9114
  23249470.803    10298039.013 9   8017019.35349  23249469.567    23249477.0474
  21936880.496    -8859627.152 9  -6878041.71849  21936879.734    21936885.0964
  21181493.127    -2187584.572 9  -1688501.16749  21181492.678    21181497.6684
 99  5 18 17  9  0.0000000  0  6 08 24 04 07 05 09
  21799872.422    -9997443.288 9  -7777208.49249  21799871.433    21799878.2344
  20798620.899   -13739472.924 9 -10680394.23949  20798620.535    20798626.3704
  20394292.032    -5059513.983 9  -3923397.02949  20394292.005    20394296.6994
  23262592.809    10366998.130 9   8070753.65549  23262590.943    23262598.8784
  21922799.072    -8933625.013 9  -6935702.36849  21922798.662    21922803.8724
  21187422.909    -2156422.896 9  -1664219.35849  21187422.992    21187427.4634
 99  5 18 17  9 30.0000000  0  6 08 24 04 07 05 09
  21789844.025   -10050142.417 9  -7818272.72449  21789843.255    21789848.3904
  20787787.725   -13796401.499 9 -10724754.14149  20787787.354    20787792.8644
  20397981.672    -5040124.217 9  -3908288.14149  20397982.421    20397987.0054
  23275720.434    10435986.423 9   8124510.69549  23275720.084    23275726.2644
  21908753.303    -9007436.307 9  -6993217.63249  21908752.786    21908757.5924
  21193459.379    -2124701.678 9  -1639501.55849  21193459.823    21193464.1964
 99  5 18 17 10  0.0000000  0  6 08 24 04 07 05 09
  21779926.103   -10102260.904 9  -7858884.52249  21779925.911    21779931.1114
  20777054.662   -13852803.452 9 -10768703.67449  20777054.425    20777060.2284
  20401791.877    -5020102.451 9  -3892686.77149  20401792.303    20401796.9654
  23288855.001    10505007.703 9   8178293.44149  23288855.071    23288862.3544
  21894745.954    -9081044.704 9  -7050574.78149  21894746.033    21894750.8124
  21199606.564    -2092398.877 9  -1614330.56349  21199606.618    21199611.3244
 99  5 18 17 10 30.0000000  0  6 08 24 04 07 05 09
  21770117.691   -10153804.580 9  -7899048.41149  21770117.152    21770123.7214
  20766426.169   -13908656.625 9 -10812225.59649  20766425.763    20766431.8924
  20405721.102    -4999454.024 9  -3876597.10149  20405721.533    20405726.3504
  23301997.341    10574070.454 9   8232108.48049  23301997.733    23302004.9504
  21880773.280    -9154471.602 9  -7107790.52649  21880773.096    21880778.1004
  21205863.314    -2059519.924 9  -1588710.63749  21205863.856    21205867.9204
 99  5 18 17 11  0.0000000  0  6 08 24 04 07 05 09
  21760417.091   -10204782.342 9  -7938771.33449  21760417.127    21760422.2904
  20755900.579   -13963968.603 9 -10855325.80749  20755900.769    20755906.8984
  20409765.903    -4978198.723 9  -3860034.53849  20409766.243    20409770.8714
  23315146.997    10643172.641 9   8285954.27749  23315146.570    23315154.4054
  21866832.084    -9227733.074 9  -7164877.36749  21866831.847    21866836.8744
  21212224.846    -2026090.188 9  -1562661.52249  21212224.852    21212229.3434
 99  5 18 17 11 30.0000000  0  6 08 24 04 07 05 09
  21750822.831   -10255200.952 9  -7978058.53549  21750823.138    21750828.2634
  20745476.174   -14018749.787 9 -10898012.41049  20745476.236    20745482.2154
  20413919.923    -4956369.259 9  -3843024.58149  20413920.707    20413924.7364
  23328298.349    10712283.001 9   8339806.40149  23328298.615    23328305.4634
  21852917.919    -9300852.205 9  -7221853.27749  21852916.920    21852922.8414
  21218687.791    -1992127.167 9  -1536196.85949  21218688.078    21218692.4354
 99  5 18 17 12  0.0000000  0  6 08 24 04 07 05 09
  21741332.650   -10305071.950 9  -8016919.01449  21741331.799    21741337.7614
  20735148.990   -14073019.732 9 -10940300.63149  20735148.775    20735154.6044
  20418178.554    -4933990.450 9  -3825586.55849  20418178.749    20418182.9674
  23341449.404    10781392.236 9   8393657.68949  23341448.441    23341455.3344
  21839030.439    -9373830.456 9  -7278719.40649  21839030.114    21839035.4074
  21225246.716    -1957660.160 9  -1509339.45949  21225246.877    21225251.3124
 99  5 18 17 12 30.0000000  0  6 08 24 04 07 05 09
  21731946.193   -10354397.493 9  -8055354.49249  21731945.717    21731951.8104
  20724912.828   -14126810.434 9 -10982215.42549  20724912.721    20724918.4224
  20422541.305    -4911064.286 9  -3807722.03249  20422541.569    20422546.0904
  23354602.604    10850510.014 9   8447515.61049  23354603.125    23354608.9244
  21825171.852    -9446657.958 9  -7335468.07649  21825171.338    21825177.4894
  21231897.747    -1922709.062 9  -1482104.87049  21231897.503    21231901.9694
 99  5 18 17 13  0.0000000  0  6 08 24 04 07 05 09
  21722667.531   -10403157.747 9  -8093349.48249  21722667.200    21722671.7734
  20714764.806   -14180138.480 9 -11023769.70749  20714764.597    20714770.3874
  20427009.389    -4887584.225 9  -3789425.88649  20427009.436    20427014.3354
  23367757.850    10919637.418 9   8501381.04849  23367756.789    23367763.5654
  21811346.807    -9519310.705 9  -7392080.59249  21811347.009    21811351.2784
  21238642.806    -1887263.597 9  -1454485.04949  21238642.594    21238647.5944
 99  5 18 17 13 30.0000000  0  6 08 24 04 07 05 09
  21713497.220   -10451347.936 9  -8130900.28049  21713496.669    21713502.0364
  20704707.022   -14232991.942 9 -11064954.19449  20704706.950    20704712.7044
  20431587.512    -4863526.389 9  -3770679.53549  20431587.866    20431592.5604
  23380917.517    10988792.015 9   8555267.72549  23380916.838    23380923.1964
  21797557.282    -9591776.696 9  -7448547.58949  21797556.765    21797561.6624
  21245487.272    -1851295.593 9  -1426458.06749  21245486.915    21245491.9714
 99  5 18 17 14  0.0000000  0  6 08 24 04 07 05 09
  21704437.293   -10498958.194 9  -8167999.16049  21704436.431    21704442.0104
  20694742.029   -14285358.516 9 -11105759.27549  20694741.848    20694747.6944
  20436279.327    -4838870.258 9  -3751466.97249  20436279.318    20436284.4364
  23394087.646    11058000.868 9   8609196.61449  23394086.121    23394094.0244
  21783803.631    -9664052.175 9  -7504866.12149  21783802.887    21783807.8144
  21252432.017    -1814800.532 9  -1398020.38149  21252432.117    21252436.6384
 99  5 18 17 14 30.0000000  0  6 08 24 04 07 05 09
  21695488.180   -10545985.121 9  -8204643.48749  21695487.806    21695493.8404
  20684869.653   -14337238.152 9 -11146184.93349  20684869.833    20684875.2264
  20441083.388    -4813624.232 9  -3731794.74949  20441083.582    20441088.0034
  23407265.900    11127253.102 9   8663159.27449  23407263.019    23407271.7954
  21770081.598    -9736161.692 9  -7561055.32449  21770080.877    21770085.5424
  21259478.327    -1777771.815 9  -1369166.86449  21259478.080    21259483.1214
 99  5 18 17 15  0.0000000  0  6 08 24 04 07 05 09
  21686651.021   -10592424.812 9  -8240830.25349  21686650.404    21686656.3884
  20675091.764   -14388621.328 9 -11186223.73449  20675091.262    20675097.3084
  20445999.827    -4787788.149 9  -3711662.75749  20446000.418    20446004.7254
  23420449.137    11196536.603 9   8717146.35749  23420448.611    23420455.4974
  21756389.566    -9808113.268 9  -7617121.44649  21756389.085    21756394.1324
  21266627.678    -1740201.116 9  -1339891.01949  21266627.320    21266632.2164
 99  5 18 17 15 30.0000000  0  6 08 24 04 07 05 09
  21677925.749   -10638276.032 9  -8276558.47949  21677925.305    21677931.2554
  20665408.856   -14439504.917 9 -11225873.25649  20665408.715    20665414.2164
  20451026.480    -4761373.077 9  -3691079.58749  20451026.649    20451031.5524
  23433637.859    11265843.938 9   8771151.96149  23433638.849    23433645.2774
  21742725.421    -9879918.490 9  -7673073.54449  21742724.755    21742729.0394
  21273877.690    -1702101.826 9  -1310203.29049  21273877.501    21273882.5924
 99  5 18 17 16  0.0000000  0  6 08 24 04 07 05 09
  21669312.250   -10683541.104 9  -8311829.95549  21669312.297    21669317.3184
  20655819.853   -14489895.295 9 -11265138.44749  20655819.734    20655825.2864
  20456155.653    -4734418.812 9  -3670076.27449  20456155.978    20456160.9844
  23446827.529    11335155.801 9   8825161.12349  23446826.870    23446835.2334
  21729089.426    -9951576.377 9  -7728910.85449  21729089.594    21729093.7024
  21281222.360    -1663505.444 9  -1280128.21849  21281222.536    21281227.1924
 99  5 18 17 16 30.0000000  0  6 08 24 04 07 05 09
  21660805.401   -10728244.064 9  -8346663.42049  21660805.027    21660810.5154
  20646321.954   -14539807.402 9 -11304030.96449  20646321.649    20646327.4274
  20461381.367    -4706957.663 9  -3648677.97849  20461381.900    20461386.6404
  23460011.767    11404443.061 9   8879151.07749  23460013.121    23460019.8874
  21715484.411   -10023072.012 9  -7784621.72949  21715483.544    21715488.8334
  21288659.448    -1624423.816 9  -1249675.03949  21288659.488    21288664.4674
 99  5 18 17 17  0.0000000  0  6 08 24 04 07 05 09
  21652404.191   -10772394.564 9  -8381066.39449  21652404.362    21652408.4784
  20636915.543   -14589237.939 9 -11342548.23849  20636915.241    20636921.0994
  20466703.225    -4678991.546 9  -3626886.19549  20466703.486    20466707.8984
  23473192.484    11473702.616 9   8933119.48049  23473193.286    23473200.6354
  21701914.153   -10094383.500 9  -7840189.08949  21701913.558    21701919.1724
  21296186.656    -1584868.506 9  -1218852.75549  21296186.437    21296191.5874
 99  5 18 17 17 30.0000000  0  6 08 24 04 07 05 09
  21644105.917   -10816002.912 9  -8415046.89949  21644105.328    21644110.5914
  20627602.753   -14638176.504 9 -11380682.15649  20627602.488    20627608.5504
  20472119.812    -4650527.466 9  -3604706.39749  20472120.256    20472124.8454
  23486368.387    11542942.540 9   8987072.63349  23486366.347    23486373.4594
  21688380.321   -10165504.575 9  -7895608.09249  21688380.147    21688385.4084
  21303802.061    -1544849.759 9  -1187669.34449  21303802.574    21303807.3074
 99  5 18 17 18  0.0000000  0  6 08 24 04 07 05 09
  21635908.147   -10859081.708 9  -8448614.77749  21635907.713    21635912.0164
  20618387.022   -14686605.636 9 -11418419.11949  20618386.988    20618392.2884
  20477633.795    -4621551.631 9  -3582127.83749  20477634.159    20477639.0874
  23499543.562    11612175.212 9   9041020.07549  23499544.774    23499550.3014
  21674884.856   -10236423.694 9  -7950869.72449  21674884.330    21674889.2454
  21311506.529    -1504363.806 9  -1156121.88449  21311506.881    21311511.2014
 99  5 18 17 18 30.0000000  0  6 08 24 04 07 05 09
  21627811.446   -10901629.974 9  -8481769.27149  21627810.828    21627815.9344
  20609270.760   -14734511.930 9 -11455748.65949  20609270.629    20609276.2014
  20483251.773    -4592028.756 9  -3559123.00449  20483252.210    20483256.5994
  23512717.672    11681405.010 9   9094965.26549  23512714.596    23512724.9214
  21661427.415   -10307142.398 9  -8005975.18149  21661426.856    21661431.4344
  21319303.666    -1463390.181 9  -1124194.41749  21319303.763    21319308.3584
 99  5 18 17 19  0.0000000  0  6 08 24 04 07 05 09
  21619824.672   -10943600.584 9  -8514473.63149  21619824.567    21619829.8094
  20600259.854   -14781864.212 9 -11492646.51749  20600259.377    20600265.3734
  20488983.401    -4561909.114 9  -3535653.15349  20488983.792    20488988.3824
  23525898.526    11750673.447 9   9148940.66849  23525899.139    23525906.9644
  21648008.783   -10377657.142 9  -8060921.71749  21648008.236    21648012.4524
  21327200.935    -1421889.867 9  -1091856.54349  21327200.266    21327205.6204
 99  5 18 17 19 30.0000000  0  6 08 24 04 07 05 09
  21611950.429   -10984979.672 9  -8546717.06849  21611949.649    21611955.5224
  20591351.690   -14828676.391 9 -11529123.50749  20591351.314    20591357.3234
  20494827.938    -4531196.360 9  -3511721.14049  20494828.036    20494833.2014
  23539088.233    11819986.055 9   9202950.34549  23539088.808    23539093.2834
  21634626.908   -10447979.302 9  -8115718.17749  21634626.460    21634631.1974
  21335198.619    -1379861.025 9  -1059106.83649  21335198.909    21335203.2554
 99  5 18 17 20  0.0000000  0  6 08 24 04 07 05 09
  21604192.596   -11025747.023 9  -8578483.83549  21604191.979    21604197.9604
  20582544.369   -14874958.668 9 -11565187.59849  20582544.131    20582549.8864
  20500786.141    -4499885.320 9  -3487322.93049  20500786.171    20500790.7694
  23552285.341    11889338.093 9   9256990.74149  23552286.421    23552292.2374
  21621282.459   -10518105.924 9  -8170362.26849  21621281.618    21621286.6654
  21343298.659    -1337294.974 9  -1025938.50749  21343298.432    21343303.4804
 99  5 18 17 20 30.0000000  0  6 08 24 04 07 05 09
  21596555.493   -11065880.465 9  -8609756.64849  21596555.306    21596560.7814
  20573834.723   -14920727.915 9 -11600851.92049  20573834.591    20573840.7004
  20506857.499    -4467980.133 9  -3462461.73849  20506857.838    20506861.9074
  23565487.413    11958711.94519   9311048.18049  23565485.024    23565490.6534
  21607974.611   -10588039.093 9  -8224855.62849  21607974.191    21607979.1324
  21351499.908    -1294197.156 9   -992355.82049  21351499.884    21351504.7294
 99  5 18 17 21  0.0000000  0  6 08 24 04 07 05 09
  21589044.161   -11105354.479 9  -8640515.61549  21589043.766    21589048.7764
  20565222.027   -14965988.367 9 -11636119.77249  20565222.033    20565227.3934
  20513043.301    -4435474.236 9  -3437132.46449  20513043.875    20513047.6544
  23578695.561    12028127.958 9   9365138.50149  23578692.171    23578705.8664
  21594708.514   -10657753.342 9  -8279178.40049  21594707.595    21594712.0394
  21359800.733    -1250575.995 9   -958365.33849  21359800.358    21359805.4724
 99  5 18 17 21 30.0000000  0  7 08 24 04 07 05 09 30
  21581657.006   -11144173.641 9  -8670764.30349  21581655.741    21581662.2834
  20556705.537   -15010742.984 9 -11670993.47149  20556705.349    20556711.1404
  20519340.230    -4402384.422 9  -3411348.20349  20519340.686    20519344.9444
  23591910.317    12097570.56219   9419249.60649  23591908.612    23591916.7684
  21581486.439   -10727235.022 9  -8333319.95349  21581485.309    21581490.7604
  21368198.339    -1206445.731 9   -923978.14749  21368198.114    21368203.4864
  24576931.490     -802150.95849                  24576932.793    24576936.3454
 99  5 18 17 22  0.0000000  0  7 08 24 04 07 05 09 30
  21574391.783   -11182351.788 9  -8700513.49649  21574390.810    21574396.7664
  20548288.380   -15054975.545 9 -11705460.37849  20548288.256    20548293.7344
  20525747.698    -4368713.884 9  -3385111.42849  20525748.030    20525751.9414
  23605129.063    12167031.082 9                  23605129.549    23605140.0964
  21568307.418   -10796490.610 9  -8387285.32749  21568306.912    21568311.6824
  21376692.664    -1161808.045 9   -889195.56449  21376692.734    21376697.7294
  24558334.718    -1166025.424 9   -878281.54949  24558335.288    24558342.9574
 99  5 18 17 22 30.0000000  0  7 08 24 04 07 05 09 30
  21567243.525   -11219916.356 9  -8729784.56449  21567242.619    21567248.1534
  20539971.987   -15098678.460 9 -11739514.57749  20539971.863    20539977.3844
  20532262.493    -4334478.648 9  -3358434.62749  20532262.490    20532266.8614
  23618351.979    12236500.029 9   9527505.94359  23618361.429    23618354.5694
  21555168.575   -10865535.726 9  -8441086.69049  21555168.238    21555172.8964
  21385281.440    -1116674.546 9   -854026.63549  21385281.877    21385286.1254
  24539734.763    -1263763.746 9   -954441.21649  24539737.243    24539744.0664
 99  5 18 17 23  0.0000000  0  7 08 24 04 07 05 09 30
  21560208.850   -11256883.175 9  -8758589.87749  21560208.618    21560213.7534
  20531758.956   -15141838.249 9 -11773145.56149  20531758.899    20531764.4994
  20538882.117    -4299691.863 9  -3331328.04249  20538881.728    20538886.8294
  23631576.829    12305998.457 9   9581660.66149  23631576.820    23631579.5484
  21542071.116   -10934363.621 9  -8494718.79949  21542070.725    21542075.3824
  21393968.071    -1071026.404 9   -818456.69549  21393968.064    21393973.2614
  24521133.997    -1361512.962 9  -1030609.30949  24521136.261    24521143.2364
 99  5 18 17 23 30.0000000  0  7 08 24 04 07 05 09 30
  21553282.527   -11293282.169 9  -8786952.73549  21553282.093    21553286.9164
  20523648.930   -15184456.190 9 -11806354.32749  20523648.314    20523654.1794
  20545600.689    -4264384.537 9  -3303815.84549  20545600.437    20545605.5004
  23644803.649    12375509.780 9   9635825.20149  23644800.725    23644811.3614
  21529010.283   -11002999.146 9  -8548201.01749  21529010.296    21529014.3874
  21402751.920    -1024867.639 9   -782488.86849  21402752.283    21402756.5384
  24502531.211    -1459271.929 9  -1106785.07349  24502534.259    24502540.5734
 99  5 18 17 24  0.0000000  0  7 08 24 04 07 05 09 30
  21546458.107   -11329144.352 9  -8814897.28849  21546457.378    21546462.1024
  20515639.765   -15226543.906 9 -11839149.92249  20515639.628    20515645.2504
  20552415.259    -4228572.563 9  -3275910.41749  20552415.409    20552420.2564
  23658031.302    12445023.636 9   9689991.70049  23658032.455    23658034.0284
  21515982.538   -11071461.608 9  -8601548.37549  21515982.605    21515986.2094
  21411628.021     -978224.324 9   -746143.44849  21411627.459    21411632.6204
  24483921.983    -1557064.841 9  -1182987.25049  24483923.293    24483930.7644
 99  5 18 17 24 30.0000000  0  7 08 24 04 07 05 09 30
  21539735.022   -11364473.787 9  -8842426.71249  21539735.312    21539740.6454
  20507727.375   -15268124.029 9 -11871549.99549  20507727.086    20507733.0374
  20559322.943    -4192273.036 9  -3247625.07849  20559323.437    20559327.6384
  23671257.889    12514530.519 9   9744152.79349  23671254.292    23671262.1354
  21502989.980   -11139738.646 9  -8654751.22949  21502989.540    21502993.4454
  21420592.915     -931112.968 9   -709433.33749  21420592.512    21420597.6304
  24465307.028    -1654888.556 9  -1259213.45549  24465310.948    24465317.0494
 99  5 18 17 25  0.0000000  0  7 08 24 04 07 05 09 30
  21533116.676   -11399254.364 9  -8869528.45749  21533116.584    21533121.8774
  20499907.581   -15309216.911 9 -11903570.41449  20499907.479    20499913.3604
  20566320.948    -4155499.197 9  -3218970.14949  20566321.312    20566325.9124
  23684481.886    12584025.587 9   9798304.64849  23684482.484    23684489.1294
  21490033.569   -11207824.817 9  -8707805.38349  21490032.300    21490037.4424
  21429645.546     -883541.101 9   -672364.38749  21429645.255    21429649.7234
  24446687.420    -1752737.577 9  -1335459.42449  24446689.459    24446693.8594
 99  5 18 17 25 30.0000000  0  7 08 24 04 07 05 09 30
  21526606.789   -11433465.136 9  -8896186.20849  21526606.291    21526611.3054
  20492182.468   -15349812.203 9 -11935203.08149  20492182.517    20492188.1804
  20573411.463    -4118238.769 9  -3189936.05849  20573411.584    20573416.2934
  23697703.116    12653501.700 9   9852441.72149  23697702.492    23697709.3444
  21477113.642   -11275718.614 9  -8760709.62849  21477112.414    21477117.1894
  21438782.416     -835526.363 9   -634950.32549  21438782.390    21438786.9404
  24428058.027    -1850632.347 9  -1411741.00849  24428058.827    24428070.5234
 99  5 18 17 26  0.0000000  0  7 08 24 04 07 05 09 30
  21520211.920   -11467069.537 9  -8922371.47249  21520211.328    21520216.3324
  20484555.494   -15389892.872 9 -11966434.75849  20484555.497    20484561.1994
  20580599.645    -4080464.375 9  -3160501.48249  20580599.018    20580604.2414
  23710923.165    12722973.386 9   9906575.43249  23710921.301    23710930.8004
  21464234.877   -11343395.310 9  -8813444.70349  21464234.110    21464239.3494
  21448006.388     -787054.170 9   -597179.83349  21448006.314    21448011.3544
  24409422.004    -1948562.407 9  -1488050.03049  24409422.618    24409429.3974
 99  5 18 17 26 30.0000000  0  7 08 24 04 07 05 09 30
  21513937.371   -11500042.733 9  -8948064.88249  21513936.732    21513942.1494
  20477027.889   -15429451.025 9 -11997259.27449  20477027.739    20477033.7014
  20587885.631    -4042175.114 9  -3130665.71049  20587885.653    20587890.3934
  23724143.247    12792446.529 9   9960710.24849  23724142.058    23724149.7014
  21451399.256   -11410847.156 9  -8866004.57449  21451398.736    21451403.8124
  21457321.846     -738101.698 9   -559035.08949  21457321.525    21457326.8874
  24390781.774    -2046517.001 9  -1564378.14449  24390786.620    24390782.8924
 99  5 18 17 27  0.0000000  0  7 08 24 04 07 05 09 30
  21507781.976   -11532388.964 9  -8973269.74849  21507781.213    21507786.9084
  20469599.298   -15468488.125 9 -12027677.77449  20469599.271    20469605.5894
  20595271.890    -4003359.808 9  -3100420.03149  20595272.000    20595276.3104
  23737365.795    12861930.930 9  10014853.81449  23737365.394    23737370.0614
  21438602.571   -11478094.365 9  -8918404.98449  21438602.065    21438606.9434
  21466728.389     -688669.570 9   -520516.58849  21466728.593    21466733.3584
  24372136.991    -2144502.232 9  -1640730.20149  24372139.499    24372145.3514
 99  5 18 17 27 30.0000000  0  7 08 24 04 07 05 09 30
  21501743.308   -11564121.833 9  -8997996.63549  21501743.003    21501748.6974
  20462270.084   -15507003.870 9 -12057690.02749  20462269.765    20462275.7524
  20602761.956    -3963999.428 9  -3069749.62049  20602762.314    20602766.7134
  23750592.202    12931435.092 9  10069012.85849  23750590.858    23750598.8654
  21425845.304   -11545134.066 9  -8970643.69249  21425844.636    21425848.9684
  21476224.161     -638768.963 9   -481633.03249  21476223.830    21476228.6674
  24353487.982    -2242510.738 9  -1717100.37549  24353492.198    24353494.8364
 99  5 18 17 28  0.0000000  0  7 08 24 04 07 05 09 30
  21495818.286   -11595258.836 9  -9022259.21749  21495817.935    21495823.6064
  20455039.112   -15545002.294 9 -12087299.16349  20455039.071    20455044.8174
  20610355.369    -3924095.624 9  -3038655.75449  20610355.758    20610360.5864
  23763824.962    13000973.221 9  10123198.24949  23763822.048    23763832.9574
  21413129.962   -11611953.874 9  -9022711.05749  21413129.479    21413134.5994
  21485810.089     -588393.374 9   -442379.35649  21485809.604    21485815.4194
  24334835.536    -2340531.553 9  -1793480.15049  24334834.135    24334842.7804
 99  5 18 17 28 30.0000000  0  7 08 24 04 07 05 09 30
  21490003.919   -11625813.610 9  -9046068.13249  21490003.490    21490009.3034
  20447905.811   -15582487.427 9 -12116508.34249  20447905.570    20447911.4154
  20618052.550    -3883646.316 9  -3007136.83349  20618052.599    20618057.4354
  23777065.201    13070551.388 9  10177414.92049  23777063.192    23777068.6344
  21400456.881   -11678551.275 9  -9074605.11649  21400456.083    21400461.4024
  21495484.105     -537555.492 9   -402765.46049  21495484.506    21495489.1644
  24316182.483    -2438551.422 9  -1869859.22749  24316181.678    24316190.4884
 99  5 18 17 29  0.0000000  0  7 08 24 04 07 05 09 30
  21484299.127   -11655793.246 9  -9069428.89849  21484299.429    21484303.3674
  20440869.570   -15619463.647 9 -12145320.96549  20440869.710    20440875.2864
  20625852.521    -3842656.439 9  -2975196.67849  20625852.659    20625857.5334
  23790312.798    13140168.039 9  10231661.59549  23790311.410    23790322.8414
  21387829.518   -11744906.680 9  -9126310.60549  21387828.614    21387834.3414
  21505242.972     -486273.560 9   -362805.55849  21505243.620    21505248.0024
  24297530.829    -2536568.868 9  -1946236.43749  24297530.300    24297537.7724
 99  5 18 17 29 30.0000000  0  7 08 24 04 07 05 09 30
  21478706.833   -11685181.800 9  -9092329.07549  21478706.351    21478710.7184
  20433935.701   -15655901.569 9 -12173714.12549  20433935.451    20433940.9644
  20633754.624    -3801130.568 9  -2942838.87149  20633754.919    20633759.8044
  23803564.911    13209806.801 9  10285925.38649  23803563.766    23803573.5754
  21375253.030   -11810996.340 9  -9177809.03549  21375253.250    21375257.0334
  21515087.395     -434541.042 9   -322494.55149  21515087.545    21515092.7114
  24278880.672    -2634578.618 9  -2022607.63149  24278882.789    24278886.0394
 99  5 18 17 30  0.0000000  0  7 08 24 04 07 05 09 30
  21473230.525   -11713959.341 9  -9114753.13149  21473230.162    21473234.5114
  20427108.742   -15691777.074 9 -12201669.04049  20427108.577    20427114.3384
  20641757.261    -3759076.938 9  -2910069.82549  20641757.968    20641762.6824
  23816820.738    13279465.969 9  10340205.09549  23816823.496    23816826.4184
  21362728.395   -11876814.372 9  -9229095.80049  21362728.281    21362732.6324
  21525021.848     -382335.487 9   -281814.93149  21525021.797    21525026.7124
  24260233.796    -2732569.945 9  -2098964.47949  24260232.910    24260240.1804
 99  5 18 17 30 30.0000000  0  7 08 24 04 07 05 09 30
  21467874.345   -11742106.471 9  -9136685.96749  21467874.010    21467879.0064
  20420388.474   -15727092.925 9 -12229187.86949  20420388.309    20420393.7724
  20649859.407    -3716500.400 9  -2876893.32349  20649859.859    20649864.5914
  23830077.664    13349129.615 9  10394488.31949  23830078.670    23830087.0994
  21350253.629   -11942369.617 9  -9280177.80249  21350253.227    21350258.3604
  21535048.040     -329647.431 9   -240759.32649  21535048.026    21535053.4114
  24241592.259    -2830530.635 9  -2175297.45149  24241590.226    24241597.6094
 99  5 18 17 31  0.0000000  0  7 08 24 04 07 05 09 30
  21462638.139   -11769622.819 9  -9158127.28949  21462637.026    21462642.4094
  20413774.910   -15761847.300 9 -12256269.19549  20413774.978    20413780.1294
  20658059.152    -3673410.237 9  -2843316.59149  20658059.603    20658064.1344
  23843332.853    13418789.390 9  10448768.57849  23843328.957    23843340.0104
  21337826.240   -12007675.308 9  -9331065.33549  21337825.601    21337830.8664
  21545167.600     -276468.781 9   -199321.46249  21545167.701    21545172.3364
  24222954.800    -2928468.223 9  -2251612.47049  24222952.219    24222960.2374
 99  5 18 17 31 30.0000000  0  7 08 24 04 07 05 09 30
  21457520.768   -11796513.052 9  -9179080.72649  21457519.898    21457526.4644
  20407267.127   -15796045.984 9 -12282917.49249  20407267.203    20407272.7194
  20666357.688    -3629801.382 9  -2809335.68349  20666358.098    20666362.8074
  23856587.274    13488444.715 9  10503045.36049  23856589.137    23856593.2334
  21325442.037   -12072755.207 9  -9381776.94549  21325441.594    21325446.2814
  21555379.478     -222805.030 9   -157505.58249  21555379.501    21555384.4664
  24204322.120    -3026378.308 9  -2327906.00749  24204320.747    24204329.8764
 99  5 18 17 32  0.0000000  0  7 08 24 04 07 05 09 30
  21452519.064   -11822796.083 9  -9199561.02949  21452518.610    21452524.2324
  20400857.873   -15829727.114 9 -12309162.51949  20400858.270    20400863.4894
  20674751.109    -3585693.823 9  -2774966.16949  20674751.687    20674756.1444
  23869842.542    13558102.032 9  10557323.74049  23869843.711    23869849.9054
  21313098.639   -12137621.039 9  -9432321.75449  21313098.389    21313103.1904
  21565679.987     -168675.677 9   -115326.91649  21565679.381    21565685.3804
  24185695.595    -3124262.867 9  -2404179.69349  24185694.882    24185701.8634
 99  5 18 17 32 30.0000000  0  7 08 24 04 07 05 09 30
  21447631.984   -11848478.218 9  -9219573.08649  21447631.754    21447637.1224
  20394542.949   -15862912.682 9 -12335021.38349  20394542.752    20394548.4224
  20683238.418    -3541093.791 9  -2740212.91649  20683238.992    20683243.4124
  23883097.342    13627754.661 9  10611598.37849  23883099.005    23883104.9364
  21300796.268   -12202270.919 9  -9482698.28149  21300795.116    21300800.7464
  21576064.265     -114105.552 9    -72804.78349  21576064.252    21576069.7874
  24167070.206    -3222139.375 9  -2480447.13449  24167069.976    24167076.6114
 99  5 18 17 33  0.0000000  0  7 08 24 04 07 05 09 30
  21442859.442   -11873558.210 9  -9239115.94249  21442859.088    21442863.4214
  20388323.928   -15895593.258 9 -12360486.76049  20388323.497    20388328.8504
  20691820.550    -3495995.527 9  -2705071.44249  20691821.330    20691825.3794
  23896349.811    13697401.070 9  10665868.11349  23896345.964    23896358.1684
  21288537.309   -12266691.213 9  -9532895.89849  21288536.753    21288541.9124
  21586530.383      -59105.291 9    -29947.48349  21586530.486    21586536.2724
  24148445.714    -3320013.475 9  -2556712.58449  24148446.149    24148450.3214
 99  5 18 17 33 30.0000000  0  7 08 24 04 07 05 09 30
  21438206.022   -11898012.136 9  -9258170.95449  21438206.189    21438211.1624
  20382203.481   -15927756.021 9 -12385548.64349  20382203.384    20382208.9584
  20700497.998    -3450395.612 9  -2669539.06149  20700498.163    20700502.5014
  23909603.199    13767046.942 9  10720137.56149  23909601.947    23909612.3204
  21276327.546   -12330854.420 9  -9582893.20049  21276327.465    21276331.7154
  21597080.074       -3666.579 9     13251.47049  21597080.063    21597086.0924
  24129822.209    -3417881.905 9  -2632973.63249  24129822.621    24129828.1974
 99  5 18 17 34  0.0000000  0  7 08 24 04 07 05 09 30
  21433673.005   -11921834.840 9  -9276734.11049  21433673.117    21433677.6934
  20376184.340   -15959387.375 9 -12410196.43249  20376184.241    20376189.7714
  20709270.689    -3404294.849 9  -2633616.39749  20709270.750    20709275.3274
  23922856.947    13836693.661 9  10774407.61249  23922856.431    23922864.0784
  21264167.493   -12394755.633 9  -9632686.34649  21264167.103    21264171.7084
  21607714.888       52219.412 9     56798.94749  21607714.840    21607720.0974
  24111198.938    -3515747.905 9  -2709232.74449  24111197.775    24111205.6254
 99  5 18 17 34 30.0000000  0  7 08 24 04 07 05 09 30
  21429262.134   -11945015.183 9  -9294796.72449  21429261.581    21429266.6124
  20370270.735   -15990463.480 9 -12434411.56349  20370270.505    20370276.0374
  20718142.469    -3357673.083 9  -2597287.76849  20718142.568    20718146.8354
  23936112.093    13906346.834 9  10828682.66549  23936113.014    23936120.6944
  21252057.216   -12458395.777 9  -9682276.06649  21252056.537    21252061.6684
  21618435.218      108554.698 9    100696.52649  21618435.628    21618440.4244
  24092577.526    -3613602.277 9  -2785482.81749  24092576.047    24092584.0594
 99  5 18 17 35  0.0000000  0  7 08 24 04 07 05 09 30
  21424973.821   -11967549.698 9  -9312356.10949  21424972.480    21424978.7294
  20364464.655   -16020974.483 9 -12458186.35849  20364464.365    20364469.9824
  20727112.626    -3310534.216 9  -2560556.19849  20727112.539    20727117.6154
  23949370.989    13976019.561 9  10882973.04249  23949372.145    23949379.7284
  21239993.455   -12521790.206 9  -9731674.29949  21239993.129    21239998.3774
  21629241.407      165341.706 9    144946.10049  21629241.768    21629247.0834
  24073959.643    -3711438.033 9  -2861718.42749  24073960.074    24073965.6674
 99  5 18 17 35 30.0000000  0  7 08 24 04 07 05 09 30
  21420805.078   -11989455.387 9  -9329425.48349  21420804.346    21420809.7814
  20358763.244   -16050935.754 9 -12481532.79349  20358763.541    20358768.6004
  20736179.089    -3262889.126 9  -2523430.17349  20736179.222    20736184.2624
  23962636.067    14045724.796 9  10937288.71349  23962637.751    23962642.4404
  21227974.677   -12584949.532 9  -9780889.35749  21227974.359    21227979.0834
  21640130.979      222566.347 9    189536.67849  21640131.009    21640136.4564
  24055345.126    -3809259.180 9  -2937942.61049  24055346.440    24055350.5554
 99  5 18 17 36  0.0000000  0  7 08 24 04 07 05 09 30
  21416751.671   -12010755.888 9  -9346023.29549  21416751.302    21416756.2394
  20353162.893   -16080365.855 9 -12504465.32149  20353162.399    20353168.3744
  20745339.191    -3214752.369 9  -2485921.02349  20745339.141    20745344.1044
  23975905.209    14115461.309 9  10991628.78649  23975904.946    23975914.3564
  21215998.347   -12647885.927 9  -9829930.71249  21215997.590    21216002.4234
  21651100.807      280213.264 9    234456.30649  21651101.254    21651106.2204
  24036734.307    -3907061.484 9  -3014152.10649  24036734.845    24036740.4714
 99  5 18 17 36 30.0000000  0  7 08 24 04 07 05 09 30
  21412813.821   -12031450.546 9  -9362149.00649  21412813.738    21412818.4074
  20347659.541   -16109284.992 9 -12526999.69549  20347658.959    20347665.0924
  20754587.834    -3166149.567 9  -2448048.72149  20754587.648    20754592.8514
  23989179.956    14185215.066 9  11045982.20549  23989179.996    23989187.7264
  21204064.807   -12710596.848 9  -9878796.35349  21204064.442    21204069.3474
  21662148.721      338268.919 9    279694.42649  21662149.356    21662154.3644
  24018123.787    -4004859.749 9  -3090358.49549  24018123.999    24018130.6514
 99  5 18 17 37  0.0000000  0  7 08 24 04 07 05 09 30
  21408989.192   -12051549.588 9  -9377810.59049  21408988.506    21408993.5514
  20342251.638   -16137703.230 9 -12549143.77349  20342251.722    20342257.3554
  20763921.966    -3117097.697 9  -2409826.50849  20763922.346    20763927.1654
  24002454.809    14254968.026 9  11100335.02849  24002454.626    24002458.2084
  21192176.549   -12773069.963 9  -9927476.69849  21192176.292    21192180.9564
  21673274.732      396735.687 9    325252.90949  21673274.594    21673279.8134
  23999511.701    -4102665.331 9  -3166570.60449  23999512.193    23999518.8084
 99  5 18 17 37 30.0000000  0  7 08 24 04 07 05 09 30
  21405276.318   -12071060.776 9  -9393014.11749  21405275.756    21405281.3654
  20336940.240   -16165615.726 9 -12570893.75549  20336940.329    20336945.7694
  20773343.125    -3067589.792 9  -2371248.93949  20773343.653    20773347.8474
  24015727.623    14324715.437 9  11154683.59949  24015726.528    24015730.6704
  21180339.874   -12835271.955 9  -9975945.77949  21180339.766    21180343.9394
  21684480.889      455625.257 9    371140.84249  21684479.997    21684486.5244
  23980901.407    -4200464.013 9  -3242777.34349  23980902.277    23980907.4944
 99  5 18 17 38  0.0000000  0  7 08 24 04 07 05 09 30
  21401678.579   -12089967.295 9  -9407746.47949  21401678.067    21401682.9564
  20331728.954   -16193001.529 9 -12592233.33049  20331729.067    20331734.3184
  20782851.994    -3017620.070 9  -2332311.50949  20782852.381    20782856.5694
  24028998.933    14394453.507 9  11209024.83949  24029000.229    24029002.8264
  21168558.231   -12897185.319 9 -10024189.95349  21168558.282    21168562.3484
  21695769.039      514944.858 9    417363.85949  21695770.061    21695774.9464
  23962294.115    -4298243.814 9  -3318969.35049  23962293.679    23962301.0484
 99  5 18 17 38 30.0000000  0  7 08 24 04 07 05 09 30
  21398199.147   -12108252.171 9  -9421994.45049  21398198.915    21398203.5774
  20326620.771   -16219845.474 9 -12613150.67549  20326620.813    20326626.3534
  20792451.231    -2967175.967 9  -2293004.42949  20792451.615    20792456.0364
  24042268.581    14464183.966 9  11263360.12049  24042266.315    24042274.1954
  21156832.705   -12958803.431 9 -10072204.05749  21156832.530    21156837.3754
  21707140.904      574703.240 9    463928.79549  21707140.589    21707146.3154
  23943692.139    -4395996.695 9  -3395140.38849  23943691.407    23943698.3114
 99  5 18 17 39  0.0000000  0  7 08 24 04 07 05 09 30
  21394836.286   -12125923.644 9  -9435764.45349  21394835.484    21394841.1724
  20321618.691   -16246131.596 9 -12633633.35949  20321618.626    20321624.0654
  20802142.747    -2916246.938 9  -2253319.48749  20802143.096    20802148.1594
  24055538.125    14533915.573 9  11317696.35149  24055535.789    24055544.3324
  21145164.542   -13020119.831 9 -10119983.05349  21145163.468    21145169.3004
  21718597.852      634910.488 9    510843.48649  21718598.177    21718603.7034
  23925101.240    -4493695.129 9  -3471269.04949  23925102.386    23925107.7414
 99  5 18 17 39 30.0000000  0  7 08 24 04 07 05 09 30
  21391592.026   -12142972.471 9  -9449049.27049  21391591.429    21391595.7104
  20316723.213   -16271857.447 9 -12653679.47149  20316723.285    20316728.4864
  20811924.246    -2864844.671 9  -2213265.79849  20811924.664    20811929.8704
  24068808.811    14603652.323 9  11372036.55749  24068807.661    24068816.9584
  21133551.406   -13081146.818 9 -10167536.54849  21133551.487    21133555.8114
  21730138.926      695557.631 9    558100.93249  21730139.378    21730144.4934
  23906521.036    -4591337.844 9  -3547354.26449  23906521.520    23906526.7404
 99  5 18 17 40  0.0000000  0  7 08 24 04 07 05 09 30
  21388470.563   -12159377.298 9  -9461832.25749  21388470.770    21388474.8384
  20311934.721   -16297020.985 9 -12673287.41049  20311934.970    20311939.4744
  20821794.270    -2812977.452 9  -2172849.80649  20821794.821    20821799.4984
  24082078.574    14673388.497 9  11426376.29349  24082072.998    24082085.0554
  21121990.692   -13141898.484 9 -10214875.50149  21121990.290    21121995.0294
  21741762.061      756636.932 9    605695.14549  21741761.642    21741766.9954
  23887950.592    -4688926.974 9  -3623397.70149  23887950.246    23887954.9854
 99  5 18 17 40 30.0000000  0  7 08 24 04 07 05 09 30
  21385470.828   -12175141.693 9  -9474116.21849  21385470.447    21385474.9634
  20307251.789   -16321630.393 9 -12692463.56849  20307251.522    20307256.9494
  20831751.268    -2760653.410 9  -2132077.84449  20831752.068    20831756.4604
  24095347.456    14743121.541 9  11480713.61749  24095348.138    24095353.4914
  21110480.229   -13202385.807 9 -10262008.47149  21110480.448    21110484.8564
  21753467.633      818151.069 9    653628.18449  21753467.997    21753473.0474
  23869389.648    -4786462.996 9  -3699399.70849  23869389.046    23869394.6234
 99  5 18 17 41  0.0000000  0  7 08 24 04 07 05 09 30
  21382591.646   -12190271.639 9  -9485905.81549  21382590.251    21382595.2354
  20302671.736   -16345698.803 9 -12711218.15949  20302671.503    20302676.9544
  20841795.077    -2707874.055 9  -2090951.08649  20841795.325    20841799.6384
  24108616.040    14812846.068 9  11535044.22549  24108616.892    24108623.1314
  21099020.321   -13262608.849 9 -10308935.50949  21099020.132    21099024.5124
  21765253.786      880086.623 9    701889.59649  21765253.738    21765259.3304
  23850837.155    -4883954.204 9  -3775366.81849  23850836.629    23850842.9794
 99  5 18 17 41 30.0000000  0  7 08 24 04 07 05 09 30
  21379834.681   -12204758.870 9  -9497194.56949  21379833.509    21379839.1504
  20298193.029   -16369234.463 9 -12729557.62049  20298193.083    20298198.4104
  20851927.080    -2654630.311 9  -2049462.46849  20851927.261    20851931.7054
  24121883.634    14882565.890 9  11589371.24249  24121883.068    24121889.6364
  21087609.523   -13322573.270 9 -10355661.02449  21087609.222    21087613.5854
  21777117.336      942430.335 9    750469.06649  21777117.066    21777122.8704
  23832290.592    -4981417.671 9  -3851312.30049  23832291.498    23832296.6124
 99  5 18 17 42  0.0000000  0  7 08 24 04 07 05 09 30
  21377196.972   -12218618.876 9  -9507994.60249  21377196.745    21377202.7444
  20293814.322   -16392245.054 9 -12747487.94249  20293814.075    20293819.3914
  20862150.355    -2600906.985 9  -2007600.15249  20862150.993    20862155.0404
  24135152.401    14952293.031 9  11643703.92449  24135152.901    24135161.3484
  21076248.367   -13382276.945 9 -10402183.35249  21076248.527    21076252.3694
  21789058.925     1005183.816 9    799367.83149  21789059.088    21789064.1914
  23813748.643    -5078855.457 9  -3927237.81249  23813750.474    23813756.1554
 99  5 18 17 42 30.0000000  0  7 08 24 04 07 05 09 30
  21374676.034   -12231866.892 9  -9518317.74749  21374675.430    21374680.2924
  20289533.341   -16414741.023 9 -12765017.26549  20289533.188    20289538.7574
  20872467.012    -2546693.467 9  -1965355.87049  20872467.661    20872471.8074
  24148423.652    15022035.071 9  11698048.28849  24148423.724    24148428.5444
  21064938.914   -13441709.573 9 -10448494.48149  21064938.407    21064943.1574
  21801076.371     1068335.793 9    848577.11849  21801075.999    21801081.9584
  23795211.792    -5176268.508 9  -4003144.05249  23795213.257    23795217.3654
 99  5 18 17 43  0.0000000  0  7 08 24 04 07 05 09 30
  21372270.346   -12244507.861 9  -9528167.86549  21372270.195    21372275.6084
  20285350.328   -16436722.198 9 -12782145.45049  20285349.765    20285355.7454
  20882878.660    -2491980.167 9  -1922722.13649  20882879.214    20882883.7874
  24161699.985    15091803.723 9  11752413.41849  24161696.645    24161711.0654
  21053681.997   -13500864.453 9 -10494589.18749  21053680.750    21053686.5724
  21813167.546     1131875.595 9    898088.59849  21813167.438    21813173.1764
  23776678.452    -5273661.536 9  -4079034.66649  23776677.898    23776683.8424
 99  5 18 17 43 30.0000000  0  7 08 24 04 07 05 09 30
  21369981.952   -12256534.533 9  -9537539.31949  21369982.989    21369986.9634
  20281268.708   -16458170.825 9 -12798858.65649  20281268.180    20281274.1134
  20893384.174    -2436773.180 9  -1879703.72849  20893384.151    20893389.1704
  24174982.137    15161609.689 9  11806807.58149  24174977.751    24174989.5454
  21042479.941   -13559730.150 9 -10540458.55249  21042479.575    21042484.7314
  21825330.724     1195793.670 9    947894.83149  21825331.278    21825335.9334
  23758149.301    -5371029.475 9  -4154905.72049  23758148.956    23758155.7294
 99  5 18 17 44  0.0000000  0  7 08 24 04 07 05 09 30
  21367812.865   -12267934.493 9  -9546422.40949  21367812.491    21367817.1664
  20277289.692   -16479079.753 9 -12815151.31849  20277289.515    20277295.3164
  20903982.011    -2381080.945 9  -1836307.20849  20903982.624    20903986.6564
  24188272.785    15231454.016 9  11861231.46949  24188277.084    24188284.8584
  21031337.024   -13618286.204 9 -10586086.63749  21031336.739    21031341.7504
  21837565.136     1260084.615 9    997991.60149  21837565.328    21837570.6724
  23739628.789    -5468353.413 9  -4230742.51849  23739628.887    23739633.9854
 99  5 18 17 44 30.0000000  0  8 10 08 24 04 07 05 09 30
  24114182.107                                    24114188.235    24114346.3484
  21365765.129   -12278696.404 9  -9554808.33549  21365764.789    21365769.6564
  20273415.198   -16499440.386 9 -12831016.74049  20273415.237    20273421.2064
  20914671.938    -2324905.780 9  -1792534.37149  20914672.533    20914676.2144
  24201570.397    15301326.841 9  11915677.68249  24201571.980    24201574.6054
  21020254.696   -13676524.307 9 -10631466.96649  21020254.071    21020259.6044
  21849870.107     1324748.108 9   1048378.68949  21849869.440    21849875.8294
  23721119.920    -5565616.452 9  -4306531.89049  23721119.790    23721127.6564
 99  5 18 17 45  0.0000000  0  8 10 08 24 04 07 05 09 30
  24096084.404     -971410.12149                  24096088.295    24096096.3304
  21363840.765   -12288808.515 9  -9562687.91749  21363840.061    21363844.8354
  20269649.136   -16519231.132 9 -12846438.09449  20269649.484    20269654.7364
  20925451.662    -2268258.214 9  -1748393.42849  20925451.391    20925455.9624
  24214871.755    15371225.817 9  11970144.45049  24214871.343    24214881.3194
  21009233.272   -13734442.650 9 -10676598.13549  21009232.831    21009238.1994
  21862248.579     1389798.848 9   1099067.52549  21862248.680    21862254.4864
  23702623.924    -5662813.753 9  -4382270.01049  23702625.744    23702632.0104
 99  5 18 17 45 30.0000000  0  8 10 08 24 04 07 05 09 30
  24077993.098    -1373340.597 9  -1045498.98649  24077991.024    24078004.0604
  21362042.734   -12298256.413 9  -9570049.92049  21362041.876    21362047.4814
  20265992.611   -16538447.488 9 -12861411.87649  20265993.305    20265998.1374
  20936318.605    -2211150.906 9  -1703894.25349  20936318.688    20936323.4614
  24228176.466    15441141.723 9  12024624.32949  24228170.826    24228179.7704
  20998274.499   -13792031.117 9 -10721472.25049  20998274.337    20998279.1224
  21874703.591     1455249.898 9   1150068.27949  21874704.487    21874709.1134
  23684144.079    -5759928.274 9  -4457943.61149  23684144.858    23684151.4874
 99  5 18 17 46  0.0000000  0  8 10 08 24 04 07 05 09 30
  24059904.480    -1468400.164 9  -1119571.10049  24059902.506    24059913.8004
  21360367.136   -12307062.398 9  -9576911.75349  21360366.426    21360371.8674
  20262441.171   -16557110.723 9 -12875954.64849  20262441.004    20262446.6574
  20947271.362    -2153593.841 9  -1659044.60749  20947271.696    20947276.1114
  24241483.235    15511068.442 9  12079112.48849  24241484.519    24241492.7364
  20987373.985   -13849314.167 9 -10766108.38049  20987373.883    20987378.5244
  21887236.963     1521111.415 9   1201388.88849  21887237.701    21887242.2834
  23665678.361    -5856967.940 9  -4533558.89749  23665678.991    23665684.6364
 99  5 18 17 46 30.0000000  0  8 10 08 24 04 07 05 09 30
  24041810.343    -1563480.203 9  -1193659.18849  24041808.892    24041820.5084
  21358803.511   -12315277.922 9  -9583313.48549  21358802.709    21358808.0594
  20258987.296   -16575260.720 9 -12890097.49649  20258987.305    20258992.8214
  20958300.773    -2095633.375 9  -1613880.62349  20958301.000    20958306.0854
  24254783.635    15580963.218 9  12133575.82649  24254780.195    24254790.6974
  20976522.342   -13906340.165 9 -10810544.21249  20976521.876    20976526.9314
  21899843.795     1587359.711 9   1253010.88649  21899844.093    21899849.5114
  23647217.959    -5953977.664 9  -4609150.87849  23647217.712    23647224.7594
 99  5 18 17 47  0.0000000  0  8 10 08 24 04 07 05 09 30
  24023714.005    -1658576.110 9  -1267759.62649  24023711.950    24023724.5784
  21357357.603   -12322875.201 9  -9589233.46549  21357357.619    21357362.3404
  20255632.129   -16592891.655 9 -12903835.87149  20255632.148    20255637.1954
  20969404.780    -2037281.772 9  -1568411.86349  20969405.073    20969409.8974
  24268080.299    15650840.412 9  12188025.44549  24268079.798    24268088.8044
  20965721.001   -13963100.704 9 -10854773.19149  20965720.414    20965725.6674
  21912524.603     1653998.383 9   1304937.06249  21912524.625    21912530.0094
  23628762.571    -6050960.462 9  -4684721.84449  23628762.758    23628769.0594
 99  5 18 17 47 30.0000000  0  8 10 08 24 04 07 05 09 30
  24005617.015    -1753676.879 9  -1341863.77149  24005615.848    24005626.9984
  21356029.190   -12329857.294 9  -9594674.07449  21356028.819    21356034.1074
  20252374.613   -16610010.181 9 -12917174.97549  20252374.873    20252379.7324
  20980586.446    -1978521.248 9  -1522624.46549  20980586.432    20980591.7554
  24281378.856    15720724.626 9  12242480.57849  24281375.833    24281385.2474
  20954972.948   -14019582.133 9 -10898784.68549  20954972.764    20954977.3314
  21925279.803     1721027.381 9   1357167.38649  21925279.595    21925285.6594
  23610315.779    -6147899.379 9  -4760258.61449  23610316.558    23610321.6774
 99  5 18 17 48  0.0000000  0  8 10 08 24 04 07 05 09 30
  23987518.852    -1848783.263 9  -1415972.36249  23987519.026    23987529.2894
  21354817.790   -12336223.131 9  -9599634.48249  21354817.777    21354822.3094
  20249217.505   -16626601.620 9 -12930103.36149  20249217.428    20249222.7864
  20991848.954    -1919335.983 9  -1476506.08949  20991849.305    20991854.4584
  24294680.292    15790627.939 9  12296950.64349  24294682.182    24294690.8354
  20944281.443   -14075766.351 9 -10942564.57649  20944280.876    20944285.9644
  21938110.028     1788451.156 9   1409705.33249  21938109.573    21938115.4684
  23591878.896    -6244786.214 9  -4835754.80949  23591879.172    23591885.2084
 99  5 18 17 48 30.0000000  0  8 10 08 24 04 07 05 09 30
  23969421.087    -1943886.776 9  -1490078.69249  23969417.318    23969428.5934
  21353726.977   -12341955.543 9  -9604101.30949  21353726.593    21353731.7264
  20246161.344   -16642661.806 9 -12942617.77649  20246161.284    20246166.6594
  21003191.437    -1859730.785 9  -1430060.50249  21003191.743    21003196.8784
  24307982.616    15860534.087 9  12351422.88649  24307983.733    24307992.3744
  20933651.661   -14131626.605 9 -10986092.03149  20933651.135    20933656.4564
  21951014.525     1856264.347 9   1462546.72349  21951014.499    21951019.8234
  23573454.054    -6341610.373 9  -4911202.14049  23573454.527    23573460.0564
 99  5 18 17 49  0.0000000  0  8 10 08 24 04 07 05 09 30
  23951325.132    -2038975.212 9  -1564173.29249  23951320.406    23951333.9864
  21352756.508   -12347056.533 9  -9608076.12349  21352756.045    21352761.4794
  20243205.744   -16658193.329 9 -12954720.25549  20243205.660    20243211.1814
  21014616.580    -1799691.631 9  -1383276.76949  21014617.163    21014621.4914
  24321286.521    15930446.495 9  12405899.98749  24321283.516    24321296.4174
  20923083.748   -14187160.969 9 -11029365.55349  20923083.091    20923088.1574
  21963989.462     1924448.012 9   1515676.79049  21963989.576    21963994.7654
  23555041.881    -6438368.029 9  -4986597.66849  23555042.653    23555048.4024
 99  5 18 17 49 30.0000000  0  8 10 08 24 04 07 05 09 30
  23933233.353    -2134045.291 9  -1638253.63649  23933230.569    23933244.8794
  21351899.729   -12351558.826 9  -9611584.42049  21351899.627    21351905.1194
  20240350.821   -16673196.327 9 -12966410.89449  20240350.737    20240356.2394
  21026125.848    -1739210.685 9  -1336148.77049  21026126.016    21026130.5634
  24334591.412    16000362.675 9  12460380.00349  24334592.832    24334600.3184
  20912578.312   -14242367.464 9 -11072383.59049  20912578.303    20912582.8604
  21977035.111     1993003.003 9   1569096.19749  21977035.405    21977041.2014
  23536644.592    -6535047.764 9  -5061932.43449  23536644.900    23536650.5784
 99  5 18 17 50  0.0000000  0  8 10 08 24 04 07 05 09 30
  23915144.744    -2229098.577 9  -1712320.84249  23915142.681    23915156.8164
  21351161.253   -12355440.543 9  -9614609.15549  21351161.449    21351166.4354
  20237598.334   -16687660.578 9 -12977681.73449  20237598.492    20237603.6344
  21037717.251    -1678297.261 9  -1288683.78549  21037717.821    21037722.0534
  24347893.881    16070265.047 9  12514849.31749  24347895.343    24347904.0594
  20902134.505   -14297250.955 9 -11115149.94349  20902134.493    20902139.0874
  21990151.869     2061931.583 9   1622806.72749  21990152.284    21990158.1874
  23518261.853    -6631649.587 9  -5137206.50949  23518261.087    23518268.3174
 99  5 18 17 50 30.0000000  0  8 10 08 24 04 07 05 09 30
  23897063.168    -2324117.120 9  -1786360.95849  23897062.318    23897074.1114
  21350543.687   -12358685.834 9  -9617137.96849  21350542.287    21350548.1154
  20234948.200   -16701586.914 9 -12988533.41449  20234947.907    20234953.5784
  21049391.947    -1616946.948 9  -1240878.36749  21049392.339    21049396.6204
  24361195.649    16140161.989 9  12569314.32649  24361197.074    24361204.6694
  20891748.874   -14351828.206 9 -11157677.66449  20891748.394    20891753.4834
  22003339.083     2131229.990 9   1676805.43449  22003339.225    22003345.3144
  23499894.061    -6728171.238 9  -5212418.13049  23499893.372    23499900.9534
 99  5 18 17 51  0.0000000  0  8 10 08 24 04 07 05 09 30
  23878988.366    -2419099.546 9  -1860373.00349  23878988.101    23878999.2474
  21350043.215   -12361314.068 9  -9619185.96849  21350042.773    21350047.9044
  20232403.246   -16714960.383 9 -12998954.28449  20232403.239    20232408.6264
  21061149.254    -1555162.018 9  -1192734.27949  21061149.719    21061154.4594
  24374499.592    16210074.927 9  12623791.83049  24374498.116    24374509.9614
  20881418.407   -14406115.412 9 -11199979.37049  20881417.635    20881423.0654
  22016595.497     2200892.410 9   1731087.78349  22016595.568    22016600.6024
  23481540.288    -6824618.207 9  -5287571.54349  23481539.449    23481546.8394
 99  5 18 17 51 30.0000000  0  8 10 08 24 04 07 05 09 30
  23860921.573    -2514040.911 9  -1934353.08649  23860921.648    23860931.5984
  21349663.052   -12363312.005 9  -9620742.83049  21349662.846    21349667.7094
  20229965.795   -16727769.507 9 -13008935.40749  20229965.656    20229971.2734
  21072985.262    -1492963.675 9  -1144268.06649  21072985.646    21072990.1814
  24387806.690    16280004.096 9  12678281.95349  24387805.574    24387816.1894
  20871143.799   -14460108.591 9 -11242051.96949  20871143.358    20871147.8684
  22029922.589     2270925.505 9   1785658.95749  22029922.872    22029928.5514
  23463201.059    -6920989.635 9  -5362666.12749  23463201.564    23463207.1414
 99  5 18 17 52  0.0000000  0  8 10 08 24 04 07 05 09 30
  23842864.351    -2608932.465 9  -2008294.32649  23842863.259    23842874.5774
  21349405.529   -12364664.460 9  -9621796.71849  21349405.144    21349411.0644
  20227634.956   -16740017.903 9 -13018479.60249  20227634.740    20227640.3794
  21084900.516    -1430348.936 9  -1095477.38149  21084900.657    21084905.2534
  24401117.394    16349951.985 9  12732786.67149  24401117.768    24401128.9194
  20860926.883   -14513798.745 9 -11283888.44149  20860925.981    20860930.7094
  22043318.435     2341320.308 9   1840511.97149  22043317.899    22043323.8454
  23444875.405    -7017291.992 9  -5437706.89549  23444875.880    23444880.9864
 99  5 18 17 52 30.0000000  0  8 10 08 24 04 07 05 09 30
  23824818.154    -2703764.567 9  -2082189.15249  23824817.912    23824828.7624
  21349266.932   -12365392.682 9  -9622364.19149  21349266.460    21349272.4734
  20225409.284   -16751713.511 9 -13027593.05049  20225409.291    20225414.8024
  21096894.101    -1367322.245 9  -1046365.69849  21096894.664    21096898.4064
  24414433.865    16419930.282 9  12787315.10849  24414434.609    24414444.3684
  20850770.124   -14567172.374 9 -11325478.26849  20850769.643    20850774.3074
  22056782.221     2412073.362 9   1895644.17349  22056781.878    22056787.5104
  23426563.626    -7113522.914 9  -5512692.00849  23426563.508    23426569.3724
 99  5 18 17 53  0.0000000  0  8 10 08 24 04 07 05 09 30
  23806783.399    -2798538.913 9  -2156039.06449  23806783.177    23806791.8204
  21349245.637   -12365504.639 9  -9622451.45249  21349245.985    21349250.6614
  20223289.201   -16762854.571 9 -13036274.38049  20223289.128    20223294.5314
  21108963.761    -1303895.552 9   -996942.32349  21108964.098    21108968.4524
  24427755.584    16489933.380 9  12841862.84049  24427755.467    24427765.8724
  20840679.147   -14620200.799 9 -11366799.11749  20840678.748    20840682.8974
  22070313.276     2483180.354 9   1951052.14749  22070313.610    22070318.3964
  23408266.580    -7209675.657 9  -5587616.17249  23408266.904    23408272.0084
 99  5 18 17 53 30.0000000  0  8 10 08 24 04 07 05 09 30
  23788759.484    -2893255.814 9  -2229844.18449  23788758.935    23788766.4914
  21349343.407   -12364991.629 9  -9622051.70749  21349342.937    21349347.8074
  20221270.008   -16773465.723 9 -13044542.79349  20221270.116    20221275.1064
  21121111.233    -1240059.111 9   -947199.65449  21121111.059    21121116.3934
  24441078.538    16559946.551 9  12896418.47149  24441079.053    24441088.1584
  20830658.063   -14672861.384 9 -11407833.32649  20830657.676    20830662.2264
  22083912.317     2554643.088 9   2006737.32049  22083912.346    22083918.0144
  23389985.802    -7305744.304 9  -5662474.83249  23389986.639    23389990.3074
 99  5 18 17 54  0.0000000  0  8 10 08 24 04 07 05 09 30
  23770745.411    -2987920.052 9  -2303608.29249  23770743.866    23770753.0694
  21349557.896   -12363865.774 9  -9621174.43349  21349558.009    21349562.4084
  20219348.398   -16783564.365 9 -13052411.85049  20219348.147    20219353.6354
  21133338.663    -1175802.927 9   -897129.92849  21133339.114    21133344.1774
  24454402.432    16629961.432 9  12950975.39949  24454403.749    24454411.7944
  20820707.207   -14725153.762 9 -11448580.62449  20820706.785    20820711.3564
  22097578.354     2626458.849 9   2062697.59449  22097577.815    22097584.4394
  23371721.375    -7401727.513 9  -5737266.89949  23371720.495    23371724.8304
 99  5 18 17 54 30.0000000  0  8 10 08 24 04 07 05 09 30
  23752741.759    -3082530.155 9  -2377330.24049  23752739.561    23752750.7434
  21349888.050   -12362131.557 9  -9619823.12549  21349887.720    21349892.6254
  20217525.579   -16793143.155 9 -13059875.83049  20217525.378    20217530.5524
  21145644.034    -1111138.281 9   -846741.91049  21145644.995    21145649.3814
  24467726.563    16699977.566 9  13005533.30449  24467724.697    24467737.5614
  20810824.308   -14777089.234 9 -11489049.80549  20810823.347    20810828.4214
  22111310.304     2698620.961 9   2118927.76549  22111310.288    22111316.1124
  23353472.927    -7497622.230 9  -5811989.99149  23353472.338    23353476.9264
 99  5 18 17 55  0.0000000  0  8 10 08 24 04 07 05 09 30
  23734747.779    -3177085.777 9  -2451009.69249  23734745.657    23734757.3754
  21350334.691   -12359783.868 9  -9617993.77949  21350333.781    21350339.3654
  20215801.358   -16802203.637 9 -13066935.93049  20215801.002    20215806.8164
  21158027.973    -1046061.575 9   -796032.80949  21158028.042    21158033.3314
  24481050.384    16769994.734 9  13060091.94249  24481048.223    24481059.2864
  20801008.016   -14828672.961 9 -11529244.89849  20801006.943    20801012.4154
  22125107.660     2771125.512 9   2175424.74649  22125108.626    22125113.6234
  23335241.961    -7593423.296 9  -5886640.12949  23335242.618    23335246.8444
 99  5 18 17 55 30.0000000  0  8 10 08 24 04 07 05 09 30
  23716763.471    -3271593.044 9  -2524651.54949  23716763.356    23716773.4454
  21350898.433   -12356821.344 9  -9615685.34149  21350898.051    21350903.8364
  20214173.545   -16810757.848 9 -13073601.53149  20214173.849    20214179.0114
  21170490.091     -980572.360 9   -745002.27949  21170490.325    21170495.2614
  24494374.734    16840016.256 9  13114654.06649  24494373.698    24494384.8074
  20791254.808   -14879925.638 9 -11569182.04049  20791254.724    20791259.3774
  22138969.825     2843970.780 9   2232187.23249  22138969.440    22138976.1134
  23317029.563    -7689127.567 9  -5961214.80549  23317028.397    23317035.8564
 99  5 18 17 56  0.0000000  0  8 10 08 24 04 07 05 09 30
  23698788.177    -3366056.312 9  -2598259.06949  23698786.931    23698797.1304
  21351579.339   -12353243.630 9  -9612897.53949  21351578.430    21351584.4634
  20212643.892   -16818797.137 9 -13079865.89649  20212644.218    20212649.2374
  21183026.835     -914691.311 9   -693666.41649  21183026.776    21183032.0114
  24507700.965    16910048.902 9  13169224.79449  24507701.391    24507710.0744
  20781560.669   -14930869.819 9 -11608878.79749  20781560.605    20781564.8104
  22152894.269     2917144.572 9   2289205.71849  22152894.320    22152901.0654
  23298834.573    -7784741.467 9  -6035719.06649  23298834.862    23298841.8614
 99  5 18 17 56 30.0000000  0  8 10 08 24 04 07 05 09 30
  23680820.487    -3460476.633 9  -2671833.11549  23680818.780    23680829.2074
  21352376.816   -12349052.559 9  -9609631.78449  21352377.317    21352382.5764
  20211214.653   -16826308.310 9 -13085718.73849  20211214.597    20211219.4634
  21195635.812     -848430.429 9   -642034.59049  21195636.226    21195640.9844
  24521030.431    16980099.063 9  13223809.24349  24521029.744    24521041.6204
  20771926.055   -14981500.102 9 -11648330.94749  20771925.845    20771930.1634
  22166880.667     2990642.716 9   2346476.94449  22166880.358    22166886.4894
  23280656.560    -7880268.827 9  -6110155.93949  23280657.246    23280662.9154
 99  5 18 17 57  0.0000000  0  8 10 08 24 04 07 05 09 30
  23662860.084    -3554857.161 9  -2745376.16549  23662857.345    23662870.3314
  21353291.885   -12344243.890 9  -9605884.78149  21353291.384    21353297.0154
  20209885.290   -16833294.326 9 -13091162.37849  20209884.988    20209889.8414
  21208317.812     -781786.277 9   -590104.11449  21208318.227    21208322.9944
  24534364.216    17050164.734 9  13278405.79049  24534366.671    24534373.0474
  20762353.923   -15031801.875 9 -11687527.11449  20762353.082    20762358.4674
  22180930.773     3064476.817 9   2404009.94549  22180930.701    22180936.0464
  23262495.570    -7975705.184 9  -6184521.87349  23262494.740    23262502.2514
 99  5 18 17 57 30.0000000  0  8 10 08 24 04 07 05 09 30
  23644908.461    -3649191.538 9  -2818883.30149  23644907.961    23644918.3174
  21354326.886   -12338804.182 9  -9601646.06649  21354326.927    21354332.1484
  20208657.783   -16839744.800 9 -13096188.71649  20208657.577    20208662.1104
  21221072.396     -714760.120 9   -537875.94949  21221072.867    21221077.1354
  24547702.104    17120249.589 9  13333017.21349  24547699.761    24547716.6904
  20752845.972   -15081766.054 9 -11726460.23749  20752845.794    20752850.1954
  22195044.540     3138645.143 9   2461803.38249  22195045.110    22195050.7874
  23244350.572    -8071056.142 9  -6258821.28749  23244351.211    23244356.6274
 99  5 18 17 58  0.0000000  0  8 10 08 24 04 07 05 09 30
  23626970.087    -3743458.305 9  -2892337.71749  23626969.579    23626978.6624
  21355482.495   -12332731.616 9  -9596914.23049  21355481.818    21355486.8914
  20207534.666   -16845646.477 9 -13100787.41449  20207534.405    20207539.7354
  21233900.597     -647347.674 9   -485346.79749  21233900.836    21233905.4814
  24561041.614    17190349.611 9  13387640.45349  24561040.585    24561050.7314
  20743405.438   -15131376.518 9 -11765117.73249  20743404.970    20743409.1814
  22209223.322     3213153.903 9   2519862.07749  22209223.435    22209229.3544
  23226222.144    -8166322.050 9  -6333054.40849  23226223.600    23226227.9864
 99  5 18 17 58 30.0000000  0  7 10 08 24 04 05 09 30
  23609051.416    -3837621.140 9  -2965711.16349  23609049.485    23609060.9124
  21356761.882   -12326007.883 9  -9591674.98549  21356761.572    21356767.0764
  20206517.832   -16850989.196 9 -13104950.56449  20206517.479    20206522.7384
  21246805.792     -579530.252 9   -432502.08549  21246805.673    21246811.0434
  20734036.822   -15180608.471 9 -11803480.28649  20734036.305    20734041.3284
  22223467.524     3288007.831 9   2578189.74949  22223467.354    22223473.4394
  23208115.032    -8261475.940 9  -6407200.25849  23208115.956    23208119.4944
 99  5 18 17 59  0.0000000  0  7 10 08 24 04 05 09 30
  23591153.905    -3931669.882 9  -3038995.73149  23591150.796    23591163.3104
  21358165.053   -12318634.655 9  -9585929.63649  21358164.900    21358169.1964
  20205603.380   -16855794.396 9 -13108694.86549  20205603.172    20205608.3214
  21259787.621     -511309.756 9   -379343.29849  21259788.425    21259792.4914
  20724737.734   -15229475.318 9 -11841558.34149  20724737.343    20724742.3384
  22237774.206     3363190.925 9   2636773.92449  22237773.750    22237780.8904
  23190030.989    -8356508.367 9  -6481251.46749  23190030.556    23190035.8184
 99  5 18 17 59 30.0000000  0  7 10 08 24 04 05 09 30
  23573277.267    -4025609.473 9  -3112195.22249  23573276.180    23573286.5904
  21359688.537   -12310629.606 9  -9579691.96549  21359688.236    21359693.3514
  20204788.003   -16860079.214 9 -13112033.68049  20204788.066    20204793.1304
  21272842.325     -442707.449 9   -325886.96949  21272843.307    21272847.0244
  20715504.079   -15277998.705 9 -11879368.74849  20715503.315    20715508.6134
  22252139.194     3438679.426 9   2695596.06649  22252139.414    22252145.8884
  23171966.453    -8451436.862 9  -6555221.67249  23171966.921    23171971.8904
 99  5 18 18  0  0.0000000  0  7 10 08 24 04 05 09 30
  23555421.161    -4119443.971 9  -3185312.79649  23555421.051    23555429.9514
  21361326.647   -12302021.572 9  -9572984.41449  21361325.852    21361330.6944
  20204067.433   -16863866.241 9 -13114984.60249  20204067.485    20204072.6144
  21285965.784     -373743.928 9   -272149.16849  21285966.332    21285970.9594
  20706333.019   -15326193.291 9 -11916922.96549  20706332.844    20706337.4644
  22266559.838     3514458.746 9   2754644.83749  22266560.001    22266566.3234
  23153922.664    -8546258.705 9  -6629108.79249  23153924.632    23153928.4474
 99  5 18 18  0 30.0000000  0  7 10 08 24 04 05 09 30
  23537581.974    -4213190.170 9  -3258361.61849  23537581.062    23537589.7144
  21363076.937   -12292823.226 9  -9565816.88349  21363076.370    21363082.0814
  20203438.347   -16867172.323 9 -13117560.76249  20203438.640    20203443.5474
  21299154.136     -304439.889 9   -218146.05549  21299154.892    21299159.3274
  20697222.833   -15374067.659 9 -11954227.66749  20697222.661    20697227.2344
  22281032.301     3590510.362 9   2813905.76349  22281032.692    22281037.8814
  23135897.294    -8640984.307 9  -6702920.90749  23135896.972    23135902.0344
 99  5 18 18  1  0.0000000  0  7 10 08 24 04 05 09 30
  23519755.902    -4306865.713 9  -3331355.33349  23519753.304    23519763.8234
  21364939.818   -12283034.141 9  -9558189.04649  21364939.130    21364945.1694
  20202901.678   -16869992.685 9 -13119758.44049  20202901.502    20202906.5954
  21312406.011     -234800.634 9   -163881.73149  21312406.708    21312411.5014
  20688175.995   -15421609.688 9 -11991273.38949  20688175.824    20688180.1814
  22295558.498     3666846.301 9   2873388.24449  22295558.146    22295563.9234
  23117889.828    -8735615.450 9  -6776659.40349  23117890.837    23117894.5734
 99  5 18 18  1 30.0000000  0  7 10 08 24 04 05 09 30
  23501944.283    -4400464.556 9  -3404289.28549  23501943.443    23501953.5124
  21366916.035   -12272649.157 9  -9550096.87649  21366915.242    21366921.4924
  20202459.349   -16872316.672 9 -13121569.32749  20202459.129    20202464.5304
  21325721.178     -164829.496 9   -109358.79549  21325721.810    21325726.0104
  20679196.165   -15468799.006 9 -12028044.27449  20679195.361    20679200.3174
  22310140.845     3743476.992 9   2933100.40849  22310140.861    22310146.5344
  23099902.433    -8830141.783 9  -6850316.22649  23099901.251    23099904.9094
 99  5 18 18  2  0.0000000  0  7 10 08 24 04 05 09 30
  23484147.454    -4493986.770 9  -3477163.56449  23484146.474    23484156.9974
  21369007.516   -12261657.779 9  -9541532.19049  21369007.014    21369012.2334
  20202114.598   -16874127.999 9 -13122980.74349  20202114.367    20202119.9054
  21339100.668      -94520.745 9    -54572.78649  21339100.618    21339105.3804
  20670285.125   -15515626.446 9 -12064533.19149  20670284.570    20670289.5024
  22324778.647     3820399.382 9   2993039.86249  22324777.598    22324784.4514
  23081938.038    -8924546.025 9  -6923877.93249  23081937.207    23081942.5244
 99  5 18 18  2 30.0000000  0  7 10 08 24 04 05 09 30
  23466365.604    -4587429.135 9  -3549975.60449  23466364.734    23466375.7354
  21371217.639   -12250043.616 9  -9532482.21649  21371216.904    21371223.5814
  20201872.350   -16875400.698 9 -13123972.45449  20201872.405    20201877.6184
  21352547.092      -23859.426 9       487.94549  21352546.999    21352551.6274
  20661446.841   -15562071.380 9 -12100724.03149  20661446.538    20661451.2014
  22339473.426     3897622.084 9   3053213.32549  22339473.514    22339479.5114
  23063998.906    -9018818.964 9  -6997337.30149  23063998.496    23064002.4684
 99  5 18 18  3  0.0000000  0  7 10 08 24 04 05 09 30
  23448602.236    -4680777.390 9  -3622714.31649  23448602.031    23448610.1894
  21373546.880   -12237802.562 9  -9522943.73849  21373546.412    21373552.6324
  20201735.981   -16876117.490 9 -13124530.99249  20201736.089    20201741.1094
  21366065.475       47180.842 9     55843.96949  21366065.691    21366070.6194
  20652681.992   -15608131.052 9 -12136614.68549  20652682.226    20652686.0384
  22354228.295     3975158.459 9   3113631.22049  22354228.610    22354234.2044
  23046088.157    -9112939.817 9  -7070678.15449  23046087.755    23046091.2064
 99  5 18 18  3 30.0000000  0  7 10 08 24 04 05 09 30
  23430860.115    -4774013.509 9  -3695365.67549  23430858.364    23430868.2894
  21375994.397   -12224941.153 9  -9512921.88349  21375994.547    21375999.7874
  20201705.084   -16876279.847 9 -13124657.50249  20201704.971    20201710.2024
  21379657.807      118609.727 9    111502.81449  21379658.640    21379662.8334
  20643988.274   -15653817.700 9 -12172214.67549  20643988.304    20643992.6004
  22369042.363     4053005.998 9   3174291.56049  22369042.344    22369047.9964
  23028205.313    -9206913.045 9  -7143903.97749  23028204.925    23028208.2544
 99  5 18 18  4  0.0000000  0  7 10 08 24 04 05 09 30
  23413138.113    -4867139.925 9  -3767931.54549  23413135.923    23413148.6434
  21378559.154   -12211464.157 9  -9502420.35049  21378558.942    21378564.5964
  20201779.468   -16875888.665 9 -13124352.67749  20201779.409    20201784.3404
  21393325.008      190429.853 9    167466.51349  21393325.459    21393329.3544
  20635365.961   -15699128.345 9 -12207521.66049  20635365.554    20635370.3794
  22383916.825     4131171.288 9   3235199.52149  22383916.937    22383923.0924
  23010347.636    -9300754.125 9  -7217026.84449  23010346.499    23010351.5364
 99  5 18 18  4 30.0000000  0  7 10 08 24 04 05 09 30
  23395440.870    -4960139.678 9  -3840398.68949  23395441.303    23395450.5414
  21381239.489   -12197379.841 9  -9491445.59149  21381239.146    21381243.6794
  20201954.435   -16874968.946 9 -13123636.01249  20201954.458    20201959.6934
  21407065.257      262634.943 9    223730.19149  21407065.847    21407069.8534
  20626816.372   -15744056.469 9 -12242530.58149  20626815.593    20626821.0194
  22398853.576     4209664.133 9   3296362.70049  22398853.526    22398859.6214
  22992513.375    -9394472.139 9  -7290053.80749  22992513.434    22992518.0124
 99  5 18 18  5  0.0000000  0  7 10 08 24 04 05 09 30
  23377768.291    -5053011.421 9  -3912766.09249  23377766.079    23377775.6984
  21384034.547   -12182692.161 9  -9480000.66849  21384033.811    21384039.2654
  20202224.892   -16873547.510 9 -13122528.40149  20202225.260    20202229.8164
  21420874.947      335205.280 9    280278.48149  21420875.217    21420879.0714
  20618335.665   -15788622.112 9 -12277257.04849  20618335.303    20618340.6164
  22413849.669     4288469.885 9   3357769.71849  22413849.205    22413855.2584
  22974699.790    -9488081.925 9  -7362996.45249  22974699.437    22974705.7074
 99  5 18 18  5 30.0000000  0  7 10 08 24 04 05 09 30
  23360118.478    -5145758.088 9  -3985036.05449  23360118.407    23360126.6844
  21386943.232   -12167407.238 9  -9468090.36149  21386943.087    21386948.3284
  20202588.145   -16871639.242 9 -13121041.43649  20202588.219    20202593.4484
  21434748.724      408112.091 9    337088.94849  21434748.952    21434753.5124
  20609927.733   -15832806.381 9 -12311686.34449  20609927.504    20609932.3264
  22428902.327     4367571.866 9   3419407.53649  22428902.084    22428908.4604
  22956905.449    -9581591.360 9  -7435860.89749  22956905.495    22956910.9404
 99  5 18 18  6  0.0000000  0  7 10 08 24 04 05 09 30
  23342493.421    -5238379.714 9  -4057208.58649  23342493.218    23342501.6064
  21389966.088   -12151522.865 9  -9455712.95549  21389965.235    21389971.4134
  20203044.638   -16869240.286 9 -13119172.11649  20203044.263    20203050.1334
  21448684.799      481346.662 9    394154.82549  21448684.894    21448690.1434
  20601594.874   -15876596.007 9 -12345808.13549  20601594.473    20601599.2284
  22444009.112     4446958.190 9   3481266.93349  22444009.136    22444015.5694
  22939132.061    -9674991.826 9  -7508640.43349  22939131.490    22939136.5764
 99  5 18 18  6 30.0000000  0  7 10 08 24 04 05 09 30
  23324894.425    -5330864.986 9  -4129274.79849  23324894.412    23324901.2984
  21393103.298   -12135036.456 9  -9442866.43049  21393103.013    21393108.0364
  20203596.012   -16866342.188 9 -13116913.85549  20203595.942    20203601.2574
  21462683.650      554911.747 9    451478.23449  21462683.523    21462688.8904
  20593335.455   -15919999.758 9 -12379629.23149  20593335.251    20593339.6884
  22459165.048     4526603.546 9   3543328.16949  22459165.803    22459171.6144
  22921381.436    -9768272.520 9  -7581326.64549  22921380.808    22921386.0044
 99  5 18 18  7  0.0000000  0  7 10 08 24 04 05 09 30
  23307320.867    -5423215.141 9  -4201235.79449  23307319.528    23307326.8414
  21396355.346   -12117946.388 9  -9429549.50749  21396353.902    21396360.6154
  20204247.297   -16862919.722 9 -13114246.98949  20204247.451    20204252.4404
  21476746.951      628814.624 9    509064.85649  21476746.788    21476751.9684
  20585151.870   -15963005.107 9 -12413139.89649  20585151.696    20585155.9574
  22474367.617     4606492.514 9   3605579.22349  22474368.458    22474373.4644
  22903655.714    -9861420.834 9  -7653909.71349  22903655.189    22903661.1614
 99  5 18 18  7 30.0000000  0  7 10 08 24 04 05 09 30
  23289775.712    -5515415.095 9  -4273079.72849  23289773.066    23289782.8174
  21399722.443   -12100250.876 9  -9415760.81849  21399721.771    21399727.5954
  20205002.364   -16858951.966 9 -13111155.23849  20205002.388    20205007.6854
  21490877.917      703073.956 9    566929.23049  21490877.955    21490882.9534
  20577047.522   -16005593.924 9 -12446325.99549  20577047.137    20577051.7694
  22489619.102     4686638.504 9   3668030.57649  22489618.451    22489624.7424
  22885958.795    -9954417.808 9  -7726374.85349  22885959.220    22885964.3044
 99  5 18 18  8  0.0000000  0  7 10 08 24 04 05 09 30
  23272260.674    -5607454.043 9  -4344798.15749  23272258.711    23272269.0494
  21403207.517   -12081936.159 9  -9401489.63549  21403206.918    21403213.1344
  20205863.094   -16854429.099 9 -13107630.92549  20205863.272    20205868.3164
  21505077.827      777695.863 9    625076.13349  21505078.074    21505082.9134
  20569019.937   -16047779.080 9 -12479197.54449  20569019.204    20569024.3744
  22504920.478     4767048.851 9   3730687.91949  22504919.618    22504926.5244
  22868291.987   -10047258.387 9  -7798718.14549  22868292.451    22868297.1004
 99  5 18 18  8 30.0000000  0  7 10 08 24 04 05 09 30
  23254775.868    -5699335.895 9  -4416394.22649  23254773.975    23254783.5974
  21406811.102   -12062998.733 9  -9386733.22149  21406811.113    21406816.6144
  20206828.328   -16849357.041 9 -13103678.66949  20206828.454    20206833.6734
  21519346.027      852675.068 9    683501.46849  21519346.576    21519351.4324
  20561069.001   -16089561.138 9 -12511754.97749  20561068.528    20561073.3794
  22520274.957     4847737.611 9   3793562.20149  22520275.588    22520280.5154
  22850656.324   -10139935.177 9  -7870933.79249  22850655.870    22850660.3224
 99  5 18 18  9  0.0000000  0  7 10 08 24 04 05 09 30
  23237319.477    -5791070.226 9  -4487875.36149  23237317.930    23237328.8204
  21410533.123   -12043440.106 9  -9371492.76149  21410532.946    21410538.5364
  20207895.068   -16843751.104 9 -13099310.40049  20207895.325    20207900.0804
  21533680.708      928003.669 9    742199.04949  21533681.303    21533686.2274
  20553195.283   -16130937.675 9 -12543996.43249  20553195.199    20553199.9274
  22535685.322     4928718.823 9   3856664.35849  22535685.699    22535692.0924
  22833052.104   -10232445.932 9  -7943020.05449  22833051.427    22833056.5454
 99  5 18 18  9 30.0000000  0  7 10 08 24 04 05 09 30
  23219890.593    -5882658.066 9  -4559242.31649  23219888.476    23219899.0464
  21414373.909   -12023257.251 9  -9355765.88549  21414373.498    21414378.7014
  20209060.508   -16837626.966 9 -13094538.33149  20209060.289    20209065.6274
  21548079.432     1003669.611 9    801159.48349  21548079.765    21548085.1844
  20545394.255   -16171932.561 9 -12575940.50049  20545393.790    20545398.5464
  22551152.406     5009998.465 9   3919999.06249  22551152.472    22551158.3534
  22815478.252   -10324795.357 9  -8014980.63749  22815478.373    22815483.6954
 99  5 18 18 10  0.0000000  0  7 10 08 24 04 05 09 30
  23202488.546    -5974103.530 9  -4630498.31449  23202487.052    23202496.7564
  21418330.883   -12002463.400 9  -9339562.90849  21418331.388    21418336.3724
  20210321.479   -16831000.484 9 -13089374.84049  20210321.755    20210326.4774
  21562539.421     1079657.388 9    860370.69149  21562540.134    21562544.7254
  20537665.211   -16212548.673 9 -12607589.41049  20537664.870    20537669.2424
  22566674.282     5091565.309 9   3983557.55349  22566674.856    22566680.0794
  22797933.060   -10416996.233 9  -8086825.44849  22797932.630    22797939.0604
 99  5 18 18 10 30.0000000  0  7 10 08 24 04 05 09 30
  23185114.659    -6065403.455 9  -4701640.93549  23185114.379    23185122.2394
  21422400.330   -11981079.099 9  -9322899.84349  21422400.081    21422405.0584
  20211675.049   -16823888.080 9 -13083832.70749  20211675.108    20211679.7114
  21577060.048     1155963.552 9    919829.99049  21577060.282    21577065.3224
  20530007.422   -16252790.871 9 -12638946.96549  20530007.062    20530011.4124
  22582247.276     5173401.956 9   4047326.26549  22582247.545    22582253.5814
  22780417.143   -10509042.925 9  -8158550.11449  22780417.405    22780422.3464
 99  5 18 18 11  0.0000000  0  7 10 08 24 04 05 09 30
  23167771.203    -6156545.770 9  -4772660.72549  23167771.206    23167778.2614
  21426577.804   -11959126.062 9  -9305793.61049  21426576.999    21426583.2264
  20213116.011   -16816315.951 9 -13077932.34149  20213115.821    20213120.9754
  21591639.095     1232577.309 9    979528.99349  21591639.549    21591644.5094
  20522416.736   -16292680.081 9 -12670029.46249  20522416.677    20522421.0264
  22597866.106     5255479.288 9   4111282.53649  22597867.092    22597872.1974
  22762927.274   -10600951.215 9  -8230166.90749  22762926.854    22762932.8734
 99  5 18 18 11 30.0000000  0  7 10 08 24 04 05 09 30
  23150456.883    -6247531.815 9  -4843558.74649  23150455.583    23150464.6764
  21430858.791   -11936628.550 9  -9288263.11649  21430858.935    21430864.0294
  20214641.789   -16808297.956 9 -13071684.54949  20214641.225    20214646.4974
  21606271.313     1309470.022 9   1039445.35249  21606271.909    21606276.7294
  20514892.750   -16332219.476 9 -12700839.38249  20514892.515    20514897.1064
  22613527.200     5337778.091 9   4175411.39749  22613527.291    22613533.4104
  22745460.789   -10692736.488 9  -8301687.84749  22745460.405    22745466.3654
 99  5 18 18 12  0.0000000  0  7 10 08 24 04 05 09 30
  23133171.892    -6338362.222 9  -4914335.51449  23133168.890    23133180.1644
  21435241.927   -11913596.075 9  -9270315.77449  21435241.931    21435247.3504
  20216251.512   -16799837.587 9 -13065092.05849  20216251.260    20216256.6984
  21620955.007     1386633.247 9   1099572.50149  21620955.744    21620961.3994
  20507437.971   -16371394.669 9 -12731365.50049  20507437.337    20507441.8664
  22629227.799     5420285.828 9   4239703.06049  22629228.231    22629234.7454
  22728019.303   -10784391.470 9  -8373107.29049  22728019.859    22728025.5104
 99  5 18 18 12 30.0000000  0  7 10 08 24 04 05 09 30
  23115914.933    -6429044.925 9  -4984997.17849  23115914.036    23115922.7924
  21439729.679   -11890014.111 9  -9251940.25149  21439729.734    21439734.7484
  20217947.568   -16790924.791 9 -13058147.02449  20217947.606    20217952.5524
  21635689.085     1464060.444 9   1159905.34449  21635689.644    21635694.3634
  20500052.450   -16410205.459 9 -12761607.67949  20500051.799    20500056.4254
  22644966.614     5502993.495 9   4304150.50349  22644966.646    22644973.2844
  22710604.753   -10875907.033 9  -8444418.09849  22710605.545    22710610.6134
 99  5 18 18 13  0.0000000  0  7 10 08 24 04 05 09 30
  23098685.510    -6519585.716 9  -5055548.22849  23098685.533    23098692.3954
  21444324.843   -11865866.703 9  -9233124.12149  21444324.083    21444329.5454
  20219735.024   -16781531.746 9 -13050827.76549  20219735.089    20219740.2254
  21650473.502     1541752.920 9   1220444.88949  21650473.879    21650479.0184
  20492741.381   -16448625.022 9 -12791544.98749  20492741.300    20492745.9344
  22660746.667     5585916.985 9   4368766.11349  22660747.361    22660751.8644
  22693216.672   -10967282.866 9  -8515620.02449  22693216.323    22693221.4774
 99  5 18 18 13 30.0000000  0  7 10 08 24 04 05 09 30
  23081484.768    -6609977.720 9  -5125983.38349  23081484.221    23081492.2384
  21449031.469   -11841132.238 9  -9213850.54949  21449031.125    21449036.6384
  20221623.841   -16771606.380 9 -13043093.71649  20221623.901    20221628.9824
  21665312.862     1619733.306 9   1281208.78049  21665313.546    21665317.9094
  20485513.019   -16486610.865 9 -12821144.34349  20485512.705    20485517.3874
  22676572.308     5669080.187 9   4433568.51849  22676572.506    22676578.8734
  22675862.831   -11058477.102 9  -8586680.43349  22675862.597    22675867.4004
 99  5 18 18 14  0.0000000  0  7 10 08 24 04 05 09 30
  23064314.940    -6700204.811 9  -5196290.02449  23064313.848    23064323.1034
  21453854.953   -11815785.234 9  -9194099.66949  21453854.006    21453859.7674
  20223617.725   -16761128.129 9 -13034928.85249  20223617.401    20223622.6374
  21680215.400     1698045.660 9   1342231.34649  21680215.749    21680220.4774
  20478369.270   -16524151.803 9 -12850397.01649  20478369.040    20478372.8354
  22692445.479     5752493.317 9   4498565.67749  22692445.287    22692452.4374
  22658549.086   -11149460.579 9  -8657576.61449  22658548.683    22658554.3304
 99  5 18 18 14 30.0000000  0  7 10 08 24 04 05 09 30
  23047179.657    -6790249.668 9  -5266454.66749  23047178.880    23047189.0794
  21458795.588   -11789821.371 9  -9173868.11449  21458795.155    21458801.0314
  20225716.342   -16750099.514 9 -13026335.12449  20225716.428    20225721.3294
  21695183.876     1776706.050 9   1403525.09949  21695183.787    21695189.8294
  20471310.678   -16561244.980 9 -12879300.79549  20471310.037    20471314.3084
  22708365.822     5836155.195 9   4563756.66249  22708364.626    22708372.5924
  22641275.344   -11240234.195 9  -8728309.27149  22641276.111    22641280.8014
 99  5 18 18 15  0.0000000  0  7 10 08 24 04 05 09 30
  23030080.121    -6880107.019 9  -5336473.19649  23030079.798    23030089.3604
  21463850.574   -11763256.863 9  -9153168.52449  21463850.196    21463855.8034
  20227914.511   -16738548.536 9 -13017334.35749  20227914.776    20227919.8074
  21710218.145     1855711.972 9   1465088.10249  21710218.498    21710223.7574
  20464334.969   -16597902.124 9 -12907864.80749  20464334.706    20464338.7354
  22724332.637     5920061.880 9   4629138.41249  22724333.042    22724339.7184
  22624041.751   -11330797.303 9  -8798877.90149  22624042.631    22624047.6254
 99  5 18 18 15 30.0000000  0  7 10 08 24 04 05 09 30
  23013017.741    -6969770.554 9  -5406340.72149  23013016.240    23013025.0564
  21469016.175   -11736111.589 9  -9132016.40549  21469016.399    21469021.6794
  20230205.665   -16726508.877 9 -13007952.81149  20230205.580    20230210.8864
  21725313.900     1935040.864 9   1526902.77949  21725314.518    21725318.2034
  20457435.887   -16634157.138 9 -12936115.46149  20457435.282    20457440.3934
  22740341.997     6004192.319 9   4694694.50549  22740341.089    22740348.9474
  22606844.724   -11421168.836 9  -8869297.24449  22606844.107    22606850.6574
 99  5 18 18 16  0.0000000  0  7 10 08 24 04 05 09 30
  22995992.309    -7059240.129 9  -5476057.13349  22995990.727    22995998.5394
  21474290.102   -11708397.080 9  -9110420.71949  21474290.348    21474295.6004
  20232584.909   -16714006.006 9 -12998210.32049  20232584.793    20232590.1364
  21740465.273     2014660.727 9   1588944.19949  21740465.849    21740470.5044
  20450609.330   -16670030.507 9 -12964068.73149  20450608.858    20450613.6114
  22756389.626     6088524.872 9   4760408.09649  22756390.209    22756395.9054
  22589676.214   -11511388.042 9  -8939597.88249  22589675.923    22589681.3194
 99  5 18 18 16 30.0000000  0  7 10 08 24 04 05 09 30
  22979004.956    -7148508.142 9  -5545616.45549  22979003.917    22979012.1204
  21479671.421   -11680118.909 9  -9088385.81849  21479671.503    21479676.5914
  20235053.737   -16701032.044 9 -12988100.73549  20235053.374    20235058.6454
  21755666.133     2094540.917 9   1651188.44949  21755666.466    21755670.9834
  20443857.422   -16705511.874 9 -12991716.55049  20443857.082    20443862.0084
  22772476.557     6173060.385 9   4826279.83349  22772476.772    22772483.2424
  22572535.419   -11601461.830 9  -9009785.20949  22572535.499    22572540.3374
 99  5 18 18 17  0.0000000  0  7 10 08 24 04 05 09 30
  22962056.583    -7237571.734 9  -5615016.51949  22962057.368    22962062.8964
  21485160.123   -11651276.507 9  -9065911.25449  21485160.103    21485165.1044
  20237615.493   -16687569.524 9 -12977610.47349  20237615.340    20237620.3024
  21770916.139     2174679.916 9   1713634.36749  21770916.008    21770921.4074
  20437184.273   -16740579.327 9 -13019041.84349  20437183.702    20437188.6844
  22788604.955     6257815.469 9   4892322.67449  22788605.247    22788611.9344
  22555425.676   -11691373.727 9  -9079846.40249  22555426.133    22555431.5654
 99  5 18 18 17 30.0000000  0  7 10 08 24 04 05 09 30
  22945148.631    -7326424.122 9  -5684251.98649  22945147.725    22945154.8314
  21490758.111   -11621859.412 9  -9042988.88049  21490757.438    21490763.4554
  20240275.712   -16673589.959 9 -12966717.30849  20240275.699    20240280.7874
  21786217.868     2255092.819 9   1776293.72849  21786217.895    21786223.7434
  20430595.857   -16775201.704 9 -13046020.31649  20430595.673    20430600.0684
  22804776.412     6342796.293 9   4958541.38849  22804777.251    22804783.1594
  22538349.460   -11781111.108 9  -9149771.58249  22538349.985    22538355.4274
 99  5 18 18 18  0.0000000  0  7 10 08 24 04 05 09 30
  22928280.837    -7415064.877 9  -5753322.53449  22928279.512    22928287.3684
  21496469.214   -11591846.856 9  -9019602.49249  21496468.275    21496474.6564
  20243036.147   -16659083.719 9 -12955413.74449  20243035.858    20243041.3704
  21801577.931     2335810.942 9   1839190.90749  21801578.451    21801583.1214
  20424097.208   -16809353.089 9 -13072631.79249  20424096.862    20424101.2744
  22820993.514     6428017.430 9   5024947.38349  22820993.055    22821000.1244
  22521312.247   -11870642.750 9  -9219536.48349  22521312.660    22521318.0574
 99  5 18 18 18 30.0000000  0  7 10 08 24 04 05 09 30
  22911452.166    -7503498.821 9  -5822231.95849  22911451.082    22911459.3724
  21502293.576   -11561239.661 9  -8995752.76949  21502293.482    21502298.9484
  20245891.802   -16644076.909 9 -12943720.13649  20245891.411    20245896.5934
  21816998.570     2416846.057 9   1902335.08849  21816999.446    21817003.0644
  20417686.572   -16843041.357 9 -13098882.39149  20417686.370    20417690.6664
  22837256.688     6513481.193 9   5091542.44249  22837256.856    22837263.0344
  22504316.284   -11959957.253 9  -9289132.17849  22504316.796    22504321.7444
 99  5 18 18 19  0.0000000  0  7 10 08 24 04 05 09 30
  22894660.044    -7591740.543 9  -5890991.62949  22894659.497    22894668.4494
  21508227.777   -11530055.495 9  -8971453.45949  21508227.604    21508232.7574
  20248836.949   -16628599.595 9 -12931659.90049  20248836.932    20248842.3524
  21832478.156     2498191.607 9   1965721.19249  21832479.019    21832482.9044
  20411358.345   -16876296.868 9 -13124795.77449  20411357.391    20411362.5494
  22853562.663     6599169.451 9   5158312.42149  22853563.018    22853569.2344
  22487358.981   -12049067.944 9  -9358569.05649  22487359.335    22487364.9084
 99  5 18 18 19 30.0000000  0  7 10 08 24 04 05 09 30
  22877904.195    -7679794.004 9  -5959604.62849  22877902.897    22877912.2154
  21514269.760   -11498304.493 9  -8946712.45749  21514269.471    21514275.0114
  20251869.171   -16612664.961 9 -12919243.30749  20251869.542    20251874.6834
  21848011.140     2579818.376 9   2029326.42749  21848012.226    21848016.4594
  20405105.757   -16909153.330 9 -13150398.21849  20405104.980    20405110.2014
  22869907.267     6685059.769 9   5225239.84149  22869908.272    22869913.5294
  22470436.275   -12137997.304 9  -9427864.63649  22470437.190    22470441.5354
 99  5 18 18 20  0.0000000  0  7 10 08 24 04 05 09 30
  22861186.996    -7767643.098 9  -6028058.34849  22861185.840    22861195.1804
  21520417.276   -11465998.742 9  -8921539.16649  21520416.686    21520422.6744
  20254986.087   -16596285.976 9 -12906480.46949  20254986.125    20254991.3414
  21863592.625     2661699.146 9   2093129.58949  21863592.860    21863598.2454
  20398925.241   -16941631.815 9 -13175706.12349  20398925.058    20398929.7084
  22886288.026     6771140.901 9   5292315.96449  22886289.262    22886294.2084
  22453547.037   -12226752.830 9  -9497024.76849  22453547.572    22453551.7334
 99  5 18 18 20 30.0000000  0  7 10 08 24 04 05 09 30
  22844511.286    -7855274.327 9  -6096342.31649  22844509.645    22844518.5154
  21526664.238   -11433169.921 9  -8895958.29549  21526664.061    21526669.4874
  20258189.741   -16579450.804 9 -12893362.16049  20258189.647    20258194.7204
  21879216.398     2743802.235 9   2157105.96349  21879217.113    21879222.5264
  20392817.264   -16973730.385 9 -13200718.00149  20392817.087    20392821.8084
  22902702.520     6857397.993 9   5359529.18449  22902702.659    22902710.1714
  22436690.306   -12315336.246 9  -9566050.77249  22436690.512    22436695.3474
 99  5 18 18 21  0.0000000  0  7 10 08 24 04 05 09 30
  22827879.436    -7942672.356 9  -6164444.56249  22827877.669    22827886.6734
  21533011.899   -11399814.197 9  -8869966.85249  21533011.806    21533017.5384
  20261487.093   -16562123.141 9 -12879860.08949  20261487.214    20261492.1944
  21894882.027     2826124.621 9   2221253.21249  21894881.989    21894888.1364
  20386787.685   -17005416.249 9 -13225408.28649  20386787.271    20386791.7574
  22919153.282     6943847.537 9   5426892.34649  22919153.021    22919160.9434
  22419869.128   -12403730.943 9  -9634929.71149  22419868.168    22419874.5104
 99  5 18 18 21 30.0000000  0  7 10 08 24 04 05 09 30
  22811297.367    -8029812.594 9  -6232345.94149  22811296.298    22811304.3244
  21539464.237   -11365907.358 9  -8843545.96849  21539463.670    21539469.6324
  20264883.356   -16544276.091 9 -12865953.30449  20264883.503    20264888.2994
  21910592.326     2908682.367 9   2285583.85649  21910592.343    21910598.3324
  20380843.595   -17036651.967 9 -13249747.80749  20380843.076    20380848.0004
  22935641.749     7030496.749 9   5494411.11549  22935640.946    22935649.1424
  22403089.073   -12491909.614 9  -9703640.31549  22403089.594    22403094.3554
 99  5 18 18 22  0.0000000  0  7 10 08 24 04 05 09 30
  22794765.328    -8116688.908 9  -6300041.69649  22794764.303    22794770.7644
  21546023.132   -11331439.964 9  -8816688.30749  21546021.809    21546028.2984
  20268377.448   -16525914.603 9 -12851645.65449  20268377.075    20268382.5574
  21926352.232     2991500.968 9   2350117.76249  21926352.552    21926357.9944
  20374991.492   -17067404.187 9 -13273710.58049  20374991.187    20374995.9254
  22952170.007     7117353.669 9   5562091.74649  22952169.943    22952178.2854
  22386354.838   -12579849.249 9  -9772164.68149  22386355.838    22386359.9604
 99  5 18 18 22 30.0000000  0  7 10 08 24 04 05 09 30
  22778281.069    -8203312.536 9  -6367540.55649  22778279.915    22778288.1544
  21552692.008   -11296394.631 9  -8789380.29649  21552691.652    21552696.9594
  20271968.646   -16507042.114 9 -12836939.82349  20271968.678    20271973.9464
  21942164.247     3074593.771 9   2414865.36249  21942164.655    21942170.0824
  20369233.677   -17097661.898 9 -13297288.01649  20369233.373    20369238.0094
  22968739.613     7204428.035 9   5629941.80949  22968740.282    22968747.0064
  22369666.026   -12667551.066 9  -9840503.75649  22369666.032    22369670.1644
 99  5 18 18 23  0.0000000  0  8 10 06 08 24 04 05 09 30
  22761842.738    -8289696.458 9  -6434852.61249  22761841.455    22761850.4234
  24263879.886                                    24263880.005    24264038.7824
  21559476.752   -11260740.568 9  -8761597.94749  21559476.975    21559482.3434
  20275653.314   -16487678.779 9 -12821851.51949  20275653.517    20275658.6054
  21958032.440     3157982.509 9   2479843.55049  21958032.191    21958038.6264
  20363568.183   -17127434.584 9 -13320487.51849  20363567.865    20363572.4434
  22985349.669     7291713.048 9   5697956.00449  22985350.553    22985358.0974
  22353020.105   -12755026.577 9  -9908666.46749  22353020.356    22353024.4934
 99  5 18 18 23 30.0000000  0  7 10 08 24 04 05 09 30
  22745448.056    -8375850.779 9  -6501985.74649  22745447.035    22745455.9954
  21566376.490   -11224483.620 9  -8733345.81749  21566375.829    21566381.3754
  20279425.106   -16467857.880 9 -12806406.66449  20279425.326    20279430.3274
  21973956.727     3241664.797 9   2545050.45649  21973957.316    21973962.2204
  20357989.721   -17156749.725 9 -13343330.49249  20357989.057    20357994.1144
  23001994.861     7379182.321 9   5766113.74749  23001996.020    23002002.1364
  22336414.839   -12842287.168 9  -9976661.69549  22336415.331    22336420.7824
 99  5 18 18 24  0.0000000  0  7 10 08 24 04 05 09 30
  22729094.165    -8461791.038 9  -6568952.06749  22729093.926    22729102.0444
  21573384.695   -11187655.307 9  -8704648.47949  21573384.347    21573390.2134
  20283277.645   -16447612.698 9 -12790631.20049  20283277.629    20283282.7974
  21989932.450     3325617.433 9   2610468.05049  21989932.536    21989937.8114
  20352493.080   -17185634.315 9 -13365837.96549  20352492.992    20352497.1934
  23018672.493     7466821.464 9   5834403.86649  23018674.583    23018678.0554
  22319847.715   -12929347.993 9 -10044501.26849  22319847.331    22319852.0034
 99  5 18 18 24 30.0000000  0  7 10 08 24 04 05 09 30
  22712780.959    -8547519.446 9  -6635753.34549  22712781.499    22712788.4714
  21580497.573   -11150276.978 9  -8675522.54349  21580497.163    21580502.0954
  20287210.171   -16426947.419 9 -12774528.38749  20287210.157    20287215.8764
  22005954.813     3409815.145 9   2676076.58149  22005955.304    22005960.4644
  20347073.432   -17214115.119 9 -13388030.80749  20347072.775    20347077.7014
  23035378.569     7554610.167 9   5902810.52849  23035379.349    23035384.6254
  22303315.440   -13016225.102 9 -10112197.69549  22303314.886    22303320.1074
 99  5 18 18 25  0.0000000  0  7 10 08 24 04 05 09 30
  22696509.596    -8633026.903 9  -6702382.46349  22696508.914    22696516.7474
  21587709.432   -11112378.504 9  -8645991.30349  21587708.730    21587714.1844
  20291221.486   -16405867.794 9 -12758102.71649  20291221.170    20291227.0254
  22022020.154     3494238.166 9   2741860.68949  22022020.792    22022025.5754
  20341730.299   -17242193.227 9 -13409909.85949  20341730.083    20341735.0654
  23052109.635     7642531.604 9   5971320.64649  23052108.817    23052114.9484
  22286819.980   -13102908.501 9 -10179743.14349  22286819.676    22286825.6974
 99  5 18 18 25 30.0000000  0  7 10 08 24 04 05 09 30
  22680284.514    -8718287.790 9  -6768819.43549  22680283.636    22680292.0794
  21595014.615   -11073990.498 9  -8616078.61849  21595014.612    21595020.1774
  20295312.918   -16384367.047 9 -12741348.89749  20295312.947    20295318.1314
  22038123.797     3578862.886 9   2807801.99349  22038123.814    22038129.2984
  20336464.925   -17269863.262 9 -13431470.92349  20336464.499    20336469.2984
  23068865.774     7730588.274 9   6039936.13449  23068864.368    23068872.7114
  22270364.098   -13189384.716 9 -10247127.19049  22270364.308    22270368.8644
 99  5 18 18 26  0.0000000  0  7 10 08 24 04 05 09 30
  22664108.007    -8803294.034 9  -6835057.97049  22664107.435    22664115.9604
  21602411.773   -11035118.130 9  -8585788.49049  21602411.901    21602416.9274
  20299489.616   -16362418.938 9 -12724246.48149  20299489.866    20299494.7894
  22054265.694     3663688.342 9   2873899.69849  22054266.049    22054271.5514
  20331280.495   -17297107.567 9 -13452700.26149  20331279.918    20331284.8934
  23085648.691     7818784.160 9   6108660.10149  23085648.908    23085656.2924
  22253949.123   -13275646.477 9 -10314344.13449  22253949.202    22253953.6674
 99  5 18 18 26 30.0000000  0  7 10 08 24 04 05 09 30
  22647981.969    -8888036.066 9  -6901090.61649  22647980.909    22647989.0754
  21609906.781   -10995732.364 9  -8555098.31049  21609906.083    21609911.5544
  20303755.595   -16340001.182 9 -12706778.10749  20303755.133    20303760.5744
  22070449.013     3748732.137 9   2940167.53849  22070448.546    22070454.7884
  20326181.812   -17323900.977 9 -13473578.24249  20326181.557    20326186.2714
  23102461.307     7907133.336 9   6177503.52249  23102460.939    23102468.8184
  22237575.871   -13361688.419 9 -10381389.77749  22237575.377    22237580.3854
 99  5 18 18 27  0.0000000  0  7 10 08 24 04 05 09 30
  22631907.796    -8972506.839 9  -6966911.89349  22631907.446    22631914.2934
  21617502.688   -10955815.629 9  -8523994.41449  21617501.265    21617506.9004
  20308112.558   -16317104.490 9 -12688936.54249  20308112.796    20308118.0484
  22086676.379     3834009.798 9   3006617.61349  22086676.402    22086682.3604
  20321171.664   -17350229.591 9 -13494094.06249  20321171.186    20321176.3014
  23119305.406     7995648.371 9   6246476.16649  23119306.817    23119313.7954
  22221247.637   -13447494.228 9 -10448251.40549  22221247.690    22221252.0524
 99  5 18 18 27 30.0000000  0  7 10 08 24 04 05 09 30
  22615885.026    -9056708.520 9  -7032523.48649  22615885.308    22615891.8524
  21625202.081   -10915354.397 9  -8492466.21649  21625202.184    21625207.7274
  20312562.297   -16293721.297 9 -12670715.87549  20312562.705    20312567.5514
  22102951.249     3919534.495 9   3073260.17549  22102952.614    22102957.5834
  20316251.235   -17376086.411 9 -13514242.24349  20316250.962    20316256.1624
  23136182.297     8084335.185 9   6315582.66249  23136181.925    23136189.3354
  22204964.336   -13533062.188 9 -10514927.70949  22204964.493    22204969.0674
 99  5 18 18 28  0.0000000  0  8 10 06 08 24 04 05 09 30
  22599912.163    -9140647.760 9  -7097930.58049  22599911.107    22599918.4044
  24132793.733                                    24132789.128    24132772.0824
  21633008.513   -10874331.026 9  -8460499.99649  21633008.180    21633014.2324
  20317103.413   -16269857.886 9 -12652121.01149  20317103.782    20317108.9664
  22119274.688     4005312.984 9   3140100.50649  22119275.804    22119279.5914
  20311422.654   -17401460.983 9 -13534014.64149  20311422.565    20311426.9184
  23153092.214     8173198.747 9   6384826.85349  23153092.198    23153100.0574
  22188726.087   -13618394.044 9 -10581420.03749  22188726.684    22188730.3814
 99  5 18 18 28 30.0000000  0  8 10 06 08 24 04 05 09 30
  22583991.821    -9224308.447 9  -7163120.61249  22583990.179    22583999.0614
  24119727.812                                    24119724.802    24119734.1734
  21640921.770   -10832746.402 9  -8428096.45149  21640921.232    21640927.3314
  20321732.820   -16245530.270 9 -12633164.44849  20321732.577    20321738.2214
  22135644.753     4091337.193 9   3207132.30849  22135645.102    22135650.1334
  20306683.636   -17426365.341 9 -13553420.64949  20306683.236    20306688.0014
  23170036.512     8262241.897 9   6454210.99249  23170036.587    23170043.8644
  22172534.459   -13703482.968 9 -10647723.05749  22172534.714    22172538.4184
 99  5 18 18 29  0.0000000  0  8 10 06 08 24 04 05 09 30
  22568124.490    -9307689.879 9  -7228093.04349  22568122.914    22568132.2924
  24106670.172                                    24106668.241    24106681.9444
  21648934.432   -10790638.918 9  -8395285.48249  21648934.505    21648939.3614
  20326449.521   -16220743.615 9 -12613850.18649  20326449.692    20326454.8414
  22152057.663     4177587.201 9   3274340.04949  22152057.330    22152062.6844
  20302032.445   -17450807.398 9 -13572466.41649  20302032.016    20302037.3654
  23187011.883     8351447.923 9   6523722.05249  23187011.226    23187019.0744
  22156389.254   -13788327.198 9 -10713835.44249  22156389.870    22156393.7304
 99  5 18 18 29 30.0000000  0  8 10 06 08 24 04 05 09 30
  22552311.783    -9390783.389 9  -7292841.15449  22552310.121    22552319.0774
  24093618.353     -505010.07959                  24093620.554    24093627.4104
  21657047.338   -10748005.140 9  -8362064.37849  21657047.158    21657053.0554
  20331253.992   -16195496.141 9 -12594176.83849  20331254.046    20331259.0214
  22168511.797     4264055.633 9   3341718.00049  22168511.439    22168518.1744
  20297471.033   -17474777.630 9 -13591144.52549  20297470.823    20297475.5034
  23204017.102     8440812.886 9   6593356.99149  23204016.264    23204024.8664
  22140291.382   -13872922.030 9 -10779753.46049  22140290.926    22140296.1874
 99  5 18 18 30  0.0000000  0  8 10 06 08 24 04 05 09 30
  22536555.961    -9473580.231 9  -7357358.07449  22536555.697    22536562.4454
  24080571.730     -728975.00419   -558436.04149  24080575.025    24080581.8194
  21665262.426   -10704834.759 9  -8328425.16949  21665262.341    21665267.9334
  20336146.564   -16169785.435 9 -12574142.52449  20336145.909    20336151.4214
  22185007.601     4350741.931 9   3409265.71149  22185007.849    22185013.8094
  20293000.128   -17498272.755 9 -13609452.41949  20293000.228    20293004.3564
  23221051.677     8530331.409 9   6663111.58649  23221050.861    23221060.5194
  22124242.066   -13957260.928 9 -10845472.05449  22124242.556    22124246.7944
 99  5 18 18 30 30.0000000  0  8 10 06 08 24 04 05 09 30
  22520857.395    -9556078.206 9  -7421642.10549  22520857.155    22520862.7514
  24067530.515     -797513.072 9   -611842.28649  24067531.535    24067539.4804
  21673578.961   -10661131.391 9  -8294370.64749  21673578.854    21673584.0054
  20341129.280   -16143600.466 9 -12553738.68049  20341129.569    20341134.6484
  22201545.147     4437645.583 9   3476982.78949  22201546.469    22201550.8324
  20288621.144   -17521284.977 9 -13627384.04149  20288620.740    20288625.2994
  23238113.040     8619989.814 9   6732975.16649  23238114.028    23238120.6164
  22108242.194   -14041339.964 9 -10910988.16149  22108242.092    22108247.0344
 99  5 18 18 31  0.0000000  0  8 10 06 08 24 04 05 09 30
  22505214.432    -9638282.407 9  -7485697.21149  22505213.715    22505220.2454
  24054496.649     -866006.438 9   -665213.62549  24054497.488    24054504.5784
  21681999.025   -10616884.154 9  -8259892.34449  21681998.885    21682004.3664
  20346204.294   -16116931.538 9 -12532957.70449  20346204.486    20346208.7334
  22218126.985     4524782.794 9   3544881.86549  22218127.001    22218132.9724
  20284338.188   -17543791.621 9 -13644921.69449  20284338.175    20284342.8264
  23255201.806     8709790.453 9   6802949.53949  23255203.428    23255208.4154
  22092292.773   -14125153.854 9 -10976297.66149  22092292.744    22092297.4104
 99  5 18 18 31 30.0000000  0  8 10 06 08 24 04 05 09 30
  22489629.465    -9720181.632 9  -7549514.67149  22489628.434    22489636.6804
  24041471.110     -934456.769 9   -718551.46149  24041471.895    24041479.8824
  21690526.218   -10572074.600 9  -8224975.85649  21690525.881    21690531.9244
  20351368.226   -16089795.361 9 -12511812.64549  20351368.351    20351373.7164
  22234755.710     4612167.973 9   3612974.15249  22234755.709    22234761.4054
  20280151.480   -17565793.290 9 -13662065.86449  20280150.824    20280155.5334
  23272319.508     8799741.427 9   6873041.07149  23272320.798    23272325.8404
  22076395.103   -14208696.477 9 -11041395.78349  22076396.159    22076400.5634
 99  5 18 18 32  0.0000000  0  8 10 06 08 24 04 05 09 30
  22474101.688    -9801781.088 9  -7613098.52849  22474100.864    22474108.3524
  24028454.976    -1002859.579 9   -771852.28949  24028455.956    24028462.2664
  21699154.123   -10526734.170 9  -8189645.71449  21699153.639    21699160.7324
  20356619.337   -16062200.435 9 -12490310.12449  20356619.366    20356624.9304
  22251430.378     4699795.867 9   3681255.57649  22251430.795    22251437.0924
  20276059.885   -17587294.247 9 -13678819.87049  20276059.166    20276063.8364
  23289464.198     8889834.921 9   6943243.68649  23289465.718    23289471.9384
  22060546.505   -14291982.054 9 -11106293.60249  22060546.761    22060551.9634
 99  5 18 18 32 30.0000000  0  8 10 06 08 24 04 05 09 30
  22458631.507    -9883077.838 9  -7676446.53649  22458630.733    22458637.2814
  24015449.704    -1071204.493 9   -825107.99449  24015448.531    24015457.1584
  21707879.623   -10480881.641 9  -8153916.51949  21707879.398    21707886.0824
  20361955.445   -16034158.783 9 -12468459.50249  20361955.342    20361960.6684
  22268149.937     4787656.771 9   3749718.54049  22268150.760    22268156.6824
  20272060.955   -17608308.001 9 -13695194.22249  20272060.445    20272065.4134
  23306637.278     8980078.475 9   7013563.22349  23306637.710    23306645.1404
  22044746.809   -14375009.725 9 -11170990.47049  22044746.470    22044751.3114
 99  5 18 18 33  0.0000000  0  8 10 06 08 24 04 05 09 30
  22443217.755    -9964076.456 9  -7739562.22449  22443217.144    22443223.5974
  24002452.957    -1139503.994 9   -878328.33849  24002454.177    24002459.3524
  21716699.184   -10434535.137 9  -8117802.40249  21716699.022    21716705.2274
  20367372.220   -16005693.288 9 -12446278.60749  20367372.262    20367378.0324
  22284911.163     4875736.656 9   3818352.15749  22284912.396    22284917.0304
  20268149.793   -17628861.699 9 -13711210.10949  20268149.412    20268154.1344
  23323837.971     9070468.456 9   7083996.86149  23323837.703    23323844.5294
  22028995.539   -14457783.288 9 -11235489.32449  22028994.984    22028999.3704
 99  5 18 18 33 30.0000000  0  8 10 06 08 24 04 05 09 30
  22427860.610   -10044777.727 9  -7802446.24649  22427860.155    22427868.0944
  23989462.776    -1207768.049 9   -931521.03449  23989463.330    23989469.3784
  21725611.569   -10387700.876 9  -8081308.24049  21725612.092    21725616.5464
  20372867.298   -15976816.276 9 -12423777.06249  20372867.158    20372873.2314
  22301708.845     4964009.054 9   3887135.78849  22301708.778    22301715.1124
  20264323.124   -17648971.313 9 -13726879.95349  20264323.011    20264327.5924
  23341061.968     9160982.297 9   7154527.00449  23341060.510    23341069.3954
  22013290.273   -14540313.614 9 -11299798.64449  22013289.877    22013295.4994
 99  5 18 18 34  0.0000000  0  8 10 06 08 24 04 05 09 30
  22412558.852   -10125188.742 9  -7865104.08149  22412558.179    22412566.0804
  23976480.496    -1275991.183 9   -984681.85349  23976479.798    23976486.7694
  21734616.337   -10340381.457 9  -8044436.01949  21734615.819    21734621.7444
  20378443.524   -15947513.321 9 -12400943.61649  20378444.137    20378448.8054
  22318539.485     5052455.814 9   3956055.28649  22318539.367    22318545.3034
  20260578.861   -17668647.920 9 -13742212.38349  20260578.333    20260583.5374
  23358305.893     9251603.144 9   7225140.52849  23358306.281    23358314.4444
  21997631.389   -14622600.962 9 -11363918.63649  21997631.597    21997636.8714
 99  5 18 18 34 30.0000000  0  8 10 06 08 24 04 05 09 30
  22397311.416   -10205314.257 9  -7927539.45149  22397311.154    22397317.3814
  23963502.949    -1344185.960 9  -1037820.59649  23963502.442    23963509.7514
  21743716.346   -10292559.694 9  -8007172.35749  21743716.079    21743721.3804
  20384098.049   -15917799.663 9 -12377790.11849  20384098.192    20384103.4284
  22335403.181     5141074.657 9   4025108.86949  22335403.472    22335409.0714
  20256915.288   -17687899.315 9 -13757213.47249  20256915.139    20256920.1164
  23375570.408     9342326.833 9   7295834.16349  23375572.468    23375579.1754
  21982021.445   -14704631.837 9 -11427838.77349  21982021.493    21982026.7734
 99  5 18 18 35  0.0000000  0  8 10 06 08 24 04 05 09 30
  22382116.896   -10285161.735 9  -7989758.16349  22382115.814    22382122.6544
  23950530.393    -1412358.087 9  -1090941.65149  23950530.453    23950536.9164
  21752911.929   -10244236.263 9  -7969517.78649  21752911.253    21752917.1394
  20389830.139   -15887677.570 9 -12354318.38449  20389829.805    20389835.6364
  22352299.444     5229864.043 9   4094295.34249  22352299.895    22352305.8974
  20253333.943   -17706720.084 9 -13771879.02649  20253333.609    20253338.3224
  23392849.443     9433125.326 9   7366586.11049  23392848.908    23392856.3554
  21966459.238   -14786411.793 9 -11491563.37649  21966458.877    21966464.3494
 99  5 18 18 35 30.0000000  0  8 10 06 08 24 04 05 09 30
  22366976.589   -10364723.168 9  -8051753.99149  22366975.065    22366983.3254
  23937562.439    -1480505.434 9  -1144043.43849  23937562.780    23937568.4484
  21762202.890   -10195411.280 9  -7931472.39349  21762202.781    21762209.7374
  20395640.850   -15857142.582 9 -12330524.91049  20395641.071    20395646.1484
  22369229.224     5318831.033 9   4163620.20849  22369229.265    22369235.6744
  20249837.468   -17725093.928 9 -13786196.31849  20249837.189    20249842.2054
  23410140.815     9523993.413 9   7437392.27649  23410141.866    23410148.4364
  21950946.587   -14867930.495 9 -11555084.40749  21950945.996    21950951.6214
 99  5 18 18 36  0.0000000  0  8 10 06 08 24 04 05 09 30
  22351891.705   -10443993.480 9  -8113522.97549  22351891.248    22351898.7354
  23924598.914    -1548631.100 9  -1197128.30049  23924598.945    23924604.7774
  21771586.044   -10146103.817 9  -7893051.05949  21771585.595    21771591.7644
  20401529.605   -15826196.845 9 -12306411.37449  20401529.655    20401534.6854
  22386193.504     5407978.132 9   4233085.41449  22386194.010    22386199.1304
  20246428.262   -17743009.363 9 -13800156.40949  20246427.920    20246433.0484
  23427447.834     9614940.551 9   7508260.03749  23427449.274    23427454.0764
  21935486.908   -14949171.365 9 -11618388.95949  21935487.138    21935492.2844
 99  5 18 18 36 30.0000000  0  8 10 06 08 24 04 05 09 30
  22336865.160   -10522959.474 9  -8175054.82549  22336863.971    22336871.8854
  23911637.557    -1616742.885 9  -1250202.36749  23911636.728    23911643.3224
  21781058.857   -10096322.935 9  -7854260.81249  21781058.137    21781064.8294
  20407495.176   -15794847.637 9 -12281983.43249  20407495.135    20407500.2014
  22403192.447     5497308.153 9   4302693.14549  22403193.622    22403198.6714
  20243109.662   -17760448.922 9 -13813745.68349  20243109.577    20243114.2674
  23444770.311     9705969.688 9   7579191.68949  23444769.574    23444776.5864
  21920081.173   -15030129.375 9 -11681473.10349  21920082.183    21920086.8434
 99  5 18 18 37  0.0000000  0  8 10 06 08 24 04 05 09 30
  22321900.005   -10601602.360 9  -8236334.90649  22321899.620    22321906.0314
  23898680.781    -1684831.210 9  -1303258.18949  23898680.987    23898688.0504
  21790622.026   -10046068.064 9  -7815101.20049  21790621.966    21790628.7294
  20413540.782   -15763077.687 9 -12257227.64549  20413540.780    20413545.8474
  22420226.201     5586819.906 9   4372442.50149  22420227.440    22420231.9854
  20239883.393   -17777403.255 9 -13826956.87449  20239882.971    20239887.6044
  23462108.464     9797083.458 9   7650189.30549  23462107.831    23462116.6744
  21904729.436   -15110803.845 9 -11744336.31249  21904729.661    21904734.5274
 99  5 18 18 37 30.0000000  0  8 10 06 08 24 04 05 09 30
  22306997.815   -10679914.056 9  -8297356.91649  22306995.828    22307004.7504
  23885729.513    -1752890.342 9  -1356291.21449  23885729.354    23885735.6734
  21800275.094    -9995341.278 9  -7775573.90549  21800275.523    21800280.9014
  20419666.970   -15730884.174 9 -12232141.81349  20419667.129    20419672.1954
  22437293.726     5676508.954 9   4442329.98749  22437294.294    22437298.5854
  20236751.306   -17793862.245 9 -13839782.07849  20236751.219    20236755.7614
  23479467.440     9888305.164 9   7721271.01949  23479467.583    23479476.3174
  21889431.112   -15191196.602 9 -11806979.98949  21889431.012    21889435.6474
 99  5 18 18 38  0.0000000  0  8 10 06 08 24 04 05 09 30
  22292161.161   -10757880.281 9  -8358109.75449  22292160.658    22292167.8304
  23872785.226    -1820912.598 9  -1409295.49249  23872784.165    23872792.9464
  21810021.040    -9944127.471 9  -7735667.09949  21810021.686    21810026.9364
  20425876.609   -15698253.149 9 -12206715.05349  20425876.940    20425882.0044
  22454392.988     5766367.970 9   4512349.94549  22454392.837    22454398.4654
  20233714.971   -17809819.326 9 -13852216.18049  20233715.340    20233719.6674
  23496848.946     9979643.836 9   7792443.87949  23496849.370    23496858.8584
  21874187.242   -15271302.420 9 -11869400.09149  21874188.185    21874191.9734
 99  5 18 18 38 30.0000000  0  8 10 06 08 24 04 05 09 30
  22277391.443   -10835496.044 9  -8418589.49149  22277390.064    22277397.8134
  23859849.337    -1888889.981 9  -1462264.81449  23859849.560    23859856.1444
  21819863.778    -9892404.709 9  -7695363.70749  21819863.813    21819869.3074
  20432171.118   -15665175.846 9 -12180940.55549  20432170.992    20432176.4254
  22471526.491     5856404.969 9   4582508.57549  22471527.086    22471531.8894
  20230773.526   -17825277.059 9 -13864261.17949  20230773.117    20230777.9944
  23514251.586    10071093.786 9   7863703.44649  23514251.872    23514261.2574
  21858998.081   -15351122.605 9 -11931597.63149  21858998.690    21859003.1424
 99  5 18 18 39  0.0000000  0  8 10 06 08 24 04 05 09 30
  22262688.378   -10912760.718 9  -8478795.63949  22262687.072    22262693.9404
  23846923.710    -1956814.764 9  -1515193.19049  23846924.338    23846928.8144
  21829802.845    -9840174.961 9  -7654665.26149  21829802.442    21829808.0094
  20438549.355   -15631657.503 9 -12154822.39149  20438549.017    20438554.6524
  22488693.668     5946618.849 9   4652805.05149  22488694.161    22488699.0704
  20227926.719   -17840236.915 9 -13875918.23049  20227926.648    20227931.1144
  23531673.906    10162646.661 9   7935043.18949  23531674.970    23531682.6074
  21843862.550   -15430660.871 9 -11993575.47549  21843862.918    21843868.2424
 99  5 18 18 39 30.0000000  0  8 10 06 08 24 04 05 09 30
  22248053.253   -10989667.231 9  -8538722.70149  22248051.744    22248059.7954
  23834008.094    -2024687.570 9  -1568081.02449  23834008.559    23834013.8694
  21839835.092    -9787455.082 9  -7613584.87949  21839835.506    21839839.9434
  20445010.366   -15597703.807 9 -12128364.97949  20445010.384    20445016.0324
  22505893.095     6037002.196 9   4723233.57449  22505893.104    22505899.1364
  20225175.888   -17854692.553 9 -13887182.37849  20225175.872    20225180.1684
  23549113.834    10254292.391 9   8006455.29149  23549112.878    23549121.9794
  21828782.838   -15509904.747 9 -12055323.91049  21828782.788    21828787.7894
 99  5 18 18 40  0.0000000  0  8 10 06 08 24 04 05 09 30
  22233489.452   -11066198.821 9  -8598357.63949  22233489.026    22233496.3544
  23821101.268    -2092513.028 9  -1620931.95749  23821100.725    23821107.1054
  21849960.064    -9734247.647 9  -7572124.61249  21849959.348    21849965.1244
  20451553.613   -15563319.080 9 -12101571.70549  20451553.744    20451558.8994
  22523125.154     6127558.720 9   4793797.03749  22523125.565    22523131.2564
  20222519.230   -17868653.881 9 -13898061.34749  20222519.201    20222523.4194
  23566567.917    10346015.271 9   8077927.53049  23566567.845    23566575.8924
  21813763.071   -15588834.701 9 -12116827.74749  21813763.965    21813767.6014
 99  5 18 18 40 30.0000000  0  8 10 06 08 24 04 05 09 30
  22218996.565   -11142359.506 9  -8657703.56749  22218996.849    22219003.5524
  23808201.616    -2160301.010 9  -1673753.68849  23808200.386    23808208.7884
  21860172.969    -9680577.192 9  -7530303.54449  21860172.348    21860179.7024
  20458174.124   -15528528.601 9 -12074462.26049  20458174.211    20458179.6354
  22540390.405     6218287.948 9   4864495.07049  22540391.332    22540396.3914
  20219954.103   -17882134.215 9 -13908565.51849  20219953.757    20219958.3724
  23584035.554    10437807.523 9   8149453.81249  23584036.152    23584043.2314
  21798801.392   -15667459.809 9 -12178094.03749  21798801.294    21798805.6984
 99  5 18 18 41  0.0000000  0  8 10 06 08 24 04 05 09 30
  22204573.755   -11218153.584 9  -8716763.81949  22204573.264    22204579.7764
  23795305.362    -2228071.047 9  -1726561.48149  23795305.083    23795312.6904
  21870468.654    -9626473.829 9  -7488145.12749  21870468.600    21870474.5334
  20464868.096   -15493350.970 9 -12047051.14049  20464867.767    20464873.4024
  22557686.005     6309175.387 9   4935316.38449  22557687.678    22557692.1364
  20217479.474   -17895137.915 9 -13918698.28749  20217478.971    20217484.0154
  23601516.892    10529673.340 9   8221037.42949  23601515.970    23601523.6344
  21783896.159   -15745787.636 9 -12239128.69849  21783895.853    21783899.4804
 99  5 18 18 41 30.0000000  0  8 10 06 08 24 04 05 09 30
  22190219.044   -11293586.703 9  -8775542.81449  22190217.822    22190225.8454
  23782409.290    -2295839.197 9  -1779367.75849  23782407.982    23782415.9854
  21880846.168    -9571941.220 9  -7445652.24049  21880845.826    21880851.8604
  20471634.037   -15457795.204 9 -12019345.36549  20471634.053    20471639.6774
  22575010.754     6400216.167 9   5006257.18649  22575010.975    22575015.7954
  20215094.261   -17907672.052 9 -13928465.15649  20215093.972    20215098.7074
  23619012.766    10621616.440 9   8292681.26849  23619012.698    23619021.4624
  21769047.821   -15823815.606 9 -12299929.68249  21769048.182    21769051.7444
 99  5 18 18 42  0.0000000  0  8 10 06 08 24 04 05 09 30
  22175929.815   -11368676.221 9  -8834054.08349  22175928.034    22175936.9084
  23769510.375    -2363620.714 9  -1832184.48149  23769510.101    23769517.2124
  21891306.410    -9516973.196 9  -7402820.08049  21891305.674    21891311.6744
  20478470.342   -15421870.438 9 -11991352.05649  20478470.790    20478475.7604
  22592365.999     6491417.786 9   5077323.32649  22592366.230    22592371.6334
  20212796.508   -17919746.400 9 -13937873.74849  20212795.763    20212801.1184
  23636524.397    10713641.159 9   8364388.70849  23636525.164    23636533.6484
  21754254.601   -15901553.477 9 -12360504.62349  21754255.282    21754259.4064
 99  5 18 18 42 30.0000000  0  8 10 06 08 24 04 05 09 30
  22161701.415   -11443445.205 9  -8892315.57149  22161700.634    22161708.1634
  23756609.643    -2431416.255 9  -1885012.14449  23756608.592    23756615.6954
  21901848.788    -9461572.437 9  -7359650.71249  21901848.326    21901854.0374
  20485377.570   -15385573.305 9 -11963068.59249  20485377.348    20485382.8424
  22609750.765     6582775.132 9   5148510.80649  22609751.735    22609756.2914
  20210589.938   -17931341.823 9 -13946909.16149  20210589.740    20210594.5974
  23654051.926    10805747.018 9   8436159.35449  23654052.500    23654060.6644
  21739513.867   -15979015.730 9 -12420864.80249  21739514.877    21739518.7374
 99  5 18 18 43  0.0000000  0  8 10 06 08 24 04 05 09 30
  22147533.818   -11517896.036 9  -8950329.15449  22147533.162    22147540.0884
  23743708.557    -2499210.194 9  -1937838.54649  23743708.523    23743715.0664
  21912476.287    -9405724.617 9  -7316133.01249  21912475.639    21912481.9084
  20492359.124   -15348884.606 9 -11934480.02149  20492359.455    20492364.9434
  22627167.850     6674301.550 9   5219830.01049  22627168.807    22627173.8704
  20208479.509   -17942432.916 9 -13955551.59949  20208479.501    20208483.7524
  23671594.885    10897933.649 9   8507992.93449  23671595.815    23671604.2264
  21724829.416   -16056183.853 9 -12480995.77949  21724829.513    21724833.9354
 99  5 18 18 43 30.0000000  0  8 10 06 08 24 04 05 09 30
  22133428.558   -11592019.081 9  -9008087.31349  22133427.837    22133435.3494
  23730814.253    -2566971.298 9  -1990639.36049  23730814.179    23730820.4044
  21923192.768    -9349409.417 9  -7272251.09349  21923192.350    21923197.9324
  20499418.797   -15311786.533 9 -11905572.45749  20499419.177    20499423.9774
  22644617.305     6765998.637 9   5291282.20949  22644617.118    22644622.5714
  20206466.742   -17953010.168 9 -13963793.62549  20206466.484    20206471.3094
  23689150.931    10990189.984 9   8579880.81049  23689152.021    23689159.8004
  21710202.344   -16133049.946 9 -12540891.41749  21710203.269    21710207.1234
 99  5 18 18 44  0.0000000  0  8 10 06 08 24 04 05 09 30
  22119387.882   -11665804.027 9  -9065582.01249  22119387.357    22119393.6284
  23717931.680    -2634671.033 9  -2043392.30949  23717930.988    23717938.9854
  21933999.098    -9292620.896 9  -7228000.34249  21933998.669    21934005.7624
  20506559.625   -15274261.688 9 -11876332.33849  20506559.664    20506564.5244
  22662098.100     6857861.390 9   5362863.53049  22662097.536    22662104.6414
  20204555.460   -17963054.225 9 -13971620.17549  20204555.427    20204559.8954
  23706720.589    11082518.955 9   8651825.31749  23706721.418    23706729.6584
  21695634.523   -16209605.397 9 -12600544.99749  21695634.825    21695639.4514
 99  5 18 18 44 30.0000000  0  8 10 06 08 24 04 05 09 30
  22105417.084   -11739221.254 9  -9122790.18049  22105416.818    22105423.9604
  23705066.397    -2702278.157 9  -2096073.12249  23705065.545    23705073.2544
  21944896.811    -9235354.107 9  -7183376.93149  21944897.204    21944902.6444
  20513783.315   -15236300.907 9 -11846752.52649  20513783.283    20513788.6444
  22679609.374     6949883.082 9   5434568.67949  22679610.123    22679614.9244
  20202748.937   -17972547.911 9 -13979017.86749  20202748.458    20202753.3264
  23724303.578    11174918.100 9   8723824.48449  23724304.066    23724311.4364
  21681128.189   -16285835.868 9 -12659945.33849  21681127.778    21681133.2744
 99  5 18 18 45  0.0000000  0  8 10 06 08 24 04 05 09 30
  22091521.135   -11812245.248 9  -9179691.94449  22091521.108    22091527.9364
  23692218.401    -2769795.083 9  -2148683.65849  23692217.399    23692224.7364
  21955887.221    -9177600.413 9  -7138374.12649  21955886.336    21955892.7624
  20521089.396   -15197906.859 9 -11816835.10649  20521089.405    20521094.6764
  22697150.291     7042060.445 9   5506395.11549  22697150.080    22697155.5724
  20201043.977   -17981507.464 9 -13985999.35449  20201043.778    20201048.4934
  23741898.701    11267381.485 9   8795873.75249  23741897.596    23741907.8084
  21666687.357   -16361722.905 9 -12719078.07649  21666687.944    21666692.1134
 99  5 18 18 45 30.0000000  0  8 10 06 08 24 04 05 09 30
  22077704.021   -11884855.825 9  -9236271.56149  22077702.954    22077711.2964
  23679384.112    -2837239.150 9  -2201237.44349  23679383.434    23679390.8894
  21966970.125    -9119358.677 9  -7092991.01049  21966968.674    21966975.5714
  20528475.600   -15159092.041 9 -11786589.80649  20528475.422    20528481.1824
  22714716.198     7134370.989 9   5578325.34949  22714716.239    22714721.9124
  20199437.657   -17989948.987 9 -13992577.18049  20199437.341    20199442.1974
  23759505.378    11359905.943 9   8867970.57549  23759505.666    23759513.0764
  21652310.675   -16437273.441 9 -12777948.61249  21652311.097    21652315.0884
 99  5 18 18 46  0.0000000  0  8 10 06 08 24 04 05 09 30
  22063966.122   -11957048.443 9  -9292525.50149  22063965.205    22063972.5084
  23666558.638    -2904636.813 9  -2253755.09149  23666559.782    23666564.6454
  21978143.531    -9060642.320 9  -7047238.06549  21978143.768    21978149.6074
  20535938.317   -15119874.720 9 -11756030.88249  20535938.216    20535943.9164
  22732307.224     7226812.334 9   5650357.51749  22732308.061    22732313.4284
  20197929.085   -17997876.725 9 -13998754.65749  20197929.175    20197933.5994
  23777123.064    11452486.920 9   8940111.44049  23777123.810    23777131.5944
  21637999.051   -16512481.325 9 -12836552.14749  21637998.975    21638003.1494
 99  5 18 18 46 30.0000000  0  8 10 06 08 24 04 05 09 30
  22050306.981   -12028826.708 9  -9348456.56449  22050306.391    22050313.9914
  23653736.942    -2972013.877 9  -2306256.66449  23653736.099    23653741.9574
  21989405.012    -9001462.315 9  -7001123.84549  21989405.202    21989410.9474
  20543474.911   -15080269.440 9 -11725169.64849  20543475.088    20543480.3294
  22749924.798     7319392.442 9   5722497.78549  22749925.964    22749930.5844
  20196514.676   -18005309.650 9 -14004546.56549  20196514.364    20196519.0244
  23794748.791    11545109.938 9   9012285.08449  23794749.298    23794758.3194
  21623753.313   -16587342.770 9 -12894885.71849  21623753.107    21623757.7534
 99  5 18 18 47  0.0000000  0  8 10 06 08 24 04 05 09 30
  22036724.189   -12100204.176 9  -9404075.32749  22036724.113    22036730.5694
  23640914.914    -3039394.191 9  -2358760.77049  23640915.595    23640921.2564
  22000752.040    -8941833.799 9  -6954660.12849  22000751.387    22000757.5974
  20551082.646   -15040291.001 9 -11694017.63649  20551083.011    20551087.7314
  22767568.260     7412108.552 9   5794744.03649  22767568.031    22767574.6214
  20195192.564   -18012257.595 9 -14009960.56049  20195192.429    20195196.8404
  23812380.972    11637766.673 9   9084484.95449  23812381.531    23812391.5724
  21609571.707   -16661867.258 9 -12952956.71649  21609572.115    21609577.3244
 99  5 18 18 47 30.0000000  0  8 10 06 08 24 04 05 09 30
  22023215.584   -12171192.388 9  -9459390.76349  22023215.285    22023220.8154
  23628095.653    -3106761.173 9  -2411254.43449  23628095.090    23628103.6834
  22012179.898    -8881779.676 9  -6907864.78649  22012179.565    22012186.3924
  20558761.512   -14999939.036 9 -11662574.56949  20558761.775    20558766.4734
  22785235.638     7504952.088 9   5867089.57349  22785234.830    22785241.9244
  20193964.985   -18018709.242 9 -14014987.83449  20193964.839    20193969.3544
  23830020.077    11730459.129 9   9156712.70049  23830019.851    23830029.7664
  21595452.497   -16736064.283 9 -13010772.58049  21595453.209    21595457.1434
 99  5 18 18 48  0.0000000  0  8 10 06 08 24 04 05 09 30
  22009778.213   -12241806.867 9  -9514414.98449  22009776.549    22009783.8244
  23615281.563    -3174100.394 9  -2463726.55649  23615280.941    23615289.0734
  22023686.298    -8821312.814 9  -6860747.82149  22023685.690    22023692.9164
  20566512.321   -14959208.393 9 -11630836.43249  20566512.640    20566517.8664
  22802929.303     7597934.579 9   5939543.37949  22802929.390    22802936.5204
  20192834.496   -18024650.111 9 -14019617.09749  20192834.801    20192839.0294
  23847666.491    11823193.580 9   9228973.18249  23847665.874    23847677.2814
  21581396.501   -16809929.316 9 -13068329.73249  21581396.450    21581400.9744
 99  5 18 18 48 30.0000000  0  8 10 06 08 24 04 05 09 30
  21996411.418   -12312050.087 9  -9569149.91949  21996410.872    21996416.9054
  23602475.727    -3241393.797 9  -2516162.98249  23602473.957    23602482.2294
  22035271.893    -8760430.043 9  -6813306.76849  22035271.619    22035278.0714
  20574336.532   -14918091.929 9 -11598797.64949  20574336.473    20574342.0664
  22820650.076     7691057.303 9   6012106.46749  22820651.712    22820657.2844
  20191802.201   -18030075.139 9 -14023844.40149  20191801.447    20191806.7274
  23865321.881    11915973.562 9   9301269.11449  23865322.691    23865332.6284
  21567403.073   -16883465.023 9 -13125630.25149  21567402.948    21567407.5874
 99  5 18 18 49  0.0000000  0  8 10 06 08 24 04 05 09 30
  21983119.391   -12381900.821 9  -9623579.00249  21983118.374    21983125.1724
  23589681.027    -3308630.191 9  -2568554.96749  23589680.854    23589687.6394
  22046937.189    -8699128.635 9  -6765539.48049  22046937.233    22046943.6194
  20582233.138   -14876595.276 9 -11566462.61749  20582232.797    20582238.3054
  22838395.519     7784307.972 9   6084769.26849  22838395.558    22838401.3934
  20190869.601   -18034975.488 9 -14027662.87349  20190868.882    20190873.7094
  23882987.343    12008805.388 9   9373605.40749  23882986.942    23882996.3654
  21553470.073   -16956683.220 9 -13182683.36249  21553470.303    21553474.9614
 99  5 18 18 49 30.0000000  0  8 10 06 08 24 04 05 09 30
  21969903.176   -12451352.144 9  -9677696.86049  21969902.053    21969909.6104
  23576898.158    -3375805.999 9  -2620899.72049  23576898.813    23576902.1964
  22058681.317    -8637412.913 9  -6717449.37249  22058680.853    22058687.5104
  20590200.393   -14834727.091 9 -11533838.07949  20590200.771    20590205.3844
  22856165.576     7877690.609 9   6157534.90449  22856164.467    22856171.1814
  20190035.210   -18039359.744 9 -14031079.18649  20190034.980    20190039.9084
  23900663.870    12101695.596 9   9445987.21549  23900665.044    23900674.4584
  21539597.636   -17029583.095 9 -13239488.45549  21539598.396    21539602.4314
 99  5 18 18 50  0.0000000  0  8 10 06 08 24 04 05 09 30
  21956764.662   -12520395.697 9  -9731496.98849  21956763.649    21956771.0224
  23564121.764    -3442947.175 9  -2673217.45049  23564120.579    23564128.9804
  22070502.996    -8575290.186 9  -6669042.14149  22070503.169    22070509.4024
  20598233.341   -14792513.684 9 -11500944.54249  20598233.710    20598238.4834
  22873961.000     7971209.320 9   6230406.55049  22873960.746    22873969.3964
  20189296.660   -18043241.219 9 -14034103.73149  20189296.261    20189301.0924
  23918348.267    12194627.557 9   9518401.55449  23918348.362    23918360.2234
  21525786.274   -17102161.918 9 -13296043.36949  21525786.118    21525791.0724
 99  5 18 18 50 30.0000000  0  8 10 06 08 24 04 05 09 30
  21943704.058   -12589029.198 9  -9784977.60049  21943702.891    21943710.7504
  23551349.133    -3510067.919 9  -2725519.22349  23551349.180    23551355.7054
  22082399.688    -8512773.452 9  -6620327.86649  22082398.783    22082405.8524
  20606330.002   -14749966.144 9 -11467790.64049  20606329.995    20606335.5664
  22891780.369     8064848.596 9   6303372.10549  22891781.789    22891787.2234
  20188649.386   -18046642.418 9 -14036754.03449  20188648.709    20188653.7884
  23936034.680    12287569.437 9   9590823.60549  23936035.847    23936044.6934
  21512035.408   -17174423.460 9 -13352351.03449  21512035.628    21512039.9644
 99  5 18 18 51  0.0000000  0  8 10 06 08 24 04 05 09 30
  21930720.930   -12657255.030 9  -9838140.53849  21930720.408    21930727.5534
  23538576.696    -3577187.450 9  -2777820.11549  23538575.923    23538581.9584
  22094367.719    -8449880.912 9  -6571320.74749  22094367.158    22094373.8774
  20614488.395   -14707093.954 9 -11434383.76149  20614488.277    20614493.5414
  22909620.279     8158595.067 9   6376421.20549  22909621.539    22909627.0974
  20188091.207   -18049575.478 9 -14039039.54749  20188090.586    20188095.8284
  23953721.181    12380510.807 9   9663245.24049  23953722.193    23953730.4794
  21498346.231   -17246360.946 9 -13408406.19149  21498346.624    21498350.7114
 99  5 18 18 51 30.0000000  0  8 10 06 08 24 04 05 09 30
  21917810.602   -12725099.605 9  -9891006.41249  21917809.156    21917816.1554
  23525804.298    -3644305.400 9  -2830119.75049  23525803.265    23525808.5414
  22106406.397    -8386618.286 9  -6522025.27549  22106406.703    22106412.8524
  20622709.731   -14663890.353 9 -11400718.63249  20622710.025    20622714.6194
  22927480.842     8252451.760 9   6449556.19249  22927481.855    22927487.7494
  20187624.062   -18052030.253 9 -14040952.38249  20187623.749    20187628.8004
  23971403.316    12473428.521 9   9735648.41849  23971403.593    23971412.4674
  21484721.669   -17317958.016 9 -13464196.11149  21484721.447    21484726.3574
 99  5 18 18 52  0.0000000  0  8 10 06 08 24 04 05 09 30
  21904972.882   -12792561.075 9  -9943573.74649  21904972.583    21904978.5034
  23513034.058    -3711412.332 9  -2882410.88949  23513034.715    23513039.4274
  22118519.612    -8322963.520 9  -6472424.23149  22118519.338    22118525.4064
  20631000.402   -14620322.875 9 -11366769.97749  20631000.126    20631005.8074
  22945361.043     8346413.631 9   6522773.14049  22945360.428    22945368.2154
  20187251.964   -18053986.125 9 -14042476.45549  20187251.976    20187256.3964
  23989078.278    12566310.356 9   9808023.68849  23989079.716    23989087.8644
  21471165.345   -17389195.293 9 -13519705.65549  21471165.192    21471170.6154
 99  5 18 18 52 30.0000000  0  8 10 06 08 24 04 05 09 30
  21892210.345   -12859628.412 9  -9995833.95049  21892208.979    21892216.4544
  23500269.309    -3778492.012 9  -2934680.74649  23500270.002    23500275.4404
  22130712.875    -8258886.843 9  -6422494.39949  22130712.586    22130719.8034
  20639364.866   -14576367.186 9 -11332518.81249  20639364.725    20639369.8474
  22963261.465     8440480.751 9   6596072.09949  22963261.035    22963268.5384
  20186978.441   -18055424.087 9 -14043596.96249  20186978.116    20186982.7094
  24006750.127    12659172.452 9   9880383.54649  24006750.712    24006759.2344
  21457680.340   -17460058.920 9 -13574924.04049  21457681.186    21457685.5724
 99  5 18 18 53  0.0000000  0  8 10 06 08 24 04 05 09 30
  21879526.078   -12926283.715 9 -10047773.09649  21879525.570    21879532.2484
  23487512.303    -3845530.482 9  -2986918.46949  23487512.064    23487518.5014
  22142989.613    -8194373.099 9  -6372224.03149  22142989.597    22142996.0974
  20647802.139   -14532029.048 9 -11297969.63749  20647802.264    20647807.2794
  22981184.149     8534663.531 9   6669461.19849  22981184.607    22981190.7784
  20186808.974   -18056314.397 9 -14044290.72749  20186808.343    20186813.3724
  24024421.494    12752036.000 9   9952744.55549  24024421.649    24024432.2574
  21444269.194   -17530536.038 9 -13629841.25149  21444270.001    21444274.0614
 99  5 18 18 53 30.0000000  0  8 10 06 08 24 04 05 09 30
  21866923.616   -12992510.511 9 -10099378.34249  21866922.325    21866929.7114
  23474765.182    -3912513.585 9  -3039112.99849  23474764.948    23474771.8854
  22155350.347    -8129417.714 9  -6321609.53049  22155350.970    22155356.2194
  20656312.599   -14487306.200 9 -11263120.67549  20656312.412    20656318.3264
  22999129.688     8628966.374 9   6742943.84749  22999130.573    22999136.7514
  20186746.929   -18056640.299 9 -14044544.70249  20186746.736    20186751.5274
  24042096.092    12844917.587 9  10025119.63749  24042096.003    24042106.8794
  21430931.060   -17600628.957 9 -13684459.09949  21430931.155    21430935.4864
 99  5 18 18 54  0.0000000  0  8 10 06 08 24 04 05 09 30
  21854407.571   -13058282.704 9 -10150629.35349  21854406.919    21854412.9294
  23462028.072    -3979447.220 9  -3091269.04749  23462027.157    23462035.0654
  22167795.149    -8064020.586 9  -6270650.80049  22167794.515    22167801.8834
  20664896.359   -14442198.303 9 -11227971.69049  20664896.310    20664902.0634
  23017096.627     8723381.500 9   6816513.98949  23017096.326    23017102.4744
  20186791.959   -18056404.128 9 -14044360.69449  20186792.065    20186796.3864
  24059778.949    12937840.331 9  10097526.80649  24059780.221    24059789.1764
  21417665.947   -17670337.022 9 -13738777.05649  21417666.658    21417670.6954
 99  5 18 18 54 30.0000000  0  8 10 06 08 24 04 05 09 30
  21841980.717   -13123586.503 9 -10201515.38849  21841979.562    21841986.9664
  23449299.012    -4046337.589 9  -3143391.43049  23449300.007    23449305.9834
  22180319.072    -7998206.015 9  -6219366.81149  22180319.215    22180324.8984
  20673549.866   -14396723.791 9 -11192537.02549  20673549.639    20673555.0704
  23035084.076     8817906.543 9   6890169.81549  23035083.663    23035090.2484
  20186942.621   -18055612.525 9 -14043743.87749  20186942.381    20186947.1654
  24077474.353    13030825.439 9  10169982.50049  24077474.841    24077484.4404
  21404473.645   -17739663.185 9 -13792797.42849  21404474.501    21404478.7024
 99  5 18 18 55  0.0000000  0  8 10 06 08 24 04 05 09 30
  21829641.528   -13188428.294 9 -10252041.42749  21829640.225    21829648.4234
  23436579.217    -4113182.483 9  -3195478.33749  23436580.113    23436586.0564
  22192917.491    -7932002.264 9  -6167779.55949  22192916.673    22192923.6214
  20682271.543   -14350890.449 9 -11156822.75149  20682271.292    20682276.7974
  23053091.283     8912536.383 9   6963907.26449  23053091.057    23053097.5804
  20187196.320   -18054279.367 9 -14042705.06849  20187196.065    20187200.8004
  24095179.610    13123866.196 9  10242481.57849  24095178.515    24095190.1274
  21391352.361   -17808616.896 9 -13846527.57149  21391353.214    21391356.9604
 99  5 18 18 55 30.0000000  0  8 10 06 08 24 04 05 09 30
  21817388.869   -13252816.133 9 -10302213.72249  21817388.216    21817394.9294
  23423864.871    -4179997.552 9  -3247541.96249  23423864.926    23423870.4214
  22205588.003    -7865418.514 9  -6115896.19049  22205588.331    22205594.8194
  20691063.986   -14304685.557 9 -11120818.97349  20691064.054    20691069.3504
  23071115.858     9007257.442 9   7037715.78849  23071116.588    23071122.9344
  20187549.239   -18052424.933 9 -14041260.07549  20187549.011    20187553.8174
  24112893.195    13216954.339 9  10315017.62149  24112892.922    24112904.2624
  21378301.393   -17877201.177 9 -13899969.85749  21378301.360    21378305.4144
 99  5 18 18 56  0.0000000  0  8 10 06 08 24 04 05 09 30
  21805221.636   -13316755.889 9 -10352036.83349  21805220.270    21805227.7044
  23411153.527    -4246794.750 9  -3299591.68949  23411153.486    23411159.4504
  22218331.043    -7798454.115 9  -6063716.21049  22218329.810    22218337.8204
  20699926.514   -14258113.331 9 -11084528.94649  20699926.129    20699931.9924
  23089157.106     9102064.386 9   7111591.23949  23089156.510    23089163.1504
  20187999.386   -18050059.481 9 -14039416.88349  20187999.149    20188003.5674
  24130611.523    13310066.420 9  10387572.29849  24130610.086    24130622.2954
  21365322.432   -17945405.422 9 -13953116.01449  21365322.835    21365327.0634
 99  5 18 18 56 30.0000000  0  8 10 06 08 24 04 05 09 30
  21793138.960   -13380249.811 9 -10401512.56549  21793138.214    21793144.5924
  23398447.171    -4313566.755 9  -3351621.79349  23398446.033    23398451.9564
  22231144.124    -7731120.663 9  -6011248.65949  22231144.199    22231150.1984
  20708856.629   -14211184.688 9 -11047961.18949  20708856.467    20708861.9544
  23107214.591     9196958.545 9   7185534.66649  23107214.898    23107222.0724
  20188545.754   -18047188.707 9 -14037179.93649  20188545.131    20188549.8594
  24148331.489    13403184.805 9  10460131.87949  24148332.407    24148342.3994
  21352415.599   -18013231.234 9 -14005967.27749  21352415.990    21352420.5134
 99  5 18 18 57  0.0000000  0  8 10 06 08 24 04 05 09 30
  21781139.350   -13443307.656 9 -10450648.49749  21781139.021    21781145.2134
  23385747.168    -4380305.450 9  -3403625.92849  23385748.953    23385753.6564
  22244027.709    -7663417.004 9  -5958492.62949  22244027.420    22244034.4934
  20717852.988   -14163908.555 9 -11011122.67849  20717853.239    20717858.6544
  23125289.852     9291944.163 9   7259549.31449  23125292.293    23125296.6454
  20189188.418   -18043811.207 9 -14034548.13749  20189187.976    20189192.7434
  24166047.003    13496276.384 9  10532670.55849  24166047.983    24166055.6374
  21339580.954   -18080677.774 9 -14058523.02349  21339581.185    21339585.4654
 99  5 18 18 57 30.0000000  0  8 10 06 08 24 04 05 09 30
  21769222.761   -13505930.188 9 -10499445.21649  21769222.031    21769228.5694
  23373051.829    -4447021.192 9  -3455612.16449  23373051.513    23373057.6424
  22256981.861    -7595343.034 9  -5905448.05049  22256981.272    22256988.2394
  20726913.400   -14116296.279 9 -10974022.23349  20726913.596    20726919.2564
  23143383.131     9387022.719 9   7333636.39249  23143384.708    23143390.7414
  20189927.205   -18039929.180 9 -14031523.20049  20189927.174    20189931.8964
  24183754.889    13589329.258 9  10605179.07249  24183755.554    24183762.0004
  21326819.557   -18147739.085 9 -14110778.57849  21326819.800    21326823.9404
 99  5 18 18 58  0.0000000  0  8 10 06 08 24 04 05 09 30
  21757389.778   -13568112.728 9 -10547899.10649  21757388.743    21757395.8944
  23360362.152    -4513705.135 9  -3507573.61149  23360362.258    23360368.3504
  22270006.492    -7526898.802 9  -5852114.95549  22270006.595    22270012.7804
  20736034.351   -14068365.593 9 -10936673.67249  20736034.122    20736040.1614
  23161495.758     9482205.371 9   7407804.58849  23161496.789    23161502.3384
  20190761.678   -18035544.249 9 -14028106.38649  20190761.167    20190765.7024
  24201453.438    13682333.831 9  10677649.92349  24201453.982    24201460.4924
  21314131.727   -18214414.718 9 -14162733.61449  21314132.373    21314136.2454
 99  5 18 18 58 30.0000000  0  8 10 06 08 24 04 05 09 30
  21745638.637   -13629865.796 9 -10596018.32149  21745638.048    21745644.3254
  23347678.934    -4580356.343 9  -3559509.62449  23347679.808    23347684.8004
  22283099.015    -7458097.888 9  -5798503.93449  22283098.982    22283105.2964
  20745213.009   -14020131.140 9 -10899088.41149  20745213.078    20745218.7414
  23179628.090     9577491.742 9   7482053.61649  23179628.417    23179635.3094
  20191689.427   -18030668.442 9 -14024307.06849  20191689.204    20191693.8604
  24219141.419    13775282.133 9  10750076.92849  24219142.127    24219148.9454
  21301513.886   -18280722.101 9 -14214401.69249  21301513.569    21301518.2554
 99  5 18 18 59  0.0000000  0  8 10 06 08 24 04 05 09 30
  21733967.505   -13691198.642 9 -10643810.10249  21733966.408    21733973.1944
  23334999.181    -4646988.338 9  -3611430.61949  23334998.916    23335006.1754
  22296259.827    -7388937.477 9  -5744612.80249  22296259.271    22296266.3884
  20754449.573   -13971594.010 9 -10861267.30049  20754450.193    20754454.5754
  23197777.391     9672867.065 9   7556372.00649  23197778.842    23197783.5914
  20192708.556   -18025313.005 9 -14020134.01549  20192708.709    20192713.1834
  24236817.065    13868168.201 9  10822455.46949  24236818.130    24236824.5904
  21288965.046   -18346665.272 9 -14265785.96149  21288965.186    21288969.8284
 99  5 18 18 59 30.0000000  0  8 10 06 08 24 04 05 09 30
  21722377.392   -13752104.711 9 -10691269.32949  21722377.001    21722383.0814
  23322320.574    -4713614.204 9  -3663346.87449  23322321.563    23322327.3864
  22309488.042    -7319422.536 9  -5690445.39649  22309487.643    22309494.5194
  20763744.609   -13922748.817 9 -10823206.13349  20763744.569    20763749.7404
  23215940.515     9768313.623 9   7630745.86849  23215941.798    23215946.8194
  20193820.111   -18019472.261 9 -14015582.80349  20193819.560    20193824.7844
  24254481.718    13960996.516 9  10894788.98849  24254482.021    24254491.0404
  21276483.714   -18412255.552 9 -14316895.27549  21276484.706    21276488.2344
 99  5 18 19  0  0.0000000  0  8 10 06 08 24 04 05 09 30
  21710869.964   -13812576.644 9 -10738390.26049  21710868.748    21710875.7384
  23309645.868    -4780220.669 9  -3715247.99349  23309646.458    23309652.4844
  22322782.750    -7249558.821 9  -5636006.21249  22322782.359    22322789.5014
  20773101.360   -13873577.909 9 -10784891.17349  20773101.301    20773107.0644
  23234115.664     9863824.526 9   7705169.84949  23234116.026    23234122.4794
  20195028.235   -18013123.571 9 -14010635.78249  20195027.723    20195032.5404
  24272134.578    14053763.223 9  10967074.51649  24272133.472    24272143.4104
  21264070.355   -18477489.325 9 -14367726.76249  21264070.690    21264074.6084
 99  5 18 19  0 30.0000000  0  8 10 06 08 24 04 05 09 30
  21699447.485   -13872602.057 9 -10785163.24749  21699446.086    21699453.2994
  23296976.742    -4846797.140 9  -3767125.74349  23296976.509    23296983.5054
  22336143.527    -7179347.468 9  -5581296.14949  22336143.660    22336151.2524
  20782525.606   -13824053.727 9 -10746300.94449  20782525.607    20782531.2284
  23252303.557     9959402.408 9   7779646.06649  23252304.704    23252310.5254
  20196338.183   -18006239.492 9 -14005271.58949  20196337.636    20196342.8124
  24289777.441    14146479.023 9  11039320.36449  24289777.217    24289786.9304
  21251727.508   -18542350.450 9 -14418267.88649  21251727.365    21251731.9784
 99  5 18 19  1  0.0000000  0  8 10 06 08 24 04 05 09 30
  21688114.243   -13932157.225 9 -10831569.82749  21688113.332    21688119.7654
  23284315.573    -4913331.243 9  -3818970.45149  23284314.684    23284322.5514
  22349571.486    -7108784.463 9  -5526312.07749  22349571.544    22349578.1734
  20792020.688   -13774157.237 9 -10707420.59449  20792020.664    20792026.0564
  23270505.429    10055054.795 9   7854180.28949  23270506.034    23270513.7024
  20197755.678   -17998790.283 9 -13999467.02649  20197755.295    20197760.3684
  24307414.386    14239161.364 9  11111540.17449  24307413.678    24307424.6704
  21239460.567   -18606812.543 9 -14468498.08349  21239461.177    21239465.1074
 99  5 18 19  1 30.0000000  0  8 10 06 08 24 04 05 09 30
  21676875.091   -13991219.299 9 -10877592.17749  21676874.502    21676881.0094
  23271665.055    -4979808.374 9  -3870770.82249  23271666.231    23271671.4254
  22363066.552    -7037867.610 9  -5471052.28849  22363066.042    22363073.0164
  20801585.745   -13723892.531 9 -10668253.32649  20801585.902    20801591.2664
  23288725.470    10150802.239 9   7928788.57649  23288726.880    23288733.5264
  20199286.003   -17990748.573 9 -13993200.78749  20199285.825    20199290.9374
  24325047.430    14331823.982 9  11183744.60349  24325046.870    24325058.7154
  21227274.454   -18670851.808 9 -14518398.81749  21227275.333    21227278.7684
 99  5 18 19  2  0.0000000  0  8 10 06 08 24 04 05 09 30
  21665731.254   -14049780.832 9 -10923224.48649  21665729.927    21665737.0114
  23259027.992    -5046219.298 9  -3922519.59249  23259028.689    23259033.8974
  22376629.380    -6966594.268 9  -5415514.69849  22376628.173    22376636.2624
  20811219.273   -13673268.715 9 -10628806.23049  20811219.403    20811224.6804
  23306964.895    10246650.890 9   8003475.75449  23306965.264    23306972.6444
  20200928.117   -17982119.231 9 -13986476.64749  20200928.088    20200932.7514
  24342680.030    14424483.397 9  11255946.50549  24342680.963    24342691.0514
  21215174.512   -18734438.486 9 -14567946.86349  21215174.780    21215178.9334
 99  5 18 19  2 30.0000000  0  8 10 06 08 24 04 05 09 30
  21654684.411   -14107832.091 9 -10968459.19649  21654683.565    21654689.3244
  23246400.741    -5112577.548 9  -3974227.28249  23246399.902    23246406.5784
  22390261.911    -6894955.095 9  -5359692.06649  22390260.875    22390268.0534
  20820914.475   -13622320.525 9 -10589106.36949  20820914.001    20820920.1144
  23325221.686    10342589.967 9   8078233.38749  23325222.265    23325229.6174
  20202678.432   -17972921.435 9 -13979309.54949  20202677.947    20202682.7924
  24360315.340    14517156.033 9  11328158.68249  24360316.434    24360327.0474
  21203160.608   -18797571.008 9 -14617141.02249  21203160.058    21203165.5904
 99  5 18 19  3  0.0000000  0  8 10 06 08 24 04 05 09 30
  21643734.853   -14165372.201 9 -11013295.59949  21643733.765    21643740.7324
  23233782.429    -5178886.427 9  -4025896.48049  23233781.428    23233789.4484
  22403961.824    -6822960.974 9  -5303592.84149  22403961.360    22403969.0054
  20830665.472   -13571077.766 9 -10549176.98049  20830665.290    20830671.5224
  23343490.153    10438592.634 9   8153040.55149  23343490.538    23343497.2944
  20204533.360   -17963173.540 9 -13971713.80649  20204533.003    20204537.6954
  24377953.026    14609840.269 9  11400379.94249  24377952.655    24377963.9194
  21191231.807   -18860256.216 9 -14665986.63449  21191231.945    21191236.9324
 99  5 18 19  3 30.0000000  0  8 10 06 08 24 04 05 09 30
  21632880.388   -14222411.789 9 -11057741.97549  21632879.899    21632886.1444
  23221173.450    -5245147.033 9  -4077528.10349  23221173.626    23221180.4894
  22417728.503    -6750617.123 9  -5247221.09649  22417728.280    22417735.2314
  20840470.649   -13519550.636 9 -10509026.00049  20840470.752    20840476.1944
  23361768.292    10534644.228 9   8227885.87149  23361768.944    23361774.6884
  20206488.631   -17952898.718 9 -13963707.47549  20206488.399    20206493.4654
  24395590.333    14702524.911 9  11472601.48949  24395590.314    24395599.8644
  21179386.901   -18922501.968 9 -14714489.82049  21179387.475    21179391.7964
 99  5 18 19  4  0.0000000  0  8 10 06 08 24 04 05 09 30
  21622117.881   -14278969.030 9 -11101812.50149  21622117.320    21622123.9334
  23208572.385    -5311365.707 9  -4129127.03449  23208572.180    23208576.8264
  22431558.372    -6677940.454 9  -5190589.99549  22431557.886    22431565.3574
  20850330.521   -13467736.798 9 -10468651.61249  20850330.297    20850336.5504
  23380054.404    10630735.266 9   8302761.89649  23380054.245    23380061.6324
  20208538.702   -17942125.486 9 -13955312.77049  20208537.840    20208543.2204
  24413223.888    14795188.466 9  11544806.58249  24413225.156    24413233.2354
  21167622.321   -18984325.696 9 -14762664.13949  21167622.450    21167627.4814
 99  5 18 19  4 30.0000000  0  8 10 06 08 24 04 05 09 30
  21611444.946   -14335055.461 9 -11145516.16949  21611443.809    21611450.6804
  23195976.785    -5377555.495 9  -4180703.48849  23195977.239    23195982.8044
  22445450.027    -6604940.376 9  -5133706.89749  22445450.718    22445456.5894
  20860246.691   -13415627.349 9 -10428046.86849  20860246.622    20860252.3424
  23398346.729    10726863.752 9   8377667.11149  23398346.892    23398355.3814
  20210681.363   -17930865.617 9 -13946538.87149  20210681.207    20210685.7944
  24430847.030    14887797.431 9  11616969.16849  24430847.706    24430856.3724
  21155931.969   -19045758.615 9 -14810533.93449  21155931.803    21155936.4974
 99  5 18 19  5  0.0000000  0  8 10 06 08 24 04 05 09 30
  21600858.421   -14390686.466 9 -11188864.97149  21600858.077    21600865.3094
  23183387.181    -5443715.169 9  -4232256.45549  23183387.245    23183392.1914
  22459399.931    -6531634.674 9  -5076585.66949  22459400.361    22459406.5784
  20870223.914   -13363196.668 9 -10387191.83449  20870223.685    20870229.7514
  23416648.624    10823040.164 9   8452609.69149  23416649.971    23416658.5774
  20212917.710   -17919114.558 9 -13937382.22749  20212917.778    20212922.1884
  24448453.215    14980319.513 9  11689064.04949  24448453.738    24448464.6594
  21144315.397   -19106803.831 9 -14858101.63549  21144315.895    21144319.8964
 99  5 18 19  5 30.0000000  0  8 10 06 08 24 04 05 09 30
  21590359.602   -14445859.184 9 -11231856.64049  21590358.686    21590365.4334
  23170800.683    -5509857.932 9  -4283796.23949  23170799.739    23170806.0734
  22473409.988    -6458012.661 9  -5019217.96049  22473409.123    22473415.4394
  20880262.890   -13310441.367 9 -10346083.84049  20880262.835    20880268.3374
  23434963.193    10919279.655 9   8527601.40849  23434966.690    23434971.5474
  20215248.075   -17906869.041 9 -13927840.28549  20215247.705    20215252.7374
  24466041.193    15072744.692 9  11761083.40449  24466041.272    24466051.6924
  21132772.572   -19167462.337 9 -14905367.99249  21132772.986    21132776.9944
 99  5 18 19  6  0.0000000  0  8 10 06 08 24 04 05 09 30
  21579948.422   -14500569.977 9 -11274488.40249  21579947.673    21579954.3074
  23158214.240    -5575998.850 9  -4335334.61649  23158214.152    23158221.0644
  22487481.503    -6384066.020 9  -4961597.27149  22487481.201    22487487.7924
  20890364.254   -13257358.856 9 -10304720.88449  20890364.312    20890370.1064
  23453289.959    11015581.078 9   8602641.40949  23453289.286    23453290.9724
  20217675.747   -17894111.663 9 -13917899.49449  20217675.425    20217680.3204
  24483611.059    15165075.302 9  11833029.08849  24483612.558    24483621.1634
  21121301.358   -19227744.013 9 -14952340.71449  21121301.127    21121305.9224
 99  5 18 19  6 30.0000000  0  8 10 06 08 24 04 05 09 30
  21569627.969   -14554804.232 9 -11316748.81649  21569627.408    21569633.7474
  23145629.810    -5642130.130 9  -4386865.42849  23145630.034    23145636.4364
  22501618.487    -6309775.635 9  -4903708.75349  22501618.604    22501624.7754
  20900527.055   -13203953.494 9 -10263106.35149  20900527.456    20900532.6504
  23471624.449    11111930.974 9   8677719.17749  23471621.654    23471626.4934
  20220205.680   -17880816.726 9 -13907539.83249  20220205.043    20220210.0474
  24501167.424    15257330.447 9  11904915.92549  24501168.584    24501177.7084
  21109903.441   -19287639.383 9 -14999012.43149  21109903.648    21109908.2754
 99  5 18 19  7  0.0000000  0  8 10 06 08 24 04 05 09 30
  21559399.848   -14608553.779 9 -11358631.54049  21559398.519    21559406.2884
  23133049.502    -5708238.911 9  -4438378.69649  23133049.093    23133056.4544
  22515822.578    -6235133.865 9  -4845546.43349  22515822.381    22515829.4884
  20910748.735   -13150238.660 9 -10221250.66849  20910748.550    20910753.7934
  23489968.307    11208332.375 9   8752837.06849  23489969.103    23489972.5124
  20222841.206   -17866967.033 9 -13896747.88649  20222840.759    20222845.5314
  24518714.248    15349535.255 9  11976763.55349  24518714.477    24518723.7084
  21098585.424   -19347116.129 9 -15045357.94049  21098586.003    21098590.5794
 99  5 18 19  7 30.0000000  0  8 10 06 08 24 04 05 09 30
  21549264.209   -14661816.748 9 -11400135.11449  21549263.255    21549270.0844
  23120475.687    -5774315.060 9  -4489866.58849  23120476.907    23120483.0224
  22530093.485    -6160139.099 9  -4787109.05449  22530093.191    22530100.2634
  20921026.976   -13096225.869 9 -10179162.80349  20921026.635    20921032.5234
  23508321.743    11304780.454 9   8827991.29449  23508322.517    23508329.1504
  20225583.387   -17852556.666 9 -13885519.05049  20225582.960    20225587.8384
  24536255.577    15441713.656 9  12048590.61149  24536256.893    24536265.7294
  21087348.189   -19406168.768 9 -15091372.97749  21087348.582    21087352.5924
 99  5 18 19  8  0.0000000  0  8 10 06 08 24 04 05 09 30
  21539220.746   -14714594.917 9 -11441260.91749  21539220.208    21539226.7794
  23107912.597    -5840335.130 9  -4541310.77049  23107911.586    23107919.2584
  22544430.773    -6084797.993 9  -4728401.81949  22544431.035    22544437.1274
  20931362.372   -13041913.131 9 -10136841.22049  20931362.040    20931368.0914
  23526683.801    11401275.470 9   8903182.14449  23526683.696    23526691.1834
  20228432.903   -17837582.093 9 -13873850.56649  20228432.308    20228437.2484
  24553792.263    15533867.440 9  12120398.49649  24553792.473    24553802.1924
  21076193.960   -19464784.003 9 -15137047.18249  21076194.174    21076198.9564
 99  5 18 19  8 30.0000000  0  8 10 06 08 24 04 05 09 30
  21529272.099   -14766875.542 9 -11481999.02749  21529271.835    21529278.7714
  23095363.149    -5906281.078 9  -4592697.20349  23095363.263    23095369.5534
  22558829.784    -6009131.030 9  -4669440.64949  22558829.018    22558836.1424
  20941752.023   -12987314.503 9 -10094296.87549  20941752.337    20941757.5544
  23545055.276    11497820.351 9   8978411.87649  23545057.226    23545063.9894
  20231387.861   -17822053.773 9 -13861750.60349  20231387.302    20231392.3624
  24571319.472    15625974.004 9  12192169.59849  24571318.250    24571330.8024
  21065126.105   -19522945.805 9 -15182368.05449  21065126.526    21065130.9304
 99  5 18 19  9  0.0000000  0  8 10 06 08 24 04 05 09 30
  21519417.741   -14818661.217 9 -11522351.45649  21519416.698    21519423.7894
  23082823.714    -5972175.686 9  -4644043.62249  23082824.053    23082830.6454
  22573281.835    -5933185.914 9  -4610262.74649  22573281.263    22573288.4654
  20952191.894   -12932453.184 9 -10051547.82549  20952191.829    20952197.3114
  23563437.008    11594415.159 9   9053680.43549  23563437.532    23563446.2814
  20234441.833   -17806004.815 9 -13849244.94149  20234441.558    20234446.4484
  24588831.449    15718001.080 9  12263878.76149  24588829.368    24588843.5224
  21054142.701   -19580665.036 9 -15227344.06649  21054142.970    21054147.5234
 99  5 18 19  9 30.0000000  0  8 10 06 08 24 04 05 09 30
  21509661.048   -14869932.939 9 -11562303.41149  21509660.462    21509667.2924
  23070294.632    -6038016.279 9  -4695347.95349  23070295.187    23070300.3414
  22587782.653    -5856983.245 9  -4550884.10449  22587781.954    22587789.3344
  20962681.276   -12877331.295 9 -10008595.72749  20962681.148    20962686.5674
  23581826.272    11691047.491 9   9128978.22249  23581827.850    23581832.5904
  20237593.566   -17789442.728 9 -13836339.44849  20237593.426    20237598.2874
  24606324.308    15809929.099 9  12335510.72449  24606322.467    24606337.2404
  21043241.826   -19637949.389 9 -15271981.21949  21043241.827    21043246.3234
 99  5 18 19 10  0.0000000  0  8 10 06 08 24 04 05 09 30
  21500006.844   -14920666.868 9 -11601836.30549  21500006.245    21500012.7954
  23057774.418    -6103810.767 9  -4746616.33749  23057774.385    23057780.6104
  22602331.669    -5780527.828 9  -4491308.56249  22602331.751    22602338.7734
  20973221.151   -12821943.778 9  -9965436.66149  20973221.251    20973227.0184
  23600223.702    11787726.307 9   9204312.24149  23600222.966    23600229.7924
  20240841.954   -17772372.378 9 -13823037.89849  20240841.167    20240846.7414
  24623795.787    15901741.669 9  12407052.71849  24623796.081    24623807.6604
  21032425.666   -19694787.845 9 -15316270.92449  21032426.094    21032430.8424
 99  5 18 19 10 30.0000000  0  8 10 06 08 24 04 05 09 30
  21490456.456   -14970854.478 9 -11640943.49049  21490455.547    21490461.4534
  23045258.239    -6169582.899 9  -4797867.30449  23045259.249    23045264.1604
  22616926.198    -5703832.929 9  -4431546.38449  22616925.828    22616933.2904
  20983812.682   -12766284.851 9  -9922066.09149  20983812.709    20983818.7684
  23618629.073    11884449.342 9   9279680.70449  23618629.233    23618637.0464
  20244187.275   -17754791.631 9 -13809338.64849  20244186.791    20244192.2314
  24641246.318    15993443.217 9  12478508.20449  24641248.169    24641258.5754
  21021696.257   -19751171.328 9 -15360206.09649  21021696.223    21021701.1954
 99  5 18 19 11  0.0000000  0  8 10 06 08 24 04 05 09 30
  21481008.290   -15020504.188 9 -11679631.53949  21481007.378    21481013.2244
  23032743.717    -6235347.904 9  -4849112.71949  23032743.693    23032749.4964
  22631567.707    -5626891.659 9  -4371592.25349  22631568.741    22631574.4684
  20994458.104   -12710343.400 9  -9878475.38649  20994458.339    20994463.9454
  23637042.330    11981212.803 9   9355080.67749  23637043.235    23637049.8004
  20247631.776   -17736690.350 9 -13795233.77949  20247631.167    20247636.7404
  24658678.301    16085047.454 9  12549887.84249  24658678.912    24658689.6814
  21011055.199   -19807090.253 9 -15403779.26649  21011055.059    21011059.8094
 99  5 18 19 11 30.0000000  0  8 10 06 08 24 04 05 09 30
  21471660.792   -15069625.815 9 -11717908.09749  21471659.310    21471666.4874
  23020232.807    -6301094.865 9  -4900344.08149  23020232.934    23020239.1444
  22646261.964    -5549674.835 9  -4311423.41349  22646261.989    22646267.3934
  21005161.767   -12654095.760 9  -9834646.08749  21005161.619    21005167.4404
  23655461.281    12078008.539 9   9430505.86249  23655460.805    23655471.7324
  20251179.665   -17718045.999 9 -13780705.74649  20251179.810    20251184.4584
  24676093.482    16176563.711 9  12621198.92249  24676096.134    24676104.6684
  21000503.648   -19862539.304 9 -15446986.32149  21000504.253    21000507.9224
 99  5 18 19 12  0.0000000  0  8 10 06 08 24 04 05 09 30
  21462412.401   -15118225.752 9 -11755778.15149  21462411.672    21462418.1104
  23007725.469    -6366820.690 9  -4951558.97949  23007724.814    23007731.4124
  22661014.118    -5472152.508 9  -4251016.50949  22661013.936    22661019.5874
  21015925.843   -12597529.762 9  -9790568.72049  21015925.997    21015931.2034
  23673888.593    12174843.908 9   9505961.82649  23673891.476    23673896.4554
  20254833.136   -17698847.769 9 -13765746.11449  20254832.991    20254837.7644
  24693494.452    16268003.652 9  12692450.48549  24693497.198    24693503.0984
  20990042.168   -19917515.791 9 -15489825.13349  20990042.126    20990046.5064
 99  5 18 19 12 30.0000000  0  8 10 06 08 24 04 05 09 30
  21453263.174   -15166305.293 9 -11793242.69949  21453262.126    21453268.6614
  22995224.068    -6432515.654 9  -5002749.82649  22995225.057    22995230.2824
  22675828.283    -5394304.582 9  -4190355.88249  22675827.851    22675834.0144
  21026749.554   -12540651.336 9  -9746247.90449  21026749.824    21026755.3494
  23692322.727    12271714.120 9   9581444.95749  23692326.104    23692329.1204
  20258593.298   -17679088.102 9 -13750348.99649  20258592.958    20258597.9484
  24710882.059    16359373.622 9  12763647.57349  24710883.361    24710894.5864
  20979671.044   -19972016.347 9 -15532293.10049  20979671.556    20979674.9984
 99  5 18 19 13  0.0000000  0  8 10 06 08 24 04 05 09 30
  21444213.334   -15213862.093 9 -11830299.91149  21444212.351    21444218.7524
  22982732.627    -6498159.401 9  -5053900.77749  22982732.555    22982738.2324
  22690706.343    -5316118.405 9  -4129431.65749  22690705.352    22690713.4984
  21037629.771   -12483475.394 9  -9701695.24049  21037629.922    21037635.4404
  23710764.196    12368622.520 9   9656957.94349  23710763.760    23710771.1304
  20262458.609   -17658775.613 9 -13734521.10949  20262458.392    20262463.2924
  24728254.416    16450665.498 9  12834783.86349  24728254.476    24728264.6184
  20969387.729   -20026055.477 9 -15574401.51649  20969387.325    20969392.0734
 99  5 18 19 13 30.0000000  0  8 10 06 08 24 04 05 09 30
  21435262.243   -15260900.308 9 -11866953.04449  21435261.717    21435267.5174
  22970251.616    -6563746.565 9  -5105007.65049  22970251.206    22970257.8164
  22705645.949    -5237608.609 9  -4068255.28849  22705646.138    22705654.5294
  21048562.330   -12426024.978 9  -9656928.70849  21048562.184    21048568.1304
  23729211.043    12465558.741 9   9732492.61849  23729215.176    23729213.8234
  20266423.217   -17637941.602 9 -13718286.85249  20266422.877    20266428.0724
  24745610.967    16541874.206 9  12905855.30949  24745611.350    24745623.7034
  20959186.830   -20079660.817 9 -15616171.90149  20959187.187    20959191.3764
 99  5 18 19 14  0.0000000  0  8 10 06 08 24 04 05 09 30
  21426407.154   -15307433.625 9 -11903212.74349  21426406.118    21426412.4424
  22957778.491    -6629293.499 9  -5156083.18049  22957779.030    22957784.8554
  22720640.571    -5158812.334 9  -4006855.69149  22720640.498    22720648.9284
  21059541.034   -12368331.718 9  -9611972.95249  21059541.153    21059546.8774
  23747662.374    12562519.751 9   9808046.56149  23747663.715    23747670.8714
  20270483.237   -17616606.429 9 -13701662.07149  20270483.296    20270488.4824
  24762947.452    16632976.312 9  12976843.68949  24762949.457    24762960.6204
  20949067.951   -20132836.283 9 -15657607.31849  20949068.112    20949072.5874
 99  5 18 19 14 30.0000000  0  8 10 06 08 24 04 05 09 30
  21417646.793   -15353468.756 9 -11939084.24149  21417645.702    21417651.6164
  22945312.927    -6694801.107 9  -5207128.06449  22945312.641    22945318.6714
  22735682.743    -5079764.499 9  -3945260.10249  22735682.345    22735691.0164
  21070563.627   -12310407.182 9  -9566836.98849  21070563.113    21070569.3134
  23766117.807    12659503.735 9   9883618.39849  23766114.082    23766125.4374
  20274637.440   -17594776.712 9 -13684651.93249  20274637.311    20274642.3304
  24780260.876    16723957.300 9  13047737.70049  24780260.673    24780269.0294
  20939030.056   -20185585.516 9 -15698710.62049  20939030.071    20939034.6094
 99  5 18 19 15  0.0000000  0  8 10 06 08 24 04 05 09 30
  21408980.111   -15399011.656 9 -11974572.17049  21408979.662    21408986.0304
  22932854.992    -6760268.431 9  -5258141.51949  22932854.825    22932860.7124
  22750768.481    -5000487.501 9  -3883485.91049  22750768.171    22750775.8204
  21081630.640   -12252249.124 9  -9521519.06649  21081631.330    21081636.5134
  23784576.160    12756503.567 9   9959202.59149  23784576.800    23784584.8634
  20278885.138   -17572455.023 9 -13667258.42849  20278884.830    20278889.6454
  24797550.362    16814814.967 9  13118535.60449  24797548.714    24797559.6534
  20929073.814   -20237905.146 9 -15739479.14449  20929073.994    20929078.5464
 99  5 18 19 15 30.0000000  0  8 10 06 08 24 04 05 09 30
  21400406.609   -15444066.458 9 -12009679.80449  21400405.957    21400412.3084
  22920402.567    -6825705.749 9  -5309131.62149  22920402.076    22920408.6484
  22765895.820    -4920992.377 9  -3821541.76049  22765895.369    22765903.3024
  21092745.381   -12193841.100 9  -9476006.35149  21092745.596    21092751.2114
  23803035.656    12853509.536 9  10034791.55349  23803038.080    23803044.7144
  20283230.107   -17549622.165 9 -13649466.62649  20283229.722    20283235.0084
  24814815.608    16905544.436 9  13189233.61449  24814813.762    24814828.3174
  20919204.386   -20289768.626 9 -15779892.22349  20919204.526    20919209.7294
 99  5 18 19 16  0.0000000  0  8 10 06 08 24 04 05 09 30
  21391930.369   -15488608.772 9 -12044388.08449  21391929.835    21391935.9994
  22907955.842    -6891114.620 9  -5360099.53549  22907956.282    22907961.7434
  22781066.871    -4841268.386 9  -3759419.28549  22781067.835    22781074.0224
  21103911.892   -12135160.728 9  -9430281.42249  21103912.176    21103917.4594
  23821498.701    12950532.250 9  10110393.58049  23821499.299    23821503.5444
  20287678.710   -17526244.397 9 -13631250.21549  20287678.462    20287683.6564
  24832057.487    16996145.498 9  13259831.48049  24832060.402    24832069.9244
  20909427.759   -20341145.239 9 -15819925.95449  20909428.744    20909432.4134
 99  5 18 19 16 30.0000000  0  8 10 06 08 24 04 05 09 30
  21383558.553   -15532603.101 9 -12078669.36149  21383557.591    21383564.1754
  22895517.035    -6956481.017 9  -5411034.34849  22895516.334    22895521.9394
  22796286.490    -4761291.009 9  -3697099.36849  22796286.080    22796294.2054
  21115133.334   -12076192.353 9  -9384332.06949  21115133.617    21115139.2704
  23839963.844    13047567.973 9  10186005.66849  23839961.868    23839971.1464
  20292232.587   -17502314.441 9 -13612603.52249  20292232.280    20292237.3604
  24849280.244    17086644.464 9  13330349.85249  24849278.263    24849290.1454
  20899745.536   -20392026.806 9 -15859573.93249  20899746.017    20899750.1654
 99  5 18 19 17  0.0000000  0  8 10 06 08 24 04 05 09 30
  21375293.519   -15576036.557 9 -12112513.58149  21375293.152    21375298.8404
  22883085.393    -7021809.584 9  -5461939.68749  22883085.380    22883091.0734
  22811555.555    -4681051.377 9  -3634575.08649  22811555.019    22811563.0834
  21126409.912   -12016934.133 9  -9338156.86549  21126410.041    21126415.4414
  23858432.020    13144613.152 9  10261625.13949  23858434.360    23858438.6864
  20296891.121   -17477833.731 9 -13593527.66749  20296890.725    20296896.1394
  24866486.073    17177054.666 9  13400799.01249  24866491.386    24866493.6544
  20890158.901   -20442404.345 9 -15898829.13849  20890159.044    20890163.7584
 99  5 18 19 17 30.0000000  0  8 10 06 08 24 04 05 09 30
  21367136.809   -15618900.183 9 -12145913.79049  21367136.579    21367142.8514
  22870660.663    -7087102.395 9  -5512817.14949  22870660.571    22870666.0844
  22826874.046    -4600553.213 9  -3571849.32049  22826873.814    22826882.1034
  21137741.045   -11957388.500 9  -9291757.69249  21137740.847    21137746.5114
  23876903.791    13241673.488 9  10337256.41249  23876903.404    23876910.9514
  20301655.730   -17452795.639 9 -13574017.49149  20301655.296    20301660.2844
  24883675.022    17267380.765 9  13471182.68649  24883670.184    24883684.9414
  20880664.498   -20492297.252 9 -15937706.71949  20880664.587    20880669.3904
 99  5 18 19 18  0.0000000  0  8 10 06 08 24 04 05 09 30
  21359090.955   -15661181.453 9 -12178860.20649  21359090.210    21359096.5924
  22858244.087    -7152352.397 9  -5563661.26449  22858243.347    22858250.0324
  22842241.837    -4519794.852 9  -3508920.83149  22842241.775    22842250.0914
  21149122.810   -11897576.573 9  -9245151.02749  21149122.707    21149128.5144
  23895380.266    13338760.213 9  10412908.21849  23895379.913    23895385.6234
  20306523.034   -17427217.554 9 -13554086.55349  20306522.547    20306527.8464
  24900847.246    17357619.032 9  13541497.93649  24900850.300    24900858.9154
  20871257.220   -20541733.142 9 -15976228.18149  20871257.489    20871261.9134
 99  5 18 19 18 30.0000000  0  8 10 06 08 24 04 05 09 30
  21351152.440   -15702898.870 9 -12211367.26749  21351151.855    21351157.9454
  22845835.031    -7217562.152 9  -5614474.03749  22845834.008    22845841.1254
  22857655.103    -4438798.554 9  -3445806.99249  22857656.444    22857662.1434
  21160550.907   -11837521.273 9  -9198354.72349  21160550.915    21160556.5744
  23913858.890    13435867.868 9  10488576.33849  23913858.580    23913865.9964
  20311490.687   -17401111.905 9 -13533744.52049  20311490.108    20311496.0354
  24917999.919    17447757.157 9  13611735.06549  24918000.377    24918012.3204
  20861932.224   -20590736.371 9 -16014412.52049  20861932.445    20861937.0514
 99  5 18 19 19  0.0000000  0  8 10 06 08 24 04 05 09 30
  21343317.179   -15744073.239 9 -12243451.17849  21343316.599    21343322.2404
  22833431.881    -7282740.323 9  -5665262.20249  22833431.864    22833437.2774
  22873110.872    -4357578.677 9  -3382518.87449  22873110.625    22873118.0214
  21172023.300   -11777233.420 9  -9151377.21249  21172023.463    21172029.3544
  23932343.113    13533007.195 9  10564269.12749  23932340.995    23932351.5494
  20316558.483   -17374480.372 9 -13512992.70549  20316558.609    20316563.3484
  24935127.136    17537762.653 9  13681868.84349  24935127.760    24935135.9314
  20852688.894   -20639310.198 9 -16052262.24549  20852689.094    20852694.0354
 99  5 18 19 19 30.0000000  0  7 10 06 08 24 04 05 30
  21335587.552   -15784693.584 9 -12275103.35549  21335586.781    21335593.2234
  22821037.145    -7347874.360 9  -5716015.96349  22821036.765    22821042.1204
  22888610.127    -4276129.628 9  -3319052.19149  22888610.045    22888617.7724
  21183541.137   -11716707.058 9  -9104213.84649  21183541.310    21183547.6704
  23950834.468    13630182.373 9  10639989.87349  23950837.590    23950842.4474
  20321728.114   -17347314.271 9 -13491824.34549  20321727.751    20321732.8734
  20843531.697   -20687431.878 9 -16089759.64449  20843531.813    20843536.5634
 99  5 18 19 20  0.0000000  0  7 10 06 08 24 04 05 30
  21327963.956   -15824755.215 9 -12306320.20049  21327962.998    21327969.4004
  22808652.744    -7412954.385 9  -5766727.63949  22808651.889    22808658.0084
  22904155.729    -4194438.082 9  -3255396.55749  22904156.053    22904163.0764
  21195104.494   -11655941.570 9  -9056864.14849  21195104.664    21195110.4704
  23969330.392    13727385.846 9                  23969326.870    23969331.5754
  20326998.834   -17319616.278 9 -13470241.52549  20326999.001    20327004.2364
  20834467.416   -20735064.946 9 -16126876.31449  20834467.618    20834472.2514
 99  5 18 19 20 30.0000000  0  7 10 06 08 24 04 05 30
  21320436.857   -15864309.420 9 -12337141.64949  21320436.199    21320442.5064
  22796271.091    -7478021.086 9  -5817428.92149  22796270.700    22796276.0734
  22919738.507    -4112550.848 9  -3191588.45749  22919738.305    22919745.5834
  21206706.884   -11594970.768 9  -9009354.46749  21206707.022    21206712.6454
  23987820.677                                    23987822.296    23987832.3634
  20332364.801   -17291418.996 9 -13448269.65049  20332364.597    20332369.8584
  20825492.210   -20782229.935 9 -16163628.25649  20825492.462    20825497.0544
 99  5 18 19 21  0.0000000  0  7 10 06 08 24 04 05 30
  21313008.625   -15903345.315 9 -12367559.21849  21313007.822    21313014.3784
  22783894.343    -7543062.088 9  -5868110.18949  22783893.829    22783900.1634
  22935363.444    -4030442.799 9  -3127608.26249  22935362.499    22935370.3764
  21218352.773   -11533771.865 9  -8961667.04549  21218352.940    21218358.3904
  24006307.185                                    24006310.707    24006315.9194
  20337827.682   -17262711.350 9 -13425900.09049  20337827.235    20337832.6254
  20816613.686   -20828887.003 9 -16199984.40049  20816613.988    20816618.8554
 99  5 18 19 21 30.0000000  0  7 10 06 08 24 04 05 30
  21305684.548   -15941833.617 9 -12397550.07549  21305683.742    21305690.0304
  22771525.557    -7608060.019 9  -5918757.91149  22771525.591    22771531.3064
  22951033.362    -3948096.657 9  -3063442.53849  22951033.580    22951041.1324
  21230046.139   -11472323.143 9  -8913784.95049  21230046.045    21230051.9244
  24024786.970                                    24024785.447    24024801.9254
  20343391.365   -17233473.740 9 -13403117.56749  20343391.173    20343396.3264
  20807834.347   -20875022.756 9 -16235934.33149  20807834.296    20807838.8604
 99  5 18 19 22  0.0000000  0  7 10 06 08 24 04 05 30
  21298466.675   -15979763.688 9 -12427105.95949  21298465.699    21298472.1884
  22759166.613    -7673005.412 9  -5969364.68849  22759165.867    22759172.1724
  22966750.210    -3865504.362 9  -2999085.02949  22966750.589    22966757.5814
  21241788.752   -11410615.136 9  -8865700.82249  21241788.616    21241795.0334
  24043264.483                                    24043262.316    24043270.1804
  20349059.270   -17203688.913 9 -13379908.64649  20349058.690    20349063.9644
  20799151.929   -20920648.540 9 -16271486.89549  20799152.486    20799156.6844
 99  5 18 19 22 30.0000000  0  7 10 06 08 24 04 05 30
  21291356.118   -16017129.974 9 -12456222.53949  21291354.832    21291361.4404
  22746816.350    -7737906.825 9  -6019937.20649  22746816.457    22746822.1434
  22982511.687    -3782679.303 9  -2934546.15649  22982511.159    22982518.0384
  21253580.862   -11348646.742 9  -8817413.80649  21253580.922    21253586.8384
  24061742.329                                    24061739.215    24061729.7834
  20354832.319   -17173351.147 9 -13356268.86449  20354832.003    20354837.4854
  20790566.186   -20965767.951 9 -16306644.87549  20790566.820    20790571.1744
 99  5 18 19 23  0.0000000  0  7 10 06 08 24 04 05 30
  21284354.805   -16053921.376 9 -12484891.14549  21284353.629    21284360.3094
  22734475.531    -7802757.833 9  -6070470.44249  22734474.421    22734480.5854
  22998316.088    -3699625.973 9  -2869829.40249  22998315.977    22998323.0124
  21265422.955   -11286416.704 9  -8768922.90349  21265423.114    21265428.7124
  24080219.496                                    24080214.824    24080231.3014
  20360708.907   -17142469.440 9 -13332205.23249  20360708.865    20360714.0344
  20782075.755   -21010385.493 9 -16341411.77649  20782075.469    20782080.2524
 99  5 18 19 23 30.0000000  0  7 10 06 08 24 04 05 30
  21277463.535   -16090134.628 9 -12513109.23149  21277463.349    21277469.3514
  22722145.721    -7867549.571 9  -6120957.45649  22722145.756    22722150.6064
  23014161.244    -3616358.005 9  -2804945.40349  23014160.848    23014170.4354
  21277310.115   -11223950.331 9  -8720247.83149  21277310.185    21277315.7674
  24098697.658                                    24098693.642    24098729.4764
  20366687.389   -17111052.545 9 -13307724.56549  20366687.056    20366692.0884
  20773677.809   -21054516.142 9 -16375799.28749  20773678.042    20773682.7294
 99  5 18 19 24  0.0000000  0  7 10 06 08 24 04 05 30
  21270678.164   -16125791.957 9 -12540894.15749  21270677.696    21270684.3744
  22709827.706    -7932281.275 9  -6171397.68949  22709827.284    22709833.4804
  23030043.510    -3532894.955 9  -2739909.39849  23030043.822    23030052.8994
  21289238.319   -11161266.365 9  -8671403.22949  21289238.327    21289244.2324
  24117176.640                                    24117173.029    24117217.9054
  20372763.905   -17079120.262 9 -13282842.30749  20372763.639    20372769.0684
  20765372.693   -21098160.161 9 -16409807.61549  20765373.071    20765377.4064
 99  5 18 19 24 30.0000000  0  7 10 06 08 24 04 05 30
  21263997.226   -16160900.944 9 -12568251.79649  21263996.641    21264002.7124
  22697521.406    -7996951.540 9  -6221790.07049  22697521.343    22697527.2914
  23045961.551    -3449244.558 9  -2674727.39149  23045961.693    23045969.8634
  21301204.655   -11098382.554 9  -8622402.89649  21301204.423    21301210.2714
  24135653.746                                    24135656.613    24135804.9604
  20378936.116   -17046685.563 9 -13257568.54349  20378935.437    20378941.1704
  20757162.064   -21141306.957 9 -16443428.49849  20757162.595    20757166.3994
 99  5 18 19 25  0.0000000  0  7 10 06 08 24 04 05 30
  21257419.449   -16195468.267 9 -12595187.35449  21257418.445    21257424.8804
  22685227.757    -8061555.069 9  -6272130.44449  22685227.933    22685233.1944
  23061915.144    -3365409.858 9  -2609401.78049  23061915.838    23061924.5814
  21313206.959   -11035310.180 9  -8573255.64949  21313207.394    21313212.6644
  24154128.676                                    24154126.076    24154068.6124
  20385201.722   -17013759.718 9 -13231912.07249  20385201.848    20385206.8594
  20749044.168   -21183966.942 9 -16476670.04349  20749044.336    20749049.0584
 99  5 18 19 25 30.0000000  0  6 10 06 08 24 05 30
  21250952.603   -16229451.530 9 -12621667.80749  21250951.442    21250958.2394
  22672951.821    -8126066.000 9  -6322398.67349  22672951.043    22672957.2994
  23077909.871    -3281357.337 9  -2543906.45549  23077910.635    23077918.4524
  21325250.780   -10972019.706 9  -8523938.43349  21325251.496    21325256.4264
  20391570.568   -16980291.900 9 -13205833.29349  20391570.310    20391575.5904
  20741026.640   -21226098.517 9 -16509499.84149  20741027.016    20741031.7214
 99  5 18 19 26  0.0000000  0  6 10 06 08 24 05 30
  21244590.659   -16262883.197 9 -12647718.45349  21244590.056    21244596.2254
  22660683.843    -8190534.396 9  -6372633.76349  22660684.465    22660689.8764
  23093937.927    -3197129.282 9  -2478274.32349  23093936.820    23093946.1894
  21337331.845   -10908533.927 9  -8474469.03349  21337331.603    21337338.0094
  20398036.589   -16946312.835 9 -13179356.13249  20398036.383    20398041.6134
  20733102.238   -21267741.613 9 -16541949.00949  20733103.081    20733107.2604
 99  5 18 19 26 30.0000000  0  6 10 06 08 24 05 30
  21238334.857   -16295757.534 9 -12673334.79249  21238333.897    21238340.3044
  22648420.187    -8254980.805 9  -6422851.71449  22648419.805    22648426.5184
  23109997.671    -3112735.357 9  -2412512.95349  23109997.212    23110005.7214
  21349449.330   -10844855.334 9  -8424849.39149  21349449.214    21349455.3634
  20404601.541   -16911814.028 9 -13152473.98149  20404600.969    20404606.3604
  20725272.207   -21308889.519 9 -16574012.31549  20725272.892    20725276.9984
 99  5 18 19 27  0.0000000  0  6 10 06 08 24 05 30
  21232189.702   -16328049.787 9 -12698497.57049  21232189.441    21232195.4694
  22636162.328    -8319395.354 9  -6473044.83649  22636161.981    22636168.4824
  23126091.630    -3028162.424 9  -2346612.08349  23126091.120    23126099.2334
  21361610.668   -10780947.391 9  -8375051.04749  21361610.835    21361616.6604
  20411268.828   -16876776.844 9 -13125172.30449  20411268.353    20411273.8294
  20717540.951   -21349517.846 9 -16605670.75849  20717541.514    20717545.5094
 99  5 18 19 27 30.0000000  0  6 10 06 08 24 05 30
  21226158.916   -16359742.752 9 -12723193.35749  21226157.947    21226164.6324
  22623910.634    -8383777.658 9  -6523212.85549  22623910.153    22623915.7334
  23142220.744    -2943404.113 9  -2280566.77349  23142220.014    23142228.7794
  21373818.832   -10716793.568 9  -8325061.10349  21373818.893    21373824.8964
  20418040.115   -16841193.437 9 -13097445.01249  20418039.705    20418045.2114
  20709912.944   -21389603.532 9 -16636906.36049  20709912.966    20709917.9074
 99  5 18 19 28  0.0000000  0  6 10 06 08 24 05 30
  21220243.175   -16390830.021 9 -12747417.17449  21220242.592    21220248.6624
  22611666.666    -8448119.971 9  -6573349.69849  22611666.569    22611673.2354
  23158386.006    -2858454.775 9  -2214372.59349  23158385.843    23158395.0524
  21386076.849   -10652377.548 9  -8274866.83749  21386077.197    21386082.7364
  20424915.940   -16805061.345 9 -13069290.16749  20424915.565    20424921.0044
  20702392.200   -21429125.376 9 -16667702.59649  20702392.852    20702397.0424
 99  5 18 19 28 30.0000000  0  6 10 06 08 24 05 30
  21214443.887   -16421305.393 9 -12771164.19849  21214443.227    21214449.9194
  22599433.193    -8512407.284 9  -6623443.68349  22599433.358    22599439.3174
  23174588.544    -2773310.786 9  -2148026.79449  23174588.846    23174597.7344
  21398385.005   -10587698.282 9  -8224467.44549  21398385.476    21398391.0214
  20431893.900   -16768391.984 9 -13040716.67149  20431893.564    20431898.9764
  20694980.804   -21468072.185 9 -16698050.75149  20694980.633    20694985.5974
 99  5 18 19 29  0.0000000  0  6 10 06 08 24 05 30
  21208759.025   -16451180.280 9 -12794443.30649  21208758.472    21208764.8104
  22587210.568    -8576638.372 9  -6673493.85749  22587210.430    22587216.9024
  23190825.841    -2687984.317 9  -2081538.75049  23190825.576    23190834.1314
  21410738.734   -10522780.111 9  -8173881.90649  21410738.784    21410744.7024
  20438968.144   -16731216.867 9 -13011749.08649  20438967.857    20438973.0224
  20687672.989   -21506474.416 9 -16727974.57149  20687673.642    20687677.7884
 99  5 18 19 29 30.0000000  0  6 10 06 08 24 05 30
  21203185.655   -16480468.458 9 -12817265.24149  21203184.641    21203190.7414
  22574995.971    -8640826.434 9  -6723510.48549  22574996.075    22575001.8354
  23207094.715    -2602490.930 9  -2014920.67449  23207095.732    23207103.8354
  21423131.582   -10457655.397 9  -8123135.40849  21423131.754    21423137.5174
  20446136.887   -16693544.989 9 -12982394.40849  20446136.674    20446141.6754
  20680464.044   -21544358.121 9 -16757494.33949  20680464.143    20680468.8474
 99  5 18 19 30  0.0000000  0  6 10 06 08 24 05 30
  21197721.197   -16509184.274 9 -12839641.17049  21197720.174    21197726.4884
  22562792.076    -8704960.228 9  -6773484.84649  22562791.584    22562796.4794
  23223392.713    -2516846.029 9  -1948184.49549  23223392.780    23223399.9934
  21435560.937   -10392338.990 9  -8072239.56049  21435561.150    21435566.9284
  20453399.674   -16655379.484 9 -12952655.08949  20453399.506    20453405.0234
  20673350.106   -21581742.174 9 -16786624.78649  20673350.577    20673355.2234
 99  5 18 19 30 30.0000000  0  6 10 06 08 24 05 30
  21192363.685   -16537337.714 9 -12861578.90249  21192363.182    21192369.2044
  22550597.820    -8769040.781 9  -6823417.68749  22550597.886    22550604.0624
  23239717.733    -2431057.831 9  -1881336.68449  23239718.877    23239724.6774
  21448022.930   -10326851.546 9  -8021210.41949  21448022.893    21448028.6334
  20460755.042   -16616727.062 9 -12922536.36249  20460754.584    20460759.9544
  20666327.882   -21618644.907 9 -16815380.15549  20666328.179    20666332.2814
 99  5 18 19 31  0.0000000  0  6 10 06 08 24 05 30
  21187112.116   -16564935.581 9 -12883083.70349  21187110.938    21187116.9604
  22538410.663    -8833084.728 9  -6873322.05549  22538410.393    22538416.6834
  23256069.709    -2345128.783 9  -1814379.14249  23256068.928    23256077.2104
  21460516.877   -10261194.806 9  -7970049.36349  21460516.803    21460522.5934
  20468206.874   -16577567.356 9 -12892022.33749  20468206.376    20468211.8964
  20659396.996   -21655066.701 9 -16843760.77749  20659397.307    20659401.8274
 99  5 18 19 31 30.0000000  0  6 10 06 08 24 05 30
  21181967.935   -16591967.806 9 -12904147.74749  21181966.949    21181973.4974
  22526231.620    -8897085.952 9  -6923193.12549  22526231.714    22526236.3844
  23272450.806    -2259045.860 9  -1747301.63349  23272450.788    23272459.3344
  21473045.803   -10195354.663 9  -7918745.40549  21473045.610    21473052.0774
  20475759.387   -16537878.499 9 -12861096.00649  20475759.167    20475764.1514
  20652560.489   -21690992.733 9 -16871755.08949  20652560.810    20652565.0714
 99  5 18 19 32  0.0000000  0  6 10 06 08 24 05 30
  21176931.932   -16618431.153 9 -12924768.49749  21176930.376    21176937.7514
  22514062.897    -8961032.071 9  -6973021.24149  22514062.299    22514067.7574
  23288861.677    -2172807.550 9  -1680103.10849  23288860.587    23288868.4834
  21485611.586   -10129320.770 9  -7867290.45749  21485610.991    21485617.3864
  20483411.553   -16497666.120 9 -12829761.71949  20483411.219    20483416.1464
  20645821.229   -21726407.261 9 -16899350.81949  20645821.325    20645826.3034
 99  5 18 19 32 30.0000000  0  6 10 06 08 24 05 30
  21172004.589   -16644323.674 9 -12944944.46149  21172003.737    21172009.9244
  22501903.367    -9024930.475 9  -7022812.18049  22501903.316    22501908.8924
  23305303.917    -2086402.849 9  -1612774.93049  23305304.773    23305311.3884
  21498213.546   -10063095.851 9  -7815686.66449  21498213.606    21498219.6674
  20491163.960   -16456926.770 9 -12798016.80049  20491163.613    20491168.8914
  20639182.739   -21761292.951 9 -16926534.48149  20639183.710    20639187.4304
 99  5 18 19 33  0.0000000  0  6 10 06 08 24 05 30
  21167187.964   -16669634.854 9 -12964667.42849  21167186.971    21167193.3464
  22489753.828    -9088776.189 9  -7072562.05449  22489753.598    22489759.6834
  23321777.402    -1999834.986 9  -1545319.55649  23321777.409    23321786.0484
  21510852.827    -9996676.662 9  -7763931.50449  21510853.276    21510858.9604
  20499015.167   -16415668.767 9 -12765867.73449  20499015.087    20499020.2034
  20632646.909   -21795639.189 9 -16953297.78249  20632647.485    20632651.8954
 99  5 18 19 33 30.0000000  0  6 10 06 08 24 05 30
  21162483.253   -16694358.464 9 -12983932.54849  21162482.658    21162489.1384
  22477615.728    -9152561.458 9  -7122264.81549  22477614.761    22477621.4834
  23338279.178    -1913117.962 9  -1477747.97149  23338279.575    23338287.2204
  21523527.740    -9930070.012 9  -7712030.26249  21523528.082    21523534.0554
  20506962.649   -16373904.894 9 -12733324.50049  20506962.735    20506967.7844
  20626214.196   -21829443.166 9 -16979638.54049  20626214.029    20626218.9174
 99  5 18 19 34  0.0000000  0  6 10 06 08 24 05 30
  21157889.935   -16718496.534 9 -13002741.40049  21157889.508    21157895.9694
  22465489.858    -9216282.679 9  -7171917.70249  22465489.955    22465495.9264
  23354806.242    -1826268.613 9  -1410073.28349  23354805.575    23354814.3794
  21536238.760    -9863273.732 9  -7659981.24249  21536238.622    21536244.8794
  20515007.428   -16331629.993 9 -12700383.04449  20515006.886    20515012.1534
  20619887.230   -21862690.632 9 -17005545.66049  20619887.779    20619891.8694
 99  5 18 19 34 30.0000000  0  6 10 06 08 24 05 30
  21153412.697   -16742024.705 9 -13021075.00449  21153412.407    21153418.2644
  22453376.783    -9279937.888 9  -7221519.13949  22453377.410    22453382.6344
  23371360.495    -1739276.867 9  -1342287.67749  23371360.594    23371369.9454
  21548987.648    -9796277.914 9  -7607776.75849  21548987.836    21548993.6464
  20523152.830   -16288825.170 9 -12667028.67749  20523152.307    20523157.6624
  20613668.457   -21895371.188 9 -17031011.02749  20613668.914    20613673.1564
 99  5 18 19 35  0.0000000  0  6 10 06 08 24 05 30
  21149054.236   -16764929.457 9 -13038922.83349  21149053.245    21149059.4354
  22441275.844    -9343529.785 9  -7271071.23849  22441275.628    22441280.7684
  23387940.084    -1652150.423 9  -1274397.12749  23387939.986    23387948.2274
  21561775.404    -9729077.600 9  -7555412.93249  21561775.334    21561781.7534
  20531399.135   -16245490.464 9 -12633261.40949  20531398.579    20531404.0474
  20607554.775   -21927498.911 9 -17056045.62849  20607555.486    20607560.0744
 99  5 18 19 35 30.0000000  0  6 10 06 08 24 05 30
  21144813.449   -16787214.543 9 -13056287.81849  21144812.591    21144818.6034
  22429187.267    -9407055.810 9  -7320572.02749  22429187.457    22429192.5004
  23404544.524    -1564892.805 9  -1206404.31649  23404543.602    23404553.3624
  21574601.947    -9661672.629 9  -7502889.61549  21574601.894    21574608.3134
  20539747.696   -16201618.159 9 -12599075.23649  20539747.259    20539752.5274
  20601545.463   -21959078.426 9 -17080653.04049  20601545.757    20601550.2754
 99  5 18 19 36  0.0000000  0  6 10 06 08 24 05 30
  21140689.011   -16808888.559 9 -13073176.63549  21140688.376    21140694.4644
  22417110.449    -9470519.257 9  -7370024.03149  22417110.407    22417116.1374
  23421175.194    -1477498.940 9  -1138305.33649  23421174.408    23421185.1064
  21587465.141    -9594075.820 9  -7450216.82449  21587465.149    21587471.9044
  20548195.472   -16157224.444 9 -12564482.77349  20548195.081    20548200.5684
  20595638.209   -21990121.087 9 -17104842.12849  20595638.586    20595643.3594
 99  5 18 19 36 30.0000000  0  6 10 06 08 24 05 30
  21136680.580   -16829952.142 9 -13089589.78549  21136680.481    21136686.0454
  22405041.868    -9533940.151 9  -7419442.85749  22405041.962    22405047.6974
  23437829.970    -1389977.508 9  -1070106.94149  23437829.408    23437839.3084
  21600360.816    -9526309.452 9  -7397411.90049  21600360.602    21600367.9774
  20556737.787   -16112334.275 9 -12529503.45849  20556737.337    20556743.1614
  20589828.589   -22020650.801 9 -17128631.50849  20589829.298    20589833.2854
 99  5 18 19 37  0.0000000  0  6 10 06 08 24 05 30
  21132783.157   -16850433.318 9 -13105549.12249  21132782.219    21132789.0034
  22392980.620    -9597322.568 9  -7468831.74549  22392980.082    22392985.5184
  23454504.215    -1302354.998 9  -1001829.81949  23454505.544    23454512.2164
  21613285.266    -9458391.479 9  -7344488.85749  21613285.554    21613292.3794
  20565371.892   -16066961.862 9 -12494148.36749  20565371.330    20565377.1194
  20584113.766   -22050682.727 9 -17152033.01249  20584113.874    20584118.6034
 99  5 18 19 37 30.0000000  0  6 10 06 08 24 05 30
  21128995.317   -16870338.321 9 -13121059.47949  21128994.252    21129000.9284
  22380927.184    -9660662.379 9  -7518187.38849  22380926.867    22380933.2834
  23471195.774    -1214641.914 9   -933482.13349  23471195.649    23471203.8144
  21626238.355    -9390323.165 9  -7291448.66149  21626238.866    21626244.9524
  20574097.641   -16021107.922 9 -12458418.06549  20574097.239    20574102.7884
  20578495.940   -22080204.268 9 -17175036.81049  20578496.064    20578500.5604
 99  5 18 19 38  0.0000000  0  6 10 06 08 24 05 30
  21125319.667   -16889653.476 9 -13136110.22949  21125318.796    21125325.2654
  22368882.471    -9723958.403 9  -7567508.95149  22368883.304    22368888.4174
  23487903.884    -1126839.664 9   -865064.96849  23487903.413    23487912.5514
  21639220.144    -9322104.031 9  -7238290.92549  21639220.240    21639226.0494
  20582916.872   -15974762.918 9 -12422305.11249  20582916.473    20582922.2034
  20572978.261   -22109199.760 9 -17197630.70449  20572978.923    20572982.7474
 99  5 18 19 38 30.0000000  0  6 10 06 08 24 05 30
  21121758.330   -16908368.231 9 -13150693.13349  21121758.011    21121763.8494
  22356848.194    -9787200.095 9  -7616788.16949  22356848.256    22356853.4184
  23504629.500    -1038946.500 9   -796576.95849  23504630.453    23504639.0254
  21652234.548    -9253713.235 9  -7184999.44349  21652234.200    21652240.8064
  20591833.832   -15927903.701 9 -12385791.47449  20591833.440    20591839.0184
  20567563.885   -22137652.833 9 -17219801.92749  20567563.922    20567568.3924
 99  5 18 19 39  0.0000000  0  6 10 06 08 24 05 30
  21118311.908   -16926480.586 9 -13164806.62749  21118310.968    21118316.7404
  22344826.732    -9850373.301 9  -7666014.01449  22344827.088    22344832.3254
  23521374.436     -950953.025 9   -728010.80449  23521375.601    23521383.9354
  21665282.892    -9185143.005 9  -7131568.12849  21665282.607    21665289.2484
  20600849.834   -15880524.394 9 -12348872.56649  20600849.429    20600855.4944
  20562255.591   -22165547.766 9 -17241538.24049  20562255.916    20562260.4004
 99  5 18 19 39 30.0000000  0  6 10 06 08 24 05 30
  21114982.425   -16943976.164 9 -13178439.51449  21114980.813    21114988.2984
  22332818.236    -9913477.852 9  -7715186.36149  22332817.372    22332823.7074
  23538141.169     -862844.338 9   -659354.84749  23538141.284    23538150.3054
  21678364.564    -9116397.746 9  -7078000.44749  21678364.261    21678370.9524
  20609962.490   -15832636.612 9 -12311557.44649  20609962.340    20609968.4314
  20557055.958   -22192871.829 9 -17262829.71049  20557055.716    20557060.8274
 99  5 18 19 40  0.0000000  0  6 10 06 08 24 05 30
  21111769.360   -16960860.133 9 -13191595.83749  21111768.537    21111775.4324
  22320821.901    -9976517.854 9  -7764308.40049  22320821.837    22320826.7814
  23554931.826     -774609.348 9   -590600.45649  23554931.880    23554941.5414
  21691478.210    -9047485.318 9  -7024302.49749  21691478.442    21691485.2334
  20619170.905   -15784247.088 9 -12273851.36249  20619170.795    20619176.2864
  20551965.049   -22219624.742 9 -17283676.15549  20551965.600    20551969.8254
 99  5 18 19 40 30.0000000  0  6 10 06 08 24 05 30
  21108670.208   -16977146.370 9 -13204286.39749  21108669.852    21108675.8074
  22308837.732   -10039495.974 9  -7813382.22149  22308837.873    22308842.9364
  23571745.685     -686250.976 9   -521749.93149  23571744.571    23571756.0084
  21704621.765    -8978416.763 9  -6970482.89349  21704622.333    21704627.7914
  20628471.741   -15735371.053 9 -12235766.17449  20628471.466    20628477.0764
  20546982.217   -22245810.082 9 -17304080.31249  20546982.270    20546987.3284
 99  5 18 19 41  0.0000000  0  6 10 06 08 24 05 30
  21105683.242   -16992843.523 9 -13216517.92049  21105682.930    21105689.1064
  22296865.973   -10102407.019 9  -7862403.77149  22296865.721    22296871.4254
  23588582.683     -597770.775 9   -452804.46849  23588582.444    23588591.0004
  21717792.346    -8909205.720 9  -6916552.23649  21717792.485    21717798.3894
  20637864.166   -15686014.340 9 -12197306.43549  20637864.444    20637869.4844
  20542111.158   -22271406.778 9 -17324025.79349  20542111.662    20542116.2834
 99  5 18 19 41 30.0000000  0  7 10 06 08 24 05 17 30
  21102809.603   -17007944.948 9 -13228285.24449  21102808.909    21102815.3864
  22284908.464   -10165243.147 9  -7911366.93849  22284907.959    22284913.5674
  23605443.369     -509169.566 9   -383764.72849  23605443.641    23605451.2294
  21730991.286    -8839844.331 9  -6862504.41649  21730990.998    21730997.5774
  20647350.946   -15636161.703 9 -12158460.25249  20647350.507    20647356.0324
  24616844.140                                    24616848.540    24616845.6314
  20537354.268   -22296404.456 9 -17343504.50349  20537355.005    20537359.1404
 99  5 18 19 42  0.0000000  0  7 10 06 08 24 05 17 30
  21100050.754   -17022442.863 9 -13239582.31549  21100049.770    21100055.8304
  22272969.813   -10227982.191 9  -7960254.49349  22272969.684    22272974.9044
  23622326.868     -420446.168 9   -314629.76049  23622326.993    23622336.2124
  21744224.187    -8770305.095 9  -6808318.04849  21744224.557    21744230.4984
  20656938.618   -15585778.436 9 -12119200.60749  20656937.959    20656943.7274
  24599794.227                                    24599799.523    24599801.5514
  20532715.132   -22320783.443 9 -17362501.12549  20532715.687    20532720.0454
 99  5 18 19 42 30.0000000  0  7 10 06 08 24 05 17 30
  21097416.311   -17036287.109 9 -13250370.02349  21097415.283    21097421.6614
  22261058.919   -10290573.504 9  -8009026.93849  22261058.600    22261064.5524
  23639237.425     -331580.389 9   -245383.86949  23639237.866    23639246.6884
  21757497.222    -8700555.918 9  -6753968.07249  21757497.208    21757503.8944
  20666634.926   -15534823.971 9 -12079495.86849  20666634.357    20666640.1964
  24582788.087                                    24582794.186    24582797.1734
  20528200.299   -22344509.290 9 -17380988.79549  20528200.632    20528205.2324
 99  5 18 19 43  0.0000000  0  7 10 06 08 24 05 17 30
  21094904.493   -17049486.252 9 -13260655.05749  21094903.742    21094910.0774
  22249168.947   -10353055.303 9  -8057714.01849  22249168.591    22249174.5434
  23656166.039     -242621.532 9   -176065.44849  23656166.487    23656173.7224
  21770806.009    -8630617.854 9  -6699470.93049  21770805.715    21770812.6554
  20676433.333   -15483332.919 9 -12039373.01149  20676432.983    20676438.5294
  24565821.117    -1327919.35359                  24565820.416    24565831.2824
  20523800.583   -22367629.935 9 -17399004.88549  20523800.758    20523805.4324
 99  5 18 19 43 30.0000000  0  7 10 06 08 24 05 17 30
  21092512.812   -17062054.127 9 -13270448.17849  21092512.238    21092518.0654
  22237291.149   -10415472.447 9  -8106350.71749  22237290.874    22237296.7394
  23673100.827     -153626.552 9   -106718.87149  23673099.304    23673111.0084
  21784146.899    -8560510.763 9  -6644842.05949  21784146.839    21784153.3184
  20686328.073   -15431335.255 9 -11998855.38549  20686327.783    20686333.4294
  24548881.373    -2182497.68319  -1397283.32649  24548880.134    24548890.7444
  20519503.851   -22390209.282 9 -17416599.19249  20519504.343    20519508.7744
 99  5 18 19 44  0.0000000  0  7 10 06 08 24 05 17 30
  21090245.132   -17073970.652 9 -13279733.76649  21090244.248    21090250.4804
  22225428.754   -10477809.323 9  -8154924.90049  22225428.836    22225435.0194
  23690045.078      -64583.408 9    -37334.81249  23690046.752    23690054.0514
  21797523.371    -8490217.211 9  -6590067.91149  21797523.339    21797529.9054
  20696319.062   -15378832.090 9 -11957943.86049  20696318.847    20696324.7654
  24531971.654    -2271358.211 9  -1466525.23449  24531971.659    24531982.6144
  20515311.001   -22412243.027 9 -17433768.33249  20515310.786    20515315.8344
 99  5 18 19 44 30.0000000  0  7 10 06 08 24 05 17 30
  21088100.415   -17085241.270 9 -13288516.06149  21088100.102    21088106.0854
  22213574.665   -10540104.089 9  -8203466.25249  22213574.203    22213579.8604
  23706996.110       24493.773 9     32075.80549  23706996.178    23707006.9384
  21810929.373    -8419768.031 9  -6535172.47649  21810929.488    21810935.4984
  20706397.647   -15325869.582 9 -11916674.42349  20706397.779    20706403.0494
  24515089.162    -2360075.175 9  -1535655.29449  24515086.869    24515099.0134
  20511214.549   -22433770.027 9 -17450542.63049  20511214.931    20511219.5744
 99  5 18 19 45  0.0000000  0  7 10 06 08 24 05 17 30
  21086070.724   -17095907.702 9 -13296827.55149  21086069.938    21086076.3884
  22201721.769   -10602391.572 9  -8252001.93949  22201722.537    22201727.4474
  23723950.719      113591.227 9    101502.21149  23723951.780    23723962.8224
  21824363.530    -8349171.146 9  -6480161.94449  21824363.338    21824369.4054
  20716558.820   -15272472.408 9 -11875066.27249  20716558.765    20716564.3524
  24498230.414    -2448664.917 9  -1604686.23449  24498230.288    24498240.8144
  20507211.295   -22454806.959 9 -17466935.04649  20507211.383    20507216.4654
 99  5 18 19 45 30.0000000  0  7 10 06 08 24 05 17 30
  21084145.779   -17106022.898 9 -13304709.51049  21084145.210    21084151.5034
  22189870.252   -10664672.678 9  -8300532.64649  22189869.673    22189875.8614
  23740913.085      202727.360 9    170958.73949  23740913.947    23740923.1864
  21837820.663    -8278453.842 9  -6425057.58749  21837820.931    21837826.5284
  20726799.695   -15218656.603 9 -11833131.92049  20726799.435    20726805.0144
  24481396.122    -2537129.969 9  -1673619.98549  24481396.432    24481406.3304
  20503301.482   -22475353.267 9 -17482945.16149  20503302.599    20503306.4974
 99  5 18 19 46  0.0000000  0  7 10 06 08 24 05 17 30
  21082323.020   -17115601.982 9 -13312173.71249  21082322.232    21082328.7264
  22178020.424   -10726942.475 9  -8349054.55249  22178020.436    22178026.6644
  23757887.143      291926.042 9    240464.04449  23757886.877    23757895.5564
  21851294.604    -8207648.397 9  -6369884.55349  21851294.474    21851301.3304
  20737118.072   -15164433.468 9 -11790880.17549  20737117.812    20737123.6214
  24464589.565    -2625451.757 9  -1742442.11749  24464590.007    24464598.3704
  20499486.288   -22495403.202 9 -17498568.49449  20499486.721    20499490.5254
 99  5 18 19 46 30.0000000  0  7 10 06 08 24 05 17 30
  21080599.872   -17124657.328 9 -13319229.80549  21080599.085    21080605.2374
  22166173.971   -10789196.366 9  -8397564.06849  22166174.437    22166179.6504
  23774871.000      381175.281 9    310008.72749  23774871.949    23774881.8774
  21864783.108    -8136765.984 9  -6314651.56149  21864783.036    21864789.9674
  20747519.170   -15109775.886 9 -11748289.88849  20747518.991    20747524.5244
  24447811.402    -2713621.315 9  -1811145.59549  24447811.073    24447821.0944
  20495768.879   -22514938.116 9 -17513790.50649  20495769.234    20495773.3824
 99  5 18 19 47  0.0000000  0  7 10 06 08 24 05 17 30
  21078975.639   -17133192.169 9 -13325880.32049  21078975.109    21078981.1284
  22154340.533   -10851382.993 9  -8446021.15949  22154340.999    22154346.4694
  23791865.248      470477.204 9    379594.51949  23791865.294    23791877.5894
  21878288.630    -8065794.268 9  -6259348.97149  21878288.326    21878294.9734
  20758010.498   -15054643.320 9 -11705329.48949  20758009.719    20758016.2004
  24431065.515    -2801621.597 9  -1879717.17649  24431064.816    24431075.5694
  20492157.062   -22533918.338 9 -17528580.29949  20492157.215    20492161.5354
 99  5 18 19 47 30.0000000  0  7 10 06 08 24 05 17 30
  21077463.189   -17141139.937 9 -13332073.36649  21077462.656    21077468.8024
  22142527.041   -10913463.139 9  -8494395.26849  22142526.328    22142532.5914
  23808872.224      559849.429 9    449235.01449  23808872.011    23808883.0344
  21891813.483    -7994720.459 9  -6203966.83249  21891813.433    21891820.1364
  20768599.291   -14998999.098 9 -11661970.40049  20768598.838    20768604.7334
  24414355.155    -2889433.209 9  -1948141.78549  24414354.774    24414364.7404
  20488657.543   -22552308.120 9 -17542910.01249  20488657.977    20488662.6444
 99  5 18 19 48  0.0000000  0  7 10 06 08 24 05 17 30
  21076069.881   -17148461.814 9 -13337778.72749  21076069.551    21076075.0954
  22130732.318   -10975444.419 9  -8542692.35249  22130732.313    22130737.0634
  23825887.474      649263.529 9    518908.16249  23825888.021    23825897.6024
  21905359.871    -7923532.543 9  -6148495.76949  21905360.035    21905366.5524
  20779288.544   -14942826.759 9 -11618199.79049  20779288.268    20779293.9104
  24397678.747    -2977067.820 9  -2016428.44849  24397679.298    24397688.4514
  20485272.771   -22570095.209 9 -17556770.08649  20485273.260    20485278.2224
 99  5 18 19 48 30.0000000  0  7 10 06 08 24 05 17 30
  21074803.834   -17155114.999 9 -13342963.00449  21074802.838    21074809.0014
  22118962.299   -11037296.099 9  -8590888.44149  22118961.651    22118967.9344
  23842913.548      738736.088 9    588626.83649  23842914.614    23842923.2174
  21918941.668    -7852160.497 9  -6092881.21449  21918941.952    21918948.4494
  20790085.259   -14886090.254 9 -11573989.56949  20790084.964    20790090.4754
  24381040.763    -3064501.501 9  -2084558.49449  24381040.277    24381049.9034
  20482012.144   -22587229.705 9 -17570121.64549  20482012.028    20482017.4104
 99  5 18 19 49  0.0000000  0  7 10 06 08 24 05 17 30
  21073664.351   -17161102.612 9 -13347628.65449  21073663.416    21073670.2924
  22107209.634   -11099056.482 9  -8639013.39649  22107209.367    22107214.7654
  23859948.013      828250.658 9    658378.23749  23859948.641    23859957.7354
  21932552.404    -7780636.147 9  -6037148.00149  21932552.260    21932558.7364
  20800977.122   -14828853.275 9 -11529389.36549  20800976.753    20800982.4024
  24364432.944    -3151776.504 9  -2152564.88549  24364431.595    24364443.5654
  20478868.767   -22603748.321 9 -17582993.30749  20478869.064    20478873.7934
 99  5 18 19 49 30.0000000  0  7 10 06 08 24 05 17 30
  21072658.791   -17166386.706 9 -13351746.13649  21072657.942    21072664.2744
  22095472.564   -11160735.164 9  -8687074.68749  22095472.163    22095477.6534
  23876998.380      917849.311 9    728195.17749  23876999.517    23877008.1534
  21946198.004    -7708928.255 9  -5981271.76949  21946198.243    21946204.4354
  20811965.087   -14771111.134 9 -11484395.53349  20811964.447    20811970.4004
  24347859.182    -3238872.531 9  -2220431.84049  24347859.068    24347869.3034
  20475845.240   -22619637.239 9 -17595374.30349  20475845.537    20475849.9134
